[[[{"header":{"parameterUnit":"kt","parameterCategory":2,"dx":1,"dy":1,"la1":29.285339999999998,"la2":30.599998999999997,"lo1":-89.70041500000002,"lo2":-87.6738589999976,"nx":112,"ny":82,"refTime":"2022-10-20T00:00:00:Z","depth":0,"parameterNumber":1,"parameterNumberName":"U-component_of_WINDS"},"data":[1.4776,1.4531,0.0,1.3211,1.2045,0.0,0.8578,0.0,0.0,0.0,0.0,0.0,0.0,0.0,0.0,0.0,0.0,0.0,0.0,0.0,0.0,0.0,0.0,0.0,0.0,0.0,0.0,0.0,0.0,0.0,0.0,0.0,4.5651,5.0245,5.2049,5.4504,5.794,5.8001,5.8524,5.9646,5.978,5.9849,5.9917,6.1631,6.2412,6.2565,6.484,6.6427,6.748,6.8063,6.8956,6.9859,6.9896,6.9849,6.9793,6.9565,6.9411,6.9369,6.9314,6.9294,6.9273,6.9314,6.9314,6.9369,6.9468,7.1314,7.3614,7.484,7.7273,7.9461,7.9461,7.9442,7.9346,7.9461,7.9518,7.9571,7.9588,7.956,7.9212,7.8168,7.7487,7.6791,7.5808,7.472,7.3374,7.1559,7.1126,7.0765,7.0251,6.9585,6.8466,6.6822,6.5074,6.23,5.7782,5.3979,5.0398,4.713,4.5313,4.3663,4.2116,4.0199,3.9172,3.9138,3.8916,3.8711,3.8584,3.9487,4.0591,4.1897,4.2718,4.4024,0.0,0.0,1.3433,1.1892,0.0,0.0,0.0,0.0,0.0,0.0,0.0,0.0,0.0,0.0,0.0,0.0,0.0,0.0,0.0,0.0,0.0,0.0,0.0,0.0,0.0,0.0,0.0,0.0,0.0,0.0,0.0,4.1493,4.5433,4.9426,5.122,5.3434,5.6281,5.6334,5.6925,5.8039,5.8721,5.9013,5.9058,6.0744,6.1575,6.1623,6.389,6.5466,6.6591,6.7765,6.8883,6.9783,6.9752,6.9705,6.9729,6.9466,6.939,6.9359,6.9209,6.9165,6.9119,6.9165,6.9142,6.917,6.9165,7.1057,7.3454,7.4625,7.7057,7.9219,7.9219,7.9294,7.9272,7.9219,7.9338,7.923,7.8743,7.8556,7.8083,7.6404,7.5649,7.4894,7.3819,7.2144,7.0614,6.9359,7.0066,7.032,6.9173,6.8899,6.8448,6.7295,6.5599,6.3483,6.0773,5.6522,5.2166,4.7782,4.5934,4.4309,4.2682,4.0849,3.9789,3.973,3.9005,3.878,3.9143,4.0074,4.1464,4.3364,4.4452,4.5427,0.0,0.0,0.0,1.1801,0.0,0.0,0.0,0.0,0.6818,0.0,0.0,0.0,0.0,0.0,0.0,0.0,0.0,0.0,0.0,0.0,0.0,0.0,0.0,0.0,0.0,0.0,0.0,0.0,0.0,0.0,3.884,4.1053,4.4353,4.9341,5.1145,5.281,5.4558,5.4657,5.4775,5.484,5.6515,5.7314,5.7404,5.913,5.9929,6.0117,6.3304,6.4732,6.5066,6.8355,6.9705,6.9793,6.968,6.9611,6.9593,6.941,6.9337,6.9222,6.9194,6.9072,6.8974,6.8974,6.8974,6.8948,6.887,7.1321,7.4346,7.5643,7.7523,7.9102,7.9102,7.9128,7.9077,7.9078,7.9128,7.8702,7.7123,7.6818,7.6238,7.4538,7.2937,7.183,7.1668,7.0071,6.8795,6.8795,6.8795,6.8742,6.8648,6.8619,6.8559,6.8404,6.6888,6.5224,6.3531,6.0388,5.5766,4.9373,4.7467,4.573,4.4076,4.2362,4.1347,4.0997,3.9413,3.9146,4.0453,4.0353,4.1825,4.4737,4.5621,4.6061,1.5232,0.0,0.0,0.0,0.0,0.0,0.0,0.0,0.0,0.0,0.0,0.0,0.0,0.0,0.0,0.0,0.0,0.0,0.0,0.0,0.0,0.0,0.0,0.0,0.0,0.0,0.0,0.0,0.0,0.0,3.8823,4.2118,4.4979,4.768,4.9503,5.1233,5.2874,5.2979,5.3561,5.4835,5.6549,5.7403,5.7547,6.0389,6.1693,6.1714,6.3802,6.5355,6.6526,6.7419,6.8538,6.9625,6.9581,6.9466,6.9327,6.9142,6.9098,6.9072,6.9072,6.9072,6.8945,6.8808,6.8705,6.8958,7.0123,7.2001,7.4133,7.5686,7.7436,7.8813,7.8813,7.8784,7.8859,7.8813,7.8869,7.8548,7.6892,7.6571,7.5748,7.2891,7.1896,7.1122,6.9848,6.8986,6.8529,6.8393,6.8362,6.8362,6.8373,6.8308,6.8275,6.8308,6.6694,6.5,6.3341,6.0037,5.6878,5.4046,5.021,4.7277,4.5552,4.3763,4.2222,4.1049,4.0338,4.0074,4.0193,4.1219,4.2669,4.4268,4.5208,4.5509,0.0,0.0,0.0,0.0,0.0,0.0,0.8926,0.0,0.4104,0.0,0.0,0.0,0.0,0.0,0.0,0.0,0.0,0.0,0.0,0.0,0.0,0.0,0.0,0.0,0.0,0.0,0.0,0.0,0.0,3.5418,3.8932,4.2566,4.4993,4.6032,4.8543,5.0339,5.1272,5.1316,5.1816,5.2833,5.5201,5.6408,5.6515,5.9798,6.1174,6.1246,6.2857,6.4098,6.494,6.5619,6.6942,6.8413,6.8356,6.8586,6.9048,6.8897,6.8789,6.878,6.8966,6.8993,6.8966,6.8663,6.8498,6.8678,6.9614,7.1611,7.3685,7.4653,7.6623,7.8445,7.8412,7.8445,7.8478,7.8585,7.8051,7.7215,7.5616,7.4749,7.3432,7.0793,7.0264,6.9824,6.8603,6.8234,6.8106,6.8106,6.7997,6.7962,6.7962,6.8,6.7965,6.7929,6.6935,6.5353,6.2966,6.0914,5.8463,5.5562,5.2148,4.9536,4.8004,4.5593,4.3875,4.2918,4.1971,4.1711,4.2047,4.2777,4.3981,4.5641,4.5971,4.6398,0.0,0.0,0.0,0.0,1.3734,0.0,0.0,0.0,0.0,0.0,0.0,0.0,0.0,0.0,0.0,0.0,0.0,0.0,0.0,0.0,0.0,0.0,0.0,0.0,0.0,0.0,3.1064,3.7639,3.5914,3.5948,3.9073,4.2621,4.4609,4.4687,4.8106,4.9958,4.9964,4.9936,4.9958,4.9962,5.3218,5.4618,5.4605,5.7898,5.9356,5.9492,6.1013,6.1788,6.2071,6.3462,6.5172,6.6804,6.6502,6.7071,6.8201,6.847,6.8529,6.8436,6.8751,6.8836,6.878,6.8542,6.834,6.834,6.8242,7.0499,7.3238,7.3503,7.5762,7.8024,7.7948,7.7986,7.8061,7.8244,7.6981,7.5347,7.3919,7.2175,7.04,6.8839,6.8542,6.8415,6.7892,6.7632,6.7593,6.767,6.7593,6.7555,6.7555,6.7555,6.7476,6.7389,6.7421,6.6056,6.2707,6.223,6.0156,5.562,5.3662,5.2098,5.0833,4.7808,4.594,4.5456,4.3824,4.3572,4.4665,4.4268,4.5404,4.7856,4.7463,4.7907,0.0,0.0,0.0,0.0,0.0,0.7198,0.0,0.0,0.0,0.0,0.0,0.0,0.0,0.0,0.0,0.0,0.0,0.0,0.0,0.0,0.0,0.0,0.0,0.0,0.0,2.733,3.3481,3.819,3.8266,3.8416,3.9196,4.2735,4.4715,4.4713,4.8126,4.9991,4.9939,4.9953,4.9963,4.9951,5.1897,5.2763,5.2921,5.6169,5.7591,5.7564,5.9101,6.0528,6.1689,6.2009,6.3881,6.6451,6.5694,6.5018,6.4717,6.7439,6.8436,6.8373,6.814,6.8071,6.8071,6.8248,6.818,6.7965,6.7929,7.0252,7.3352,7.5968,7.7148,7.7664,7.7664,7.7664,7.7706,7.7706,7.6457,7.4909,7.3393,7.1692,6.999,6.8402,6.8036,6.7892,6.755,6.7266,6.7053,6.7023,6.7053,6.7053,6.7053,6.7139,6.7181,6.7139,6.7053,6.6122,6.4133,6.2582,6.0762,5.8566,5.571,5.3477,5.2171,5.0219,4.7874,4.5198,4.4717,4.4483,4.4381,4.4008,4.5723,4.9392,4.8933,4.8712,0.0,0.0,0.0,0.8504,0.0,0.0,0.0,0.0,0.0,0.0,0.0,0.0,0.0,0.0,0.0,0.0,0.0,0.0,0.0,0.0,0.0,0.0,0.0,0.0,0.0,2.8136,3.2811,3.5886,3.8029,3.957,4.0573,4.3271,4.5158,4.6016,4.8576,4.9961,4.9962,4.9958,4.9939,4.9888,5.1537,5.224,5.2303,5.5553,5.6976,5.6921,5.8477,5.9493,6.0271,6.0201,6.1514,6.3515,6.3086,6.2939,6.3248,6.4973,6.6667,6.8071,6.7705,6.7357,6.7192,6.7589,6.7705,6.7705,6.7589,6.865,7.063,7.3844,7.5353,7.6204,7.6938,7.7158,7.7203,7.7292,7.6042,7.4426,7.2892,7.1274,6.9656,6.8149,6.751,6.7108,6.7096,6.6832,6.665,6.6624,6.665,6.6578,6.6696,6.6742,6.6787,6.6696,6.665,6.586,6.3992,6.2364,6.0738,5.8952,5.5944,5.3989,5.3363,5.1773,4.9829,4.7522,4.6452,4.6128,4.6683,4.6819,4.8276,5.0829,5.0354,5.0358,0.0,0.0,0.0,0.0,0.0,0.0,0.0,-0.2897,0.0,0.0,0.0,0.0,0.0,0.0,0.0,0.0,0.0,0.0,0.0,0.0,0.0,0.0,0.0,0.0,0.0,2.8114,3.1192,3.3522,3.6889,3.9706,4.1857,4.3743,4.5537,4.7365,4.9051,4.9943,4.992,4.99,4.9856,4.9782,5.1144,5.1849,5.218,5.5062,5.6545,5.6753,5.8183,5.8784,5.8781,5.8648,5.9158,6.0053,6.0053,6.0761,6.1829,6.2489,6.4396,6.6747,6.692,6.6696,6.639,6.7009,6.7307,6.7462,6.7181,6.7315,6.8189,7.0601,7.2804,7.4647,7.6251,7.6688,7.6785,7.6928,7.5372,7.36,7.2394,7.0596,6.8756,6.7599,6.6832,6.6415,6.6557,6.6295,6.6172,6.6247,6.6221,6.6149,6.6319,6.6295,6.6319,6.61,6.61,6.5449,6.3829,6.2362,6.0935,5.9432,5.6827,5.5111,5.4612,5.3396,5.1861,5.0187,4.8272,4.7858,4.8901,5.0115,5.1304,5.2392,5.2085,5.2467,0.0,-0.2286,-0.1331,0.0,0.0,0.0,-0.4533,-0.6437,0.0,0.0,0.0,0.0,0.0,0.0,0.0,0.0,0.0,0.0,0.0,0.0,0.0,0.0,0.0,0.0,0.0,2.7213,3.0645,3.3762,3.5896,3.8446,4.1806,4.3706,4.5458,4.7229,4.9029,4.99,4.978,4.98,4.9753,4.9733,4.984,5.0584,5.1974,5.3752,5.5248,5.6522,5.7959,5.8564,5.8507,5.8328,5.8116,5.8026,5.7953,5.7954,5.8427,6.1262,6.2498,6.307,6.5166,6.587,6.5921,6.6696,6.6966,6.6921,6.6696,6.7616,6.8918,6.9279,7.1548,7.4256,7.5872,7.6411,7.6585,7.6359,7.4039,7.1863,7.1646,6.9086,6.6701,6.6367,6.6023,6.587,6.6051,6.5767,6.545,6.561,6.561,6.561,6.561,6.5715,6.5767,6.561,6.561,6.5379,6.4966,6.3604,6.2612,6.2311,6.0842,5.8673,5.6116,5.5669,5.4267,5.1535,4.9795,4.8801,4.8605,5.1374,5.3238,5.4198,5.4838,5.5035,-0.915,-0.7941,-0.5474,0.0,0.0,0.0,0.0,-0.8989,0.0,0.0,0.0,0.0,0.0,0.0,0.0,0.0,0.0,0.0,0.0,0.0,0.0,0.0,0.0,0.0,0.0,0.0,0.0,3.2667,3.4498,3.6619,3.9143,4.2788,4.6013,4.8626,4.9484,4.9791,4.9636,4.9566,4.9515,4.9563,4.946,5.0288,5.1823,5.3396,5.4875,5.635,5.7708,5.8193,5.814,5.766,5.7368,5.7137,5.7137,5.7018,5.7174,5.9824,6.1511,6.2723,6.4961,6.561,6.5557,6.6073,6.6415,6.6604,6.6319,6.6774,6.7327,6.7128,6.9529,7.2708,7.5339,7.5934,7.5934,7.5988,7.487,7.3322,7.1523,6.996,6.8512,6.7214,6.6198,6.5504,6.552,6.5326,6.5193,6.5193,6.5193,6.5249,6.5233,6.5233,6.5233,6.5233,6.5249,6.5081,6.4911,6.3432,6.2462,6.2491,6.0946,5.9208,5.7295,5.7175,5.5718,5.2915,5.2118,5.1166,4.9941,5.2916,5.5306,5.7176,5.6815,5.6583,-1.4117,0.0,0.0,0.0,0.0,0.0,0.0,0.0,0.0,0.0,0.0,0.0,0.0,0.0,0.0,0.0,0.0,0.0,0.0,0.0,0.0,0.0,0.0,0.0,0.0,0.0,0.0,0.0,3.3187,3.4919,3.7197,4.1227,4.5227,4.8892,4.942,4.9554,4.9446,4.9355,4.929,4.9238,4.9221,5.0064,5.1631,5.2719,5.4194,5.6035,5.692,5.7141,5.6897,5.6793,5.6646,5.6603,5.656,5.643,5.6537,5.8647,6.0483,6.2283,6.3958,6.4792,6.5122,6.5397,6.5767,6.6123,6.587,6.5942,6.587,6.5557,6.7713,7.0645,7.3478,7.4783,7.5369,7.5485,7.4926,7.3809,7.1623,7.0668,6.9586,6.7739,6.6069,6.5011,6.491,6.4884,6.4853,6.4738,6.4738,6.4936,6.5474,6.5487,6.5569,6.6049,6.5639,6.5521,6.5762,6.3873,6.2906,6.3336,6.1812,6.018,5.8559,5.8471,5.7096,5.4187,5.3738,5.3293,5.2825,5.5319,5.7393,5.9086,5.8231,5.7858,0.0,0.0,0.0,-1.2371,-1.3582,-1.412,-1.1177,0.0,0.0,0.0,0.0,0.0,0.0,0.0,0.0,0.0,0.0,0.0,0.0,0.0,0.0,0.0,0.0,0.0,0.0,0.0,0.0,0.0,0.0,3.3781,3.7129,3.9025,4.2155,4.6949,4.857,4.9355,4.9221,4.9035,4.9032,4.8991,4.8885,4.9711,5.1322,5.1124,5.2735,5.5576,5.5356,5.4967,5.444,5.5644,5.619,5.6187,5.6072,5.6001,5.619,5.7606,5.9183,6.0634,6.1297,6.2869,6.4551,6.4853,6.5011,6.5178,6.5178,6.5122,6.5137,6.4968,6.6324,6.8109,6.9741,7.2675,7.5145,7.4769,7.3327,7.2022,7.2224,7.0613,6.8567,6.7029,6.537,6.4263,6.4373,6.4254,6.4202,6.4202,6.4254,6.4933,6.647,6.661,6.7107,6.838,6.7393,6.7114,6.8187,6.5678,6.4759,6.6291,6.4898,6.2729,5.997,5.9925,5.8506,5.5349,5.4021,5.4725,5.7524,5.8976,5.948,5.9086,5.8741,5.8866,-1.513,-1.3947,-1.2304,-1.299,-1.3219,-1.2919,-1.1378,-1.0929,0.0,0.0,0.0,0.0,0.0,0.0,0.0,0.0,0.0,0.0,0.0,0.0,0.0,0.0,0.0,0.0,0.0,0.0,0.0,0.0,0.0,0.0,3.5287,3.8062,4.0778,4.3448,4.6074,4.7912,4.8774,4.8559,4.8485,4.846,4.8383,4.9242,5.079,5.0752,5.1781,5.3575,5.4496,5.4398,5.3707,5.3999,5.4606,5.542,5.5369,5.5828,5.6825,5.8523,6.0025,6.1463,6.2719,6.3575,6.3887,6.3949,6.401,6.401,6.4254,6.4433,6.4422,6.4314,6.5672,6.7445,6.8818,7.0887,7.2821,7.3975,7.3635,7.2796,7.1536,7.0514,6.9425,6.7985,6.6458,6.5066,6.3912,6.3768,6.3831,6.3578,6.3573,6.4316,6.5968,6.6047,6.667,6.8323,6.7913,6.7574,6.7991,6.7095,6.6336,6.6054,6.5502,6.3907,6.1161,6.1138,6.0333,5.8416,5.8015,5.8663,6.0473,6.0802,6.127,6.1809,6.162,6.1227,-1.5059,-1.3715,-1.2266,-1.2632,-1.2103,-1.1274,-1.0493,-0.9748,-0.8797,0.0,0.0,0.0,0.0,0.0,0.0,0.0,0.0,0.0,0.0,0.0,0.0,0.0,0.0,0.0,0.0,0.0,0.0,0.0,0.0,0.0,3.3913,3.6223,3.8746,4.1528,4.4068,4.611,4.762,4.7894,4.797,4.7941,4.7954,4.8465,4.9475,4.9529,5.0275,5.1524,5.209,5.2303,5.2263,5.2582,5.3516,5.4623,5.457,5.5359,5.6694,5.7947,5.9559,6.1309,6.2461,6.3026,6.3316,6.3186,6.3186,6.3251,6.3445,6.3699,6.3755,6.3573,6.4864,6.6645,6.8049,6.9985,7.1858,7.3045,7.3254,7.2837,7.1309,6.9852,6.8677,6.7922,6.6203,6.4485,6.3328,6.3254,6.332,6.3123,6.3666,6.4691,6.6472,6.7027,6.7991,6.9578,6.9094,6.8884,6.9223,6.8189,6.7438,6.7234,6.6685,6.5376,6.3215,6.2838,6.1974,6.0556,6.0165,6.0822,6.2551,6.243,6.2675,6.3123,6.2856,6.2579,-1.4655,-1.3613,-1.2611,-1.1291,-1.0286,-0.9433,-0.8583,0.0,0.0,0.0,0.0,0.0,0.0,0.0,0.0,0.0,0.0,0.0,0.0,0.0,0.0,0.0,0.0,0.0,0.0,0.0,0.0,0.0,0.0,2.9296,3.3059,3.3541,3.6013,4.0955,4.255,4.4108,4.5673,4.6856,4.744,4.7411,4.7346,4.7415,4.7512,4.7415,4.8174,4.9575,4.8606,4.8929,5.0113,5.1406,5.2758,5.3961,5.3847,5.4626,5.5933,5.6115,5.7959,6.0345,6.0612,6.1563,6.2721,6.2585,6.2653,6.2788,6.2856,6.299,6.3057,6.2856,6.3947,6.5587,6.7299,6.9905,7.203,7.1864,7.2091,7.2173,7.1598,6.8801,6.6685,6.6957,6.4628,6.2653,6.2585,6.2585,6.2653,6.2924,6.4288,6.593,6.7716,6.9228,7.0668,7.2098,7.1007,7.0732,7.1864,6.927,6.811,6.9832,6.8603,6.7234,6.6058,6.4927,6.3585,6.2113,6.0905,6.1428,6.3907,6.3963,6.3647,6.3061,6.2652,6.2902,-1.2974,-1.2045,-1.1237,-0.9977,-0.8896,-0.7851,-0.6857,-0.5894,-0.4805,0.0,0.0,0.0,0.0,0.0,0.0,0.0,0.0,0.0,0.0,0.0,0.0,0.0,0.0,0.0,0.0,0.0,0.0,0.0,0.0,2.7458,3.0345,3.2043,3.4155,3.6839,3.9699,4.187,4.3257,4.4618,4.5701,4.6573,4.6495,4.6495,4.6612,4.6651,4.7182,4.7953,4.6454,4.7768,5.0871,4.9972,5.1023,5.3141,5.3019,5.4632,5.6917,5.672,5.8663,6.1422,6.1281,6.1621,6.2031,6.2028,6.2028,6.2031,6.1818,6.2028,6.23,6.3094,6.3917,6.5079,6.7563,6.8507,6.9036,7.0517,7.0448,7.053,7.2253,7.127,6.9297,6.6829,6.486,6.3306,6.223,6.2028,6.2028,6.2098,6.3521,6.5224,6.6934,6.8577,7.0628,7.314,7.2051,7.1701,7.2958,7.1399,7.0052,6.9599,6.927,6.86,6.7578,6.7431,6.6657,6.5198,6.5765,6.5973,6.5626,6.5101,6.463,6.4141,6.3715,6.4003,-1.4365,-1.2748,-1.0828,-0.8975,-0.7651,-0.6338,-0.4872,-0.3646,-0.2414,-0.1189,0.0,0.0,0.0,0.0,0.0,0.0,0.0,0.0,0.0,0.0,0.0,0.0,0.0,0.0,0.0,0.0,0.0,0.0,0.0,2.5836,2.9456,3.1097,3.3147,3.5817,3.9172,4.128,4.1965,4.3981,4.5259,4.5836,4.6357,4.6287,4.568,4.6533,4.6893,4.6871,4.5276,4.6983,5.0618,4.9037,4.9868,5.2207,5.2143,5.3464,5.5645,5.6101,5.7887,6.0155,6.0743,6.109,6.1305,6.1305,6.1231,6.1157,6.109,6.1157,6.1289,6.1934,6.3213,6.484,6.6345,6.7392,6.837,6.9665,6.9265,6.9003,7.0774,7.0999,7.0015,6.6743,6.423,6.2236,6.1438,6.1312,6.1652,6.2392,6.3952,6.5653,6.7284,6.9067,7.07,7.2391,7.2391,7.2446,7.3242,7.2485,7.2027,7.2212,7.1769,7.1598,7.1836,7.0889,6.9924,6.9161,6.9164,6.8267,6.6751,6.6272,6.5779,6.5264,6.4965,6.5228,-1.6964,-1.4486,-1.1275,-0.8638,-0.6739,-0.5043,-0.305,-0.1554,-0.0371,0.0,0.0,0.0,0.0,0.0,0.0,0.0,0.0,0.0,0.0,0.0,0.0,0.0,0.0,0.0,0.0,0.0,0.0,0.0,0.0,0.0,2.8745,3.032,3.2554,3.5688,3.9211,4.1174,4.127,4.377,4.5029,4.5074,4.6408,4.629,4.5043,4.6631,4.69,4.6189,4.4948,4.6544,4.9973,4.853,4.9199,5.1218,5.115,5.1988,5.3341,5.4837,5.6411,5.8057,5.9566,6.0244,6.0476,6.0476,6.0256,6.0101,6.0321,6.0244,6.0088,6.0283,6.24,6.4722,6.4622,6.6691,6.8714,6.898,6.8264,6.7714,6.8238,6.9329,6.9225,6.6557,6.3231,6.0881,6.0618,6.0563,6.1253,6.2926,6.4618,6.6317,6.8091,6.9806,7.0961,7.1365,7.2388,7.3195,7.3515,7.3211,7.3766,7.5622,7.4518,7.457,7.6336,7.3978,7.296,7.3512,7.1566,6.9695,6.7833,6.7556,6.7053,6.6363,6.6207,6.6662,-1.6822,-1.5434,-1.3246,-0.9885,-0.7106,-0.4558,-0.2309,-0.0545,0.0759,0.1792,0.272,0.0,0.0,0.0,0.0,0.0,0.0,0.0,0.0,0.0,0.0,0.0,0.0,0.0,0.0,0.0,0.0,0.0,0.0,0.0,2.4946,2.8891,3.1313,3.1698,3.6209,3.9352,4.0629,4.2018,4.3232,4.4216,4.5256,4.5679,4.5535,4.619,4.642,4.6231,4.511,4.693,5.0496,4.9006,4.9258,5.0597,5.0316,5.1145,5.2759,5.3785,5.5417,5.736,5.8532,5.9225,5.9467,5.9242,5.9161,5.908,5.9062,5.9062,5.9337,6.0473,6.2268,6.3987,6.4908,6.6699,6.8329,6.8082,6.7056,6.6223,6.6961,6.7437,6.7014,6.4935,6.3328,6.175,6.0125,5.9865,6.0465,6.1993,6.3674,6.543,6.736,6.9151,7.1031,7.3428,7.3069,7.3536,7.5758,7.4915,7.4579,7.5175,7.4187,7.3772,7.4354,7.2973,7.3726,7.6839,7.4015,7.1918,7.0507,6.8979,6.7982,6.7731,6.757,6.8448,-1.9572,-1.7967,-1.5744,-1.3441,-0.9666,-0.581,-0.3418,-0.1467,-0.0247,-0.0505,0.1061,0.3095,0.0,0.0,0.0,0.0,0.0,0.0,0.0,0.0,0.0,0.0,0.0,0.0,0.0,0.0,0.0,0.0,0.0,0.0,0.0,2.8079,3.0337,3.1766,3.5247,3.7857,3.953,4.0611,4.1704,4.2817,4.3836,4.4814,4.5588,4.589,4.6244,4.6656,4.4817,4.6336,4.984,4.754,4.7709,4.951,4.9299,4.9736,5.0625,5.2452,5.3798,5.5144,5.7284,5.8147,5.8337,5.842,5.8253,5.8084,5.8147,5.8062,5.8229,5.9614,6.1266,6.2992,6.4141,6.588,6.7246,6.7246,6.6189,6.5396,6.5992,6.5741,6.4898,6.3119,6.1278,5.9668,5.8611,5.8504,5.9351,6.1712,6.2974,6.4545,6.7299,6.8631,7.0164,7.2498,7.2894,7.391,7.6373,7.5657,7.5443,7.6051,7.482,7.4626,7.5774,7.427,7.4222,7.5939,7.4599,7.3614,7.296,7.2122,7.1449,7.104,7.0933,7.1126,-2.2427,-2.0609,-1.8376,-1.7246,-1.3163,-0.866,-0.616,-0.4072,-0.3016,-0.3884,-0.1024,0.2249,0.0,0.0,0.0,0.0,0.0,0.0,0.0,0.0,0.0,0.0,0.0,0.0,0.0,0.0,0.0,0.0,0.0,0.0,0.0,0.0,0.0,3.1921,3.4466,3.6675,3.848,3.9419,4.0438,0.0,4.2738,4.385,4.497,4.507,4.5663,4.6391,4.4535,4.573,4.8801,4.633,4.6551,4.8375,4.8298,4.8298,4.8542,5.0926,5.2132,5.2975,5.5635,5.6862,5.7223,5.7398,5.7223,5.6933,5.7048,5.6871,5.6912,5.8449,6.0086,6.1702,6.2974,6.4635,6.5831,6.5831,6.5093,6.4357,6.4296,6.3663,6.242,6.0358,5.8389,5.7125,5.7084,5.7358,5.8343,6.0574,6.1851,6.3761,6.7114,6.7979,6.9106,7.1156,7.2462,7.409,7.6368,7.631,7.6434,7.7156,7.5848,7.5783,7.7189,7.5648,7.4821,7.4903,7.4821,7.4688,7.4779,7.4447,7.4067,7.3702,7.3518,7.3341,-2.368,-2.2267,-2.0868,-1.9916,-1.7094,-1.3712,-1.0924,-0.9363,-0.8161,-0.6627,-0.2413,0.1627,0.362,0.0,0.0,0.0,0.0,0.0,0.0,0.0,0.0,0.0,0.0,0.0,0.0,0.0,0.0,0.0,0.0,0.0,0.0,0.0,0.0,2.9127,3.2742,3.5808,3.8017,3.8412,3.9374,0.0,4.2388,4.3227,4.3347,4.3372,4.363,4.4076,4.4687,4.5989,4.7749,4.697,4.711,4.7669,4.721,4.7129,4.747,4.8991,5.0421,5.1859,5.3722,5.5089,5.5973,5.6034,5.5851,5.5606,5.5606,5.5606,5.5815,5.7143,5.8762,6.0353,6.1692,6.3337,6.4419,6.3584,6.3267,6.2634,6.0763,6.0242,5.923,5.5703,5.5381,5.5911,5.6186,5.7068,5.7494,5.6796,5.9498,6.267,6.6005,6.6866,6.8363,7.1409,7.2187,7.3645,7.6534,7.7332,7.7824,7.7824,7.7103,7.649,7.616,7.5622,7.5956,7.72,7.5762,7.5076,7.5204,7.3894,7.3239,7.3145,7.3145,7.3674,-2.6344,-2.4444,-2.2525,-2.2351,-2.0015,-1.7217,-1.5424,-1.4668,-1.2888,-0.7755,-0.3292,0.0773,0.4374,0.8041,0.0,0.0,0.0,0.0,0.0,0.0,0.0,0.0,0.0,0.0,0.0,0.0,0.0,0.0,0.0,0.0,0.0,0.0,0.0,0.0,3.0596,3.2785,3.507,3.5781,3.6738,3.7978,4.0645,4.1321,4.0419,4.2126,4.3249,4.3817,4.469,4.503,4.4868,4.4695,4.5261,4.6203,4.6003,4.6086,4.6462,4.8687,4.9804,5.0569,5.2907,5.4006,5.4599,5.5465,5.5762,5.5783,5.6513,5.6708,5.6844,5.8345,5.9218,6.0138,6.1869,6.28,6.3053,6.2188,6.1968,6.1682,6.0867,5.9411,5.7946,5.6496,5.5371,5.4635,5.4635,5.5703,5.6414,5.6215,5.8738,6.1672,6.4621,6.5596,6.732,7.0536,7.1259,7.2914,7.6152,7.6924,7.7002,7.6448,7.6273,7.6244,7.6415,7.7192,7.735,7.7162,7.644,7.6635,7.7619,7.6284,7.6023,7.6771,7.5825,7.5561,-2.9756,-2.7489,-2.5329,-2.5446,-2.3255,-2.0713,-1.948,-1.9092,-1.7125,-1.067,-0.5142,-0.0097,0.4294,0.7116,0.0,0.0,0.0,0.0,0.0,0.0,0.0,0.0,0.0,0.0,0.0,0.0,0.0,0.0,0.0,0.0,0.0,0.0,0.0,0.0,2.9502,3.1214,3.3221,3.4008,3.4948,3.6194,3.8899,3.9519,3.8488,4.0995,4.2363,4.3041,4.4026,4.3946,4.3083,4.33,4.3871,4.487,4.4899,4.4899,4.5127,4.722,4.7988,4.8525,5.083,5.1903,5.2576,5.4043,5.4447,5.4678,5.6168,5.6363,5.6602,5.854,5.9112,5.9621,6.1454,6.1637,6.1191,6.0628,6.0628,6.0512,5.9996,5.8271,5.6496,5.6151,5.4762,5.3539,5.3036,5.4302,5.5441,5.5268,5.7654,6.0212,6.238,6.3821,6.6018,6.9875,7.0735,7.2268,7.525,7.6202,7.6229,7.576,7.6481,7.7198,7.7974,7.875,7.875,7.791,7.791,7.8532,7.9715,7.8676,7.8572,7.9503,7.8257,7.77,-3.3778,-3.1633,-2.9737,-2.9394,-2.7025,-2.4485,-2.2979,-2.2376,-2.0832,-1.6221,-0.8109,-0.0862,0.2679,0.5857,0.0,0.0,0.0,0.0,0.0,0.0,0.0,0.0,0.0,0.0,0.0,0.0,0.0,0.0,0.0,0.0,0.0,0.0,0.0,0.0,3.0019,3.2036,3.3236,3.3653,3.4575,3.6206,3.7556,3.8188,3.8368,3.9777,4.077,4.1291,4.2363,4.2731,4.2822,4.3492,4.376,4.376,4.3637,4.3457,4.3402,4.3671,4.4446,4.5572,4.6981,4.8356,4.958,5.1065,5.1353,5.1472,5.3283,5.362,5.3911,5.6767,5.7782,5.8234,5.9885,5.9362,5.8539,5.8831,5.9185,5.908,5.744,5.6038,5.4697,5.3256,5.287,5.2482,5.1312,5.3145,5.4477,5.3412,5.603,5.8395,5.9221,6.1211,6.4392,6.9623,7.1014,7.2199,7.3966,7.5184,7.5992,7.6306,7.8183,7.978,8.0924,8.0214,7.9912,8.0427,8.0427,8.0492,8.0492,8.0492,8.0271,8.0114,8.0114,8.0114,-3.3565,-3.1725,-2.9855,-2.9748,-2.8436,-2.697,-2.6295,-2.4309,-2.1493,-1.7176,-1.1972,-0.6218,0.0091,0.3244,0.0,0.0,0.0,0.0,0.0,0.0,0.0,0.0,0.0,0.0,0.0,0.0,0.0,0.0,0.0,0.0,0.0,0.0,0.0,0.0,2.8701,3.0194,3.0979,3.2061,3.3214,3.4288,3.4695,3.5357,3.6223,3.7823,3.9107,3.994,4.0807,4.1281,4.147,4.2084,4.2177,4.2084,4.2363,4.2363,4.2338,4.4231,4.4895,4.5185,4.7154,4.8325,4.9074,5.0311,5.1613,5.2982,5.4466,5.5514,5.6339,5.7227,5.7566,5.7621,5.7351,5.7218,5.7368,5.8251,5.7939,5.7503,5.7762,5.6239,5.4383,5.3134,5.2208,5.1558,5.1125,5.2052,5.287,5.3454,5.5638,5.7667,5.9143,6.0285,6.1769,6.3896,6.6918,7.0103,7.3569,7.4751,7.5952,7.7658,7.9977,8.1136,8.062,8.1106,8.1556,8.1973,8.1071,8.2149,8.5216,8.3276,8.26,8.3276,8.2149,8.0961,-3.6168,-3.4259,-3.2057,-3.1748,-3.1133,-3.0242,-2.8787,-2.6489,-2.3493,-1.9387,-1.5586,-1.1072,-0.4721,-0.0911,0.2588,0.6611,0.7689,0.0,0.0,0.0,0.0,0.0,0.0,0.0,0.0,0.0,0.0,0.0,0.0,0.0,0.0,0.0,0.0,2.6661,2.8323,2.9443,2.9736,3.1135,3.2383,3.3471,3.3328,3.3937,3.5399,3.6557,3.7846,3.9148,3.9952,4.0602,4.1307,4.1757,4.1599,4.1239,4.1532,4.1383,4.1393,4.3186,4.3759,4.3906,4.5583,4.6468,4.7117,4.8315,4.9916,5.1702,5.3274,5.4686,5.5878,5.643,5.6783,5.6714,5.5508,5.5426,5.5806,5.6708,5.646,5.6076,5.664,5.5315,5.362,5.2454,5.1448,5.0539,4.974,5.0116,5.1015,5.2535,5.4024,5.5837,5.8071,5.8837,5.9938,6.1953,6.4274,6.7668,7.2716,7.448,7.6061,7.7872,8.0322,8.1985,8.2712,8.2867,8.3624,8.5179,8.4569,8.5589,8.8414,8.6661,8.5977,8.6351,8.5099,8.3658,-4.0486,-3.8388,-3.5625,-3.4771,-3.4601,-3.3843,-3.0729,-2.8694,-2.6395,-2.2527,-1.892,-1.5276,-1.1291,-0.6373,-0.1556,0.2432,0.4426,0.0,0.0,0.0,0.0,0.0,0.0,0.0,0.0,0.0,0.0,0.0,0.0,0.0,0.0,0.0,0.0,2.6464,2.8529,2.9621,2.9358,3.0724,3.2078,3.3392,3.2969,3.37,3.532,3.5681,3.6861,3.8748,3.9539,4.0697,4.1839,4.2055,4.1783,4.1151,4.0841,4.0684,4.0475,4.1044,4.1529,4.2023,4.2824,4.3503,4.4149,4.5253,4.6744,4.8301,5.0324,5.1748,5.311,5.4472,5.5238,5.5321,5.4054,5.3918,5.4117,5.479,5.4889,5.4888,5.4505,5.3575,5.251,5.1199,5.0475,4.9481,4.7594,4.7977,4.9097,5.0855,5.1678,5.3315,5.6298,5.7133,5.8976,6.2824,6.2962,6.5147,7.1254,7.4072,7.6042,7.7581,7.9693,8.2477,8.6326,8.5118,8.6115,8.9668,8.996,9.0262,9.0588,9.0457,9.0101,8.9564,8.9069,8.7809,-3.9374,-3.8097,-3.6253,-3.471,-3.4521,-3.4169,-3.1916,-2.9638,-2.7242,-2.4362,-2.1626,-1.8752,-1.5713,-1.3185,-0.9136,-0.1841,0.1452,0.3986,0.0,0.0,0.0,0.0,0.0,0.0,0.0,0.0,0.0,0.0,0.0,0.0,0.0,0.0,2.4372,2.497,2.6637,2.8205,2.9628,3.0031,3.0599,3.1054,3.2075,3.2748,3.3108,3.4554,3.5693,3.6577,3.8339,3.9513,3.9969,4.0525,4.0603,4.0474,4.0692,4.0644,4.0679,4.1159,4.1293,4.1325,4.207,4.2515,4.3038,4.3511,4.5326,4.7582,4.8574,5.0336,5.2188,5.288,5.2406,5.1612,5.1235,5.1991,5.2888,5.3368,5.3629,5.3836,5.4288,5.3383,5.1896,4.9815,4.9156,4.8874,4.8127,4.7873,4.8413,5.0591,5.2017,5.3034,5.4118,5.5961,5.7624,5.8946,6.1723,6.4247,6.6324,7.0184,7.4084,7.8173,8.1119,8.3876,8.639,8.6372,8.7888,9.1455,9.1006,9.2471,9.6062,9.4638,9.4398,9.5078,9.3104,9.1063,-4.057,-3.9513,-3.8236,-3.7343,-3.6887,-3.6033,-3.4015,-3.1573,-2.9174,-2.7017,-2.4974,-2.2626,-1.9021,-1.7197,-1.4142,-0.7966,0.0,0.021,0.3121,0.0,0.0,0.0,0.0,0.0,0.0,0.0,0.0,0.0,0.0,0.0,0.0,0.0,2.3064,2.4335,2.5636,2.7114,2.8672,2.8429,2.8979,3.0442,3.1094,3.1557,3.1824,3.3392,3.473,3.5811,0.0,3.8979,3.9854,4.0089,4.0167,4.01,3.9986,3.9891,3.9885,4.0445,4.0507,4.0361,4.0704,4.1184,4.152,4.2049,4.3858,4.5929,4.6915,4.8848,5.0675,5.0944,5.0134,4.9228,5.0207,5.0957,5.1664,5.3137,5.2846,5.2542,5.3329,5.236,5.1004,4.9247,4.8771,4.8327,4.7785,4.7332,4.7853,5.0288,5.1367,5.2456,5.3494,5.5067,5.6574,5.7787,6.0851,6.3617,6.536,6.8929,7.3011,7.7562,7.966,8.2585,8.7043,8.7952,8.9907,9.3251,9.3428,9.5018,9.8116,9.7028,9.7116,9.8185,9.6522,9.4657,-4.2716,-4.1893,-4.0992,-4.0923,-3.9961,-3.8485,-3.6425,-3.4064,-3.1724,-2.9823,-2.8363,-2.6174,-2.2243,-2.0059,-1.7826,-1.4533,-0.9471,-0.4595,0.0,0.0,0.5968,0.0,0.0,0.0,0.0,0.0,0.0,0.0,0.0,0.0,0.0,2.0353,2.1756,2.3586,2.4719,2.5748,2.6702,2.67,2.7744,3.0021,3.012,3.0554,3.0922,3.2393,3.3837,0.0,0.0,3.8508,4.0112,3.9861,3.9879,3.9736,3.9255,3.9009,3.8972,3.935,3.9375,3.9266,3.9481,3.9785,4.0169,4.0944,4.2376,4.3963,4.5031,4.6976,4.8489,4.8351,4.7885,4.7862,4.9568,5.0202,5.0787,5.2799,5.2211,5.157,5.2229,5.123,5.0046,4.9219,4.8474,4.7898,4.7197,4.6878,4.7552,4.9772,5.0631,5.1617,5.3402,5.4374,5.5605,5.7753,6.0119,6.291,6.5872,6.8801,7.2287,7.6603,7.7397,8.0481,8.6932,8.8855,9.125,9.4604,9.5893,9.7343,9.8806,9.8832,9.9461,10.0731,9.9576,9.8215,-4.4381,-4.4424,-4.409,-4.2358,-4.1251,-4.0105,-3.8005,-3.6195,-3.4343,-3.2199,-3.0225,-2.8373,-2.6927,-2.3892,-2.1001,-1.9364,-1.5628,-1.0885,-0.5043,-0.1794,0.1082,0.3828,0.0,0.0,0.0,0.0,0.0,0.0,0.0,0.0,0.0,1.8416,1.9669,2.0816,2.1931,2.2953,2.3639,2.6185,2.757,2.7728,2.99,3.0561,2.9962,3.1503,3.2851,0.0,0.0,0.0,3.8047,3.8598,3.8937,3.8894,3.8768,3.8809,3.9056,3.8851,3.8642,3.8388,3.9046,3.9475,3.9723,4.016,4.1092,4.2257,4.3182,4.4611,4.5718,4.4668,4.5555,4.6873,4.7176,4.9252,5.1292,5.0902,5.1624,5.2211,5.2264,5.0949,4.9786,4.8812,4.7982,4.7386,4.7282,4.738,4.7881,4.8848,5.0266,5.1385,5.1622,5.3147,5.4709,5.5932,5.8867,6.176,6.393,6.7168,7.118,7.6114,7.8139,8.0361,8.3531,8.6487,9.0344,9.5032,9.7003,9.8924,10.1051,10.1963,10.3841,10.638,10.2969,10.1733,-4.5192,-4.5406,-4.5641,-4.4314,-4.2832,-4.1291,-3.9833,-3.7387,-3.5103,-3.3804,-3.1679,-2.9511,-2.7522,-2.5572,-2.329,-2.0181,-1.7193,-1.3804,-0.9861,-0.5563,-0.1796,0.0852,0.4057,0.0,0.0,0.0,0.0,0.0,0.0,0.0,0.0,1.5969,1.7405,1.8745,2.0197,2.1438,2.2422,2.4237,2.5727,2.7017,2.8175,2.87,2.8701,3.0357,3.1388,0.0,0.0,0.0,3.6109,3.624,3.663,3.7188,3.7059,3.7317,3.7703,3.7317,3.734,3.7599,3.7824,3.8131,3.8498,3.9147,3.9864,4.0835,4.1751,4.2625,4.3354,4.3395,4.4651,4.6199,4.7163,4.89,5.0372,5.0884,5.115,5.1281,5.155,5.0089,4.8625,4.8176,4.7406,4.6824,4.7111,4.7431,4.8029,4.9112,5.03,5.1199,5.1628,5.2808,5.3888,5.4911,5.8246,6.1322,6.3523,6.6103,6.9789,7.5185,7.6847,7.9126,8.2412,8.5105,8.8497,9.2616,9.6592,9.9561,10.1504,10.2618,10.4766,10.7702,10.5598,10.5213,-4.6201,0.0,-4.661,-4.5897,-4.4062,-4.2186,0.0,-3.8498,-3.5954,-3.5159,-3.3122,-3.0659,-2.8119,-2.6917,-2.5103,-2.1489,-1.8852,-1.6635,-1.484,-0.9839,-0.5087,-0.1667,0.075,0.0,0.0,0.0,0.0,0.0,0.0,0.0,0.0,1.3874,1.5395,1.719,1.8107,1.9293,2.0649,2.1703,2.3404,2.5774,2.6085,2.669,2.7401,2.8611,0.0,0.0,0.0,0.0,3.4133,3.4222,3.4682,3.5192,3.5327,3.5554,3.6018,3.5586,3.5861,3.6667,3.6585,3.6634,3.7027,3.8138,3.8881,3.9585,4.0426,4.1006,4.181,4.2628,4.4038,4.5785,4.7275,4.8447,4.9424,5.091,5.0725,5.0363,5.1104,4.9629,4.7908,4.769,4.7154,4.6739,4.6758,4.7182,4.7885,4.9226,5.0046,5.0723,5.1394,5.2192,5.3111,5.4146,5.7465,6.0738,6.3277,6.5625,6.9188,7.4135,7.5923,7.8324,8.1788,8.4162,8.7094,9.0417,9.5267,9.8693,10.0732,10.2818,10.5299,10.8363,10.7912,10.8383,0.0,-4.7737,-4.7322,-4.6577,-4.4818,-4.2928,-4.1479,-3.9859,0.0,-3.6605,-3.4455,-3.24,-3.0876,-2.8633,-2.6666,-2.5873,-2.3181,-2.0847,-1.9842,-1.5735,0.0,0.0,-0.1841,0.0,0.0,0.0,0.0,0.0,0.0,0.0,0.0,1.2731,1.4365,1.6115,1.5081,1.5209,1.6942,1.9248,2.1112,2.2621,2.4031,2.5264,2.6394,2.6422,0.0,0.0,0.0,0.0,0.0,3.3166,3.3575,3.3136,3.4166,3.4567,3.4437,3.3904,3.4284,3.5192,3.5719,3.5758,3.5947,3.718,3.7926,3.8268,3.8763,3.9868,4.1119,4.1765,4.334,4.5137,4.6192,4.7937,4.9742,5.0315,5.0478,5.0393,5.0835,4.9859,4.8405,4.7667,4.7266,4.6949,4.6178,4.6617,4.7279,4.8027,4.8766,4.9637,5.0365,5.1394,5.2324,5.3371,5.6212,5.9303,6.2601,6.6303,6.9773,7.2814,7.6096,7.8628,8.0349,8.3653,8.6845,8.9949,9.2638,9.54,9.8606,10.3042,10.6961,11.0219,10.9376,11.0307,-4.8318,-4.7077,-4.5305,-4.4569,-4.361,-4.2536,-4.145,-4.0359,-3.9254,-3.7962,-3.6021,-3.4049,-3.2302,-2.9936,-2.7578,-2.5689,-2.3298,-2.1093,-1.921,-1.6335,0.0,-0.866,0.0,0.0,0.0,0.0,0.0,0.0,0.0,0.0,0.0,1.1147,1.2325,1.3838,1.4211,1.5018,1.6526,1.807,1.9647,2.1139,2.2213,2.3031,2.3749,2.4179,0.0,0.0,0.0,0.0,0.0,3.1164,3.1964,3.2735,3.3185,3.3546,3.4011,3.3162,3.3754,3.4886,3.461,3.4592,3.4994,3.5385,3.5981,3.6513,3.727,3.7874,3.8678,4.1159,4.2852,4.4441,4.6499,4.7508,4.8424,5.0242,5.0584,5.0334,5.0501,4.9746,4.8496,4.7034,4.6446,4.5792,4.45,4.4946,4.5467,4.5392,4.6612,4.7607,4.7488,4.9856,5.1763,5.2152,5.5613,5.8867,6.1285,6.3933,6.7265,7.1129,7.4239,7.7145,7.9555,8.259,8.6133,9.03,9.1354,9.4621,10.0109,10.1896,10.5414,11.0675,11.2293,11.4233,-4.7003,-4.5274,-4.3398,-4.2639,-4.1665,-4.0775,-4.0393,-4.002,-3.9512,-3.8877,-3.7355,-3.5716,-3.38,-3.0994,-2.8416,-2.6484,-2.3944,-2.1634,-2.0026,-1.7405,0.0,-1.1803,0.0,0.0,0.0,0.0,0.0,0.0,0.0,0.0,0.0,1.0414,1.1418,1.2392,1.3406,1.4364,1.5294,1.6307,1.751,1.8921,1.9673,2.0424,2.1006,2.1877,0.0,0.0,0.0,0.0,0.0,2.9364,3.0407,3.1384,3.2131,3.2757,3.3,3.2559,3.317,3.4222,3.3463,3.3491,3.3633,3.4047,3.4271,3.4882,3.6219,3.6481,3.7022,3.9884,4.1986,4.3807,4.6535,4.6992,4.7597,5.0149,5.0549,5.0483,5.0442,4.9913,4.8717,4.6787,4.6141,4.5262,4.3083,4.3589,4.3981,4.3338,4.4899,4.6111,4.5455,4.8848,5.122,5.1166,5.4911,5.8074,5.9973,6.1989,6.4706,6.8754,7.2169,7.518,7.8262,8.1274,8.5173,9.0184,9.0829,9.4158,10.0242,10.0948,10.4198,11.0062,11.2807,11.5947,-4.3709,-4.2152,-4.2062,-4.1116,-3.9089,-3.7374,-3.8096,-3.8683,-3.9131,-3.928,-3.8429,-3.7273,-3.5555,-3.1927,-2.9101,-2.899,-2.5724,-2.3079,-2.2935,-1.973,-1.628,0.0,0.0,0.0,0.0,0.0,0.0,0.0,0.0,0.0,0.0,1.0994,1.2012,1.2274,1.2395,1.2517,1.2736,1.3687,1.4697,1.5714,1.6456,1.7491,1.8648,1.9402,2.0469,0.0,0.0,0.0,0.0,2.816,2.9035,2.8452,3.1008,3.1892,3.1556,3.1588,3.2154,3.2579,3.2149,3.1965,3.2003,3.2997,3.3211,3.3364,3.5716,3.6211,3.6208,3.8204,4.0324,4.2804,4.5529,4.6591,4.752,4.9825,5.0418,5.0377,5.0863,5.0648,4.9498,4.6919,4.678,4.5823,4.2207,4.2565,4.297,4.2078,4.4086,4.5438,4.4714,4.8317,5.0774,5.0349,5.3753,5.6664,5.8779,6.0554,6.2839,6.5834,6.9714,7.3232,7.6237,7.9766,8.4084,8.9473,9.0763,9.3629,9.8288,10.0464,10.3716,10.8141,11.0616,11.4844,-3.5607,-3.5018,-3.4783,-3.3374,-3.3054,-3.3365,0.0,0.0,-3.9216,-3.9509,-4.02,-4.006,-3.7542,-3.4416,-3.1936,-3.0747,-2.7549,-2.478,-2.3492,-2.0388,-1.6909,0.0,0.0,0.0,0.0,0.0,0.0,0.0,0.0,0.0,0.0,1.2288,1.2864,1.1842,1.2138,1.1965,1.1141,1.2348,1.2924,1.318,1.4822,1.5863,1.6308,1.7638,1.8689,1.9612,0.0,0.0,0.0,2.6542,2.8228,2.9598,3.0638,3.13,3.1747,3.1464,3.1743,3.2054,3.1262,3.1067,3.1159,3.1166,3.1658,3.2516,3.362,3.4766,3.581,3.746,3.9268,4.1008,4.2528,4.4565,4.688,5.0004,5.0435,5.0365,5.0904,5.0578,4.9635,4.7367,4.6088,4.4606,4.1587,4.0872,4.0393,3.9735,4.1288,4.229,4.2258,4.551,4.8234,4.9116,5.157,5.419,5.6866,5.8759,6.1065,6.4396,6.7958,7.1363,7.4529,7.8791,8.2956,8.6775,8.937,9.287,9.7176,9.9879,10.3903,10.8884,11.1104,11.5634,-3.0683,-2.938,-2.8597,-2.7107,-2.7919,-2.9713,-3.182,0.0,-3.7371,-3.867,-4.0197,-4.0677,-3.8897,-3.6169,-3.3624,-3.2045,-2.8921,-2.5892,-2.3615,-2.075,-1.7412,-1.3236,0.0,0.0,0.0,0.0,0.0,0.0,0.0,0.0,1.1869,1.323,1.3332,1.1931,1.1827,1.1324,1.0419,1.0741,1.096,1.1079,1.258,1.3552,1.4275,1.5633,1.6857,1.8059,1.9715,0.0,0.0,2.508,2.6718,2.8139,2.9516,3.0275,3.0598,3.0949,3.1096,3.1109,3.0361,3.0384,3.0612,3.0075,3.0372,3.1059,3.1744,3.2832,3.4275,3.6203,3.7864,3.9387,4.0609,4.3111,4.605,4.9246,5.0144,5.0354,5.1313,5.1043,5.004,4.7854,4.6417,4.4498,4.0978,4.0132,3.9444,3.8295,3.9654,4.0815,4.0742,4.395,4.6734,4.7999,4.9591,5.1572,5.4609,5.683,5.923,6.1926,6.5184,6.8674,7.259,7.694,8.113,8.5249,8.8798,9.2556,9.6625,9.9796,10.4261,10.9609,11.182,11.6439,-2.8028,-2.5523,-2.3709,-2.2507,-2.3798,-2.6162,-2.8626,0.0,-3.4133,-3.7257,-3.89,-3.9765,-3.9518,-3.7236,-3.4793,-3.2896,-3.0037,-2.6882,-2.3588,-2.0784,-1.7427,0.0,0.0,0.0,0.0,0.0,0.0,0.0,0.0,0.0,1.3518,1.3791,1.3344,1.2281,1.1439,1.069,1.0035,0.9078,0.893,0.942,0.9905,1.0953,1.241,1.3821,1.5247,1.6746,1.8879,0.0,0.0,2.3746,2.5081,2.5339,2.795,2.8654,2.8654,3.0142,3.0379,2.9805,2.9446,2.9692,3.0157,2.9809,2.9507,2.9505,3.0297,3.1063,3.1936,3.4401,3.6314,3.7801,3.958,4.1928,4.4694,4.8034,4.9358,5.034,5.1878,5.1404,5.0294,4.8546,4.7156,4.4884,4.064,3.987,3.9276,3.7349,3.8755,4.0128,3.9987,4.2998,4.5592,4.6846,4.7477,4.9044,5.1944,5.4761,5.717,5.892,6.2005,6.5903,7.0545,7.4472,7.8931,8.4033,8.8405,9.2324,9.6024,9.9789,10.4372,10.9789,11.2355,11.7046,-2.5751,-2.3688,-2.22,-2.0858,-2.1176,-2.2774,-2.6474,-2.9001,0.0,-3.6767,-3.8726,-3.9584,-3.9565,-3.8834,-3.7221,0.0,-3.1576,-2.8589,-2.4865,0.0,0.0,0.0,0.0,0.0,0.0,0.0,0.0,0.0,0.0,0.0,1.3362,1.3464,1.2931,1.1668,1.0934,0.9841,0.8532,0.8193,0.7882,0.7302,0.8834,0.9873,1.0707,1.25,1.3952,1.5339,1.6893,0.0,0.0,2.1974,2.3809,2.5554,2.6171,2.7182,2.8328,2.8654,2.8731,2.8541,2.841,2.8947,2.9353,2.9353,2.9296,2.9418,2.9225,3.0332,3.201,3.3363,3.5226,3.7233,3.9361,4.1289,4.3019,4.5102,4.7105,4.9206,5.0716,5.0499,4.9466,4.8379,4.6346,4.3844,4.0617,3.8722,3.73,3.6633,3.6353,3.6922,3.8814,4.0347,4.1888,4.4236,4.5502,4.722,4.9664,5.2222,5.4732,5.7422,6.0526,6.4267,6.8754,7.2479,7.6029,7.9327,8.4546,8.8601,9.1595,9.6448,10.1701,10.7314,11.0948,11.6189,-2.4925,-2.3349,-2.1851,-1.9976,-1.995,-2.0912,-2.3229,0.0,0.0,0.0,-3.4499,-3.6169,-3.7785,-3.7388,0.0,-3.381,-3.1246,0.0,0.0,0.0,0.0,0.0,0.0,0.0,0.0,0.0,0.0,0.0,0.0,1.1241,1.183,1.198,1.1467,1.059,1.0269,0.943,0.8229,0.7462,0.6855,0.6406,0.6936,0.7795,0.8828,1.054,1.2156,1.3702,1.5656,0.0,1.9216,2.0763,2.2353,2.3877,2.3877,2.5205,2.7182,2.7182,2.7685,2.8359,2.7662,2.8313,2.9107,2.8615,2.8321,2.8298,2.8519,2.922,3.0095,3.2092,3.3728,3.5429,3.7722,3.9615,4.1407,4.3019,4.4942,4.6912,4.8635,4.9001,4.8941,4.8043,4.595,4.3215,4.0337,3.7872,3.6174,3.5469,3.4762,3.5209,3.762,3.7684,3.8664,4.163,4.3744,4.5655,4.7589,5.0157,5.2703,5.5449,5.8087,6.1548,6.6146,6.9807,7.3354,7.6954,8.1896,8.6085,8.9227,9.4822,10.0367,10.5747,10.9742,11.5119,-2.5329,-2.3854,-2.2358,-1.9778,-1.9245,-1.9564,-1.9875,-2.0509,0.0,0.0,-2.8441,-3.0761,-3.3698,-3.4021,-3.3269,-3.1771,0.0,0.0,0.0,0.0,-1.6409,0.0,0.0,0.0,0.0,0.0,0.0,0.0,0.0,0.9948,0.9796,1.0089,0.9937,0.9482,0.9592,0.9289,0.8417,0.6892,0.5982,0.5835,0.5216,0.5582,0.7108,0.8671,1.0463,1.2033,1.4498,0.0,1.807,1.9475,2.0674,2.1515,2.1515,2.3021,2.5394,2.573,2.6775,2.8003,2.7024,2.7622,2.8792,2.8049,2.7412,2.7067,2.7903,2.7988,2.8267,3.059,3.2067,3.3378,3.5647,3.7808,3.9845,4.1564,4.3084,4.4587,4.6316,4.7638,4.8374,4.7579,4.5628,4.2932,3.9572,3.7249,3.5441,3.4133,3.3304,3.3721,3.5942,3.537,3.5965,3.9039,4.1965,4.4224,4.5425,4.805,5.0613,5.2943,5.5398,5.8745,6.3146,6.6607,7.0547,7.4774,7.9462,8.3779,8.7694,9.3194,9.8684,10.4226,10.8298,11.3669,-2.7061,-2.5164,-2.3211,-2.01,-1.8685,-1.7981,-1.8172,-1.7243,-1.7218,-2.0831,0.0,-2.3234,-2.5521,-2.8991,-3.0261,-2.6531,0.0,-2.5785,-2.0342,-1.7608,-1.4798,-1.062,-0.7184,-0.3701,-0.0141,0.4056,0.6831,0.7454,0.7143,0.7219,0.768,0.9103,0.9425,0.8782,0.937,0.9217,0.8157,0.7063,0.5967,0.5351,0.4718,0.52,0.6484,0.8375,0.9922,1.0787,0.0,0.0,1.7194,1.8018,1.9004,1.985,1.985,2.0843,2.2773,2.4309,2.5487,2.6098,2.5804,2.6294,2.7448,2.7618,2.7308,2.6758,2.6878,2.7453,2.8438,2.9178,3.0578,3.2253,3.4151,3.5986,3.8125,4.0542,4.1879,4.3182,4.5434,4.681,4.7527,4.6627,4.4935,4.2627,3.8901,3.6552,3.4679,3.2964,3.1203,3.0985,3.3433,3.4001,3.5002,3.7061,4.0124,4.2146,4.2563,4.5872,4.8607,4.9998,5.3248,5.6595,5.973,6.3596,6.712,7.0413,7.599,8.098,8.5246,8.9413,9.4867,10.1526,10.5721,11.0917,-2.6519,-2.4332,-2.218,-1.8648,-1.6828,-1.5543,-1.4297,-1.2975,-1.2436,-1.3927,-1.6188,0.0,-1.93,0.0,0.0,0.0,0.0,0.0,-1.5964,-1.4485,-1.2774,0.0,-0.757,0.0,-0.0989,0.2931,0.5427,0.0,0.5606,0.5713,0.6921,0.7081,0.7356,0.8052,0.8689,0.9013,0.8985,0.7349,0.6112,0.5309,0.3497,0.3163,0.4269,0.5689,0.7619,1.0091,0.0,1.3811,1.5969,1.7174,1.7986,1.8308,1.8308,1.8986,1.9963,2.1834,2.3234,2.4239,2.5115,2.5111,2.4766,2.5527,2.5628,2.5405,2.6011,2.6403,2.6957,2.8043,2.9007,3.0256,3.2739,3.4355,3.6244,3.8792,3.9856,4.1104,4.3213,4.4256,4.4913,4.5101,4.3765,4.1572,3.8357,3.5421,3.2957,3.1644,3.0277,2.9627,3.0293,3.1443,3.3049,3.4921,3.7629,3.9701,4.0329,4.2841,4.5096,4.7101,4.9665,5.2518,5.5545,5.9177,6.3042,6.705,7.1273,7.6272,8.2133,8.6415,9.1911,9.8485,10.3512,10.8792,-2.5592,-2.3049,-2.0671,-1.6606,-1.4187,-1.225,-1.0038,-0.8465,-0.7507,-0.7112,-0.9732,-1.2046,0.0,0.0,0.0,-1.7135,-1.6336,0.0,-1.0765,-1.1016,0.0,-0.8586,0.0,-0.5612,-0.1413,0.1767,0.0,0.0,0.5183,0.5636,0.6591,0.6098,0.6375,0.7715,0.8432,0.9087,0.9793,0.8321,0.6749,0.5265,0.2547,0.1415,0.174,0.2826,0.5162,0.8617,1.0798,1.2835,1.4856,1.6281,1.7135,1.7459,1.7459,1.7646,1.8123,2.0015,2.1384,2.2565,2.3838,2.33,2.2448,2.3756,2.413,2.4186,2.5364,2.5229,2.5243,2.6832,2.7543,2.8589,3.0855,3.2533,3.4228,3.6818,3.7952,3.8873,4.106,4.2105,4.2673,4.3413,4.2666,4.1214,3.8567,3.4715,3.1613,3.0293,2.9293,2.8329,2.7617,2.9392,3.1249,3.2713,3.5539,3.7568,3.8368,4.0225,4.2242,4.4175,4.5943,4.8213,5.1395,5.4552,5.8541,6.3375,6.7232,7.2305,7.8586,8.3452,8.8852,9.4811,10.0499,10.5907,-2.5117,-2.1979,-1.8876,-1.4455,-1.087,-0.7947,-0.6149,-0.4125,-0.2403,-0.162,-0.216,-0.2861,0.0,0.0,-0.8355,-0.6584,-0.5547,-0.5116,-0.5415,-0.7524,-0.8608,0.0,0.0,0.0,0.0,0.0,0.0,0.4875,0.0,0.7249,0.6227,0.7241,0.7904,0.8064,0.9226,1.0209,1.0758,1.0257,0.8415,0.5549,0.2368,0.0309,-0.079,0.0463,0.259,0.581,0.8948,1.1562,1.405,1.5332,1.6453,1.7322,1.7459,1.7459,1.7763,1.9492,2.0427,2.0976,2.0907,2.0745,2.1081,2.2852,2.3309,2.3521,2.4808,2.4597,2.4367,2.5652,2.6284,2.7103,2.8171,3.0256,3.2474,3.4878,3.56,3.6762,3.964,4.0844,4.1522,4.1466,4.2332,4.2421,4.0104,3.5307,3.1266,2.9333,2.7471,2.6296,2.6028,2.8329,3.0201,3.0748,3.4012,3.6312,3.6755,3.8856,4.0525,4.1562,4.263,4.4627,4.7617,5.0333,5.4106,5.8962,6.4919,7.0168,7.4604,8.0101,8.5323,9.0248,9.562,10.1639,-2.0943,-1.7671,-1.4421,-1.053,-0.7051,-0.4056,-0.2077,-0.0106,0.1545,0.2194,0.2222,0.2059,0.1488,-0.0493,-0.2004,-0.15,-0.1674,-0.1868,-0.2227,-0.3706,-0.4689,-0.457,-0.3666,0.0,0.0,0.0,0.0,0.9295,0.94,0.9582,0.9927,0.9947,1.0398,1.1092,1.166,1.2511,1.3436,1.3115,1.1583,0.89,0.3675,0.0313,-0.1106,0.0154,0.1829,0.4274,0.8144,1.0905,1.2892,1.4981,1.6298,1.6997,1.6981,1.7255,1.769,1.8225,1.9003,1.9534,1.905,1.8938,1.9248,2.0766,2.1415,2.1841,2.2691,2.2903,2.3327,2.4404,2.4997,2.577,2.7417,2.8807,3.0482,3.2413,3.3276,3.4228,3.6697,3.7348,3.8006,3.9612,4.0427,4.0328,3.9217,3.6714,3.3363,2.8733,2.7008,2.6074,2.5857,2.7205,2.868,2.9842,3.1932,3.332,3.3482,3.4914,3.5976,3.6444,3.7719,3.958,4.2015,4.5203,4.938,5.4474,5.9351,6.4496,6.989,7.5313,8.042,8.5421,9.1734,9.7565,-1.5442,-1.3172,-1.0803,-0.7046,-0.3753,-0.101,0.0921,0.2823,0.4268,0.4473,0.4643,0.4548,0.3934,0.2885,0.2062,0.1669,0.1215,0.0933,0.0734,-0.0382,-0.1304,-0.1566,-0.0808,0.0,0.0,0.0,0.0,1.2645,1.2843,1.3146,1.3971,1.3922,1.4065,1.456,1.4927,1.545,1.6245,1.5958,1.4827,1.2418,0.7132,0.318,0.0779,0.0461,0.1373,0.3511,0.7296,1.0024,1.1736,1.4197,1.5835,1.681,1.6981,1.7351,1.7687,1.7815,1.7859,1.7672,1.7549,1.743,1.7803,1.8748,1.942,2.0151,2.0776,2.1513,2.204,2.3112,2.4022,2.4673,2.6197,2.7577,2.8728,3.014,3.1269,3.2533,3.4586,3.522,3.5976,3.8257,3.8957,3.9152,3.8517,3.7251,3.4713,2.9989,2.7758,2.6598,2.6129,2.6665,2.7663,2.9045,3.0137,3.0915,3.1306,3.1905,3.231,3.2393,3.3502,3.5119,3.7095,3.9824,4.3708,4.8874,5.331,5.819,6.347,6.93,7.4711,7.9746,8.6512,9.253,-0.9067,0.0,-0.819,-0.4086,-0.1131,0.1155,0.2977,0.4604,0.5622,0.555,0.5194,0.4835,0.458,0.3884,0.3284,0.3217,0.3325,0.3587,0.3695,0.2391,0.1436,0.1436,0.2219,0.3457,0.0,1.057,1.405,1.4741,1.6946,1.8186,1.7939,1.8828,1.8878,1.807,1.8559,1.8745,1.8781,1.8763,1.7856,1.5821,1.2532,0.8702,0.4846,0.1521,0.1218,0.3199,0.6559,0.8939,1.0743,1.2823,1.4784,1.6778,1.7646,1.7881,1.7881,1.8063,1.732,1.601,1.6045,1.6445,1.6752,1.7046,1.7565,1.8438,1.9509,2.0179,2.0671,2.175,2.267,2.376,2.4491,2.5901,2.7487,2.809,2.9655,3.1293,3.2945,3.4489,3.5846,3.7366,3.856,3.9085,3.8684,3.6992,3.5054,3.2809,3.0158,2.7847,2.663,2.6642,2.7233,2.8472,2.8902,2.9458,3.0339,3.015,2.9896,2.9734,2.9947,3.1024,3.3105,3.4446,3.7322,4.1966,4.6938,5.1388,5.5336,6.2348,6.8257,7.3184,7.9827,8.6448,-0.5226,0.0,0.0,-0.1485,0.068,0.3474,0.5753,0.6229,0.6414,0.6968,0.6603,0.6174,0.6267,0.5251,0.4391,0.4384,0.3882,0.3602,0.4046,0.408,0.4078,0.4158,0.5947,0.8639,1.2516,1.576,1.8174,1.9711,2.0785,2.1822,2.2489,2.1557,2.1468,2.231,2.1806,2.197,2.2999,2.2977,2.1637,1.8965,1.5909,1.173,0.6771,0.3775,0.2189,0.2085,0.5118,0.728,0.8771,1.1586,1.3322,1.4588,1.6004,1.6672,1.6808,1.6531,1.6394,1.6415,1.5849,1.5641,1.5933,1.6212,1.6916,1.7781,1.8438,1.9096,1.9779,2.0656,2.1739,2.2798,2.3554,2.5221,2.6666,2.7527,2.8639,2.9957,3.1249,3.2516,3.3875,3.5929,3.7291,3.8312,3.9209,3.8085,3.6266,3.4081,3.1582,2.9656,2.8605,2.7458,2.7233,2.8126,2.8345,2.7926,2.6891,2.6514,2.5591,2.4022,2.4763,2.5894,2.7354,2.9194,3.2026,3.5954,4.0552,4.4838,4.8842,5.5621,6.1516,6.6661,7.3046,7.9471,0.4195,0.0,0.0,0.0,0.1631,0.305,0.6481,0.6614,0.637,0.7506,0.7406,0.7021,0.7035,0.5916,0.5042,0.0,0.4321,0.417,0.4562,0.5485,0.6382,0.6765,0.9625,1.2971,1.667,1.8865,2.0864,2.2672,2.3488,2.418,2.4888,2.4114,2.3731,2.3889,2.3905,2.404,2.4535,2.5673,2.4883,2.2125,1.996,1.6653,1.2362,0.8194,0.5314,0.363,0.4831,0.5892,0.7108,0.9552,1.1679,1.3278,1.4612,1.565,1.6576,1.5706,1.5494,1.5466,1.5109,1.4842,1.4667,1.5452,1.5968,1.6733,1.7727,1.8542,1.9368,1.994,2.0921,2.2054,2.3025,2.4267,2.5475,2.6783,2.7964,2.9357,3.0936,3.2042,3.3493,3.5828,3.6947,3.8017,3.9562,3.8414,3.6805,3.5235,3.3186,3.1204,2.968,2.8196,2.7547,2.7895,2.7674,2.6523,2.4376,2.3478,2.2096,2.0057,2.0307,2.0843,2.1487,2.3305,2.5563,2.8299,3.2853,3.7127,4.1125,4.7874,5.3994,5.9733,6.6189,7.0892,1.6115,0.0,0.0,0.3745,0.1904,0.1259,0.0,0.0,0.5556,0.7244,0.7496,0.728,0.7039,0.616,0.5331,0.4691,0.4602,0.4787,0.5173,0.6727,0.8195,0.9337,1.3074,1.6322,1.8541,2.0541,2.2389,2.4149,2.4905,2.5571,2.5824,2.5837,2.5272,2.3935,2.4837,2.4992,2.4424,2.7036,2.7048,2.4775,2.388,2.1978,1.8889,1.3734,0.9589,0.6356,0.5363,0.5265,0.5948,0.7548,0.9723,1.2159,1.3162,1.4619,1.6128,1.5042,1.4403,1.3864,1.4249,1.378,1.3372,1.4439,1.5204,1.5859,1.7218,1.8227,1.8763,1.9669,2.0472,2.113,2.2554,2.3311,2.4274,2.6251,2.7564,2.8919,3.0944,3.2541,3.4235,3.6002,3.7081,3.8272,3.9731,3.8509,3.7118,3.6541,3.461,3.24,3.0517,2.913,2.8126,2.7698,2.6997,2.5522,2.2958,2.0859,1.8908,1.7132,1.634,1.5833,1.5625,1.7056,1.8494,1.986,2.4447,2.8798,3.2695,3.9352,4.5882,5.2313,5.8924,6.1425,0.0,0.0,0.0,0.0,0.0,0.0,0.0,0.0,0.3697,0.5902,0.6274,0.6381,0.6863,0.6481,0.5951,0.5453,0.5005,0.5039,0.6246,0.726,0.8685,1.1153,1.4448,1.724,1.9412,2.179,2.3324,2.3962,2.4554,2.5202,2.5627,2.4305,2.4033,2.5274,2.4283,2.4106,2.4837,2.6786,2.6942,2.5368,2.5088,2.2631,1.7958,1.6857,1.327,0.7535,0.6474,0.5797,0.5236,0.6524,0.7588,0.8893,1.0656,1.2171,1.3657,1.3816,1.4069,1.4233,1.389,1.387,1.4173,1.4177,1.4647,1.5582,1.6492,1.7554,1.8327,1.8805,1.9784,2.0798,2.2473,2.3281,2.4346,2.5983,2.7124,2.812,2.9353,3.1286,3.298,3.4381,3.6411,3.8255,3.8767,3.9055,3.8939,3.8172,3.5635,3.3398,3.2271,3.0238,2.8738,2.8126,2.6997,2.5623,2.3954,1.9417,1.5519,1.2949,1.1733,1.0692,0.9837,1.0754,1.1883,1.3127,1.7678,2.1501,2.4487,3.1282,3.728,4.2643,4.9258,5.2194,0.0,0.0,0.0,0.0,0.0,0.0,0.0,0.0,0.0,0.0,0.0,0.4914,0.0,0.0,0.4131,0.3766,0.3678,0.4072,0.534,0.6829,0.8913,1.1519,1.4427,1.713,1.9423,2.1261,2.285,2.4137,2.4077,2.4291,2.4821,2.3484,2.2759,2.3175,2.2353,2.2186,2.2599,2.4441,2.5027,2.4179,2.4711,2.2964,1.9066,1.8228,1.5102,1.0339,0.8864,0.7437,0.6353,0.6451,0.6746,0.729,0.847,0.9873,1.095,1.212,1.2379,1.2221,1.2245,1.2674,1.3107,1.3227,1.42,1.5498,1.6191,1.7128,1.802,1.89,1.9454,2.0206,2.2219,2.2769,2.3557,2.5652,2.6609,2.7481,2.9203,3.1227,3.3031,3.4473,3.6583,3.8348,3.8677,3.9199,3.9288,3.8391,3.6351,3.4643,3.3921,3.1602,2.9766,2.8967,2.7203,2.5522,2.416,1.9458,1.5546,1.3061,0.8813,0.5778,0.4311,0.4972,0.5772,0.6683,1.1071,1.5168,1.8875,2.4532,3.0383,3.6167,3.7355,4.0,0.0,0.0,0.0,0.0,0.0,0.0,0.0,0.0,0.0,0.0,0.0,0.0,0.0,0.0,0.0,0.1526,0.1737,0.2456,0.386,0.608,0.861,1.1197,1.3793,1.6346,1.8876,2.0278,2.184,2.3726,2.3528,2.3552,2.3897,2.2788,0.0,2.1174,2.0648,2.0307,2.0062,2.1668,2.2349,2.2311,0.0,0.0,2.0424,1.8982,1.6654,1.346,1.1794,1.0043,0.8275,0.7419,0.6847,0.6473,0.6401,0.7563,0.9256,1.0529,1.0624,1.0287,1.0861,1.1315,1.2021,1.2491,1.3726,1.5353,1.6042,1.6807,0.0,1.901,1.9354,1.9816,2.1869,2.226,2.2654,2.5096,2.599,2.6849,2.9385,3.1164,3.2969,3.4711,3.6422,3.7931,3.8354,3.8638,3.8784,3.8133,3.6754,3.5539,3.4951,3.2599,3.0593,2.9465,2.7173,2.4963,2.3395,1.9488,1.6071,1.3694,0.7093,0.2169,-0.0306,-0.0222,0.0258,0.1035,0.4921,0.9028,1.3323,1.777,2.3331,2.9534,2.5512,2.7925,0.0,0.0,0.0,0.0,0.0,0.0,0.0,0.0,0.0,0.0,0.0,0.0,0.0,0.0,0.0,0.0,0.0289,0.0702,0.2789,0.4919,0.7331,1.0473,1.2676,1.5086,1.7648,1.9719,2.115,2.1849,2.2872,2.3595,2.3738,0.0,0.0,0.0,0.0,1.9274,1.968,1.968,1.9815,2.0196,2.1938,2.1919,2.0424,2.0167,1.8727,1.603,1.5283,1.3261,1.0647,1.0257,0.8624,0.6368,0.3679,0.5607,0.9711,1.0429,1.0689,1.0716,1.068,0.0,0.0,1.2577,1.3502,1.4811,1.5486,1.6564,1.7767,1.8769,1.9508,2.0255,2.1777,2.2264,2.2632,2.4243,2.5101,2.6138,2.8241,2.9901,3.1142,3.2489,3.4587,3.6143,3.5794,3.6493,3.7155,3.7674,3.6421,3.5185,3.4617,3.2576,3.0582,2.9077,0.0,0.0,2.1017,1.7594,1.431,1.1274,0.6615,0.1784,-0.3017,-0.418,-0.4122,-0.2876,-0.0352,0.2368,0.5219,0.9462,1.4172,1.9314,1.5916,1.8997,0.0,0.0,0.0,0.0,0.0,0.0,0.0,0.0,0.0,0.0,0.0,0.0,0.0,0.0,0.0,0.0,-0.0171,0.0681,0.2528,0.5203,0.763,0.9451,1.2581,1.522,1.6982,1.9237,2.0992,2.2169,2.3408,2.4313,2.4744,2.3994,2.3758,2.3994,2.1638,2.0031,1.9352,1.8405,1.7725,1.7598,1.8738,1.9261,1.9323,1.9323,1.8701,0.0,1.6267,1.4889,1.3277,1.1606,1.0165,0.0,0.0,0.0,0.0,0.0,0.8309,0.9079,0.9263,1.0004,1.113,1.1448,1.3209,1.5209,1.5354,1.6443,1.7807,1.8681,1.9143,1.9872,2.1754,2.2198,2.2576,2.3489,2.4269,2.4987,2.6555,2.8305,2.9983,3.0891,3.3343,0.0,3.4363,3.5441,3.6514,3.6629,3.591,3.5058,3.4378,3.2536,3.0543,2.8707,2.6666,2.4061,2.0989,1.7415,0.0,0.0,0.0,-0.0206,-0.4516,-0.6543,0.0,0.0,0.0,0.0,0.0,0.0,0.0,0.0,1.0029,1.6076,0.0,0.0,0.0,0.0,0.0,0.0,0.0,0.0,0.0,0.0,0.0,0.0,0.0,0.0,0.0,0.0,0.0,0.1101,0.2786,0.5575,0.7844,0.8945,1.2373,1.501,1.6237,1.8888,2.1075,2.2396,2.3942,2.5273,2.6229,2.5943,2.5736,2.5807,2.3425,2.1473,1.9885,1.8096,1.6695,1.601,1.6492,1.7244,1.8264,1.8513,1.8637,1.8637,1.7314,1.6147,1.5124,1.3557,1.1997,1.0704,0.9593,0.8095,0.6555,0.7363,0.772,0.7822,0.8357,0.9399,1.0639,1.1038,1.3173,1.5606,1.5562,1.6618,1.7821,1.8787,1.9172,1.9606,2.1448,2.1905,2.2186,2.2806,2.3621,2.4382,2.5286,2.719,2.8883,2.9858,3.215,3.3602,3.3272,3.4542,3.5576,3.5665,3.5157,0.0,3.3776,3.206,3.0081,2.8151,2.6234,2.3787,2.0537,1.6941,1.3342,0.9863,0.3206,-0.2098,-0.5503,-0.8148,-0.9225,-0.8684,-0.6963,-0.4898,0.0,0.0,0.0,0.0,0.0,0.0,0.0,0.0,0.0,0.0,0.0,0.0,0.0,0.0,0.0,0.0,0.0,0.0,0.0,0.0,0.0,0.0,0.0,0.0,0.343,0.5675,0.7762,0.9318,1.161,1.3669,1.5298,1.8584,2.0965,2.1966,2.4213,2.6397,2.8167,2.7727,2.7617,2.8468,2.5867,2.3663,2.2033,1.9241,1.7211,1.601,1.6367,1.689,1.7538,1.8537,1.9158,1.9455,1.8982,1.7727,1.5918,1.6504,1.4282,1.0862,1.5098,1.4923,1.2216,1.2247,1.0398,0.7853,0.8701,0.9602,1.0656,1.2056,1.3884,1.5792,1.6647,1.7429,1.844,1.8984,1.9346,2.0069,2.0971,2.1151,2.1492,2.2568,2.3441,2.4331,2.4842,2.6204,2.7865,2.9356,3.0393,3.1289,3.2297,3.3528,3.44,3.5001,3.3917,0.0,3.2382,3.0846,2.901,2.7115,2.4718,2.1937,1.8681,1.5447,1.213,0.8657,0.1824,-0.332,-0.6081,-0.8943,-1.0445,-1.0451,-0.9233,-0.766,-0.5718,0.0,0.0,0.0,0.0,0.0,0.0,0.0,0.0,0.0,0.0,0.0,0.0,0.0,0.0,0.0,0.0,0.0,0.0,0.0,0.0,0.0,0.0,0.0,0.0,0.0,0.9575,0.9972,1.3182,1.5255,1.4943,1.6998,1.8963,2.0437,2.2858,2.5397,2.8087,2.868,2.952,3.1032,2.8778,2.6556,2.468,2.1758,1.9344,1.7575,1.6892,1.689,1.7538,1.8311,1.8685,1.8809,1.814,1.7317,1.6464,1.6785,1.6162,1.4988,1.6741,1.7459,1.7514,1.6215,1.4255,1.213,1.1377,1.0777,1.0522,1.1701,1.3781,1.5917,1.6402,1.7484,1.8399,1.9429,1.9747,2.0223,2.0944,2.1434,2.1734,2.1813,2.226,2.2897,2.3291,2.4491,2.5798,2.6859,2.8483,2.9747,3.0158,3.1777,3.2489,3.0849,3.1184,3.1065,2.9488,2.8344,2.6992,2.5241,2.3538,2.1276,1.7894,1.4944,1.147,0.7291,0.0974,-0.3931,-0.6734,-0.9147,-1.0654,-1.1258,-0.9919,-0.8915,-0.8265,0.0,0.0,0.0,0.0,0.0,0.0,0.0,0.0,0.0,0.0,0.0,0.0,0.0,0.0,0.0,0.0,0.0,0.0,0.0,0.0,0.0,0.0,0.0,0.0,0.0,0.0,1.1706,1.4564,0.0,0.0,1.5284,1.636,1.7645,2.0022,2.297,2.6396,2.7694,2.9347,3.1568,2.9986,2.8276,2.6493,2.3668,2.1109,1.8959,1.7596,1.7338,1.814,1.8278,1.8114,1.7853,1.7125,1.6928,1.7062,1.7014,1.6959,1.6854,1.709,1.8452,1.9957,1.848,1.6691,1.4775,1.3194,1.1713,1.0728,1.1406,1.3478,1.5785,1.6384,1.7364,1.8498,1.9375,1.9545,1.967,2.019,2.0533,2.0857,2.074,2.1111,2.1621,2.1995,2.3219,2.4383,2.5564,2.7236,2.873,2.916,3.0602,3.1025,2.8588,2.8894,2.8749,2.706,2.593,2.4708,2.3374,2.2136,2.0183,1.673,1.4232,1.0987,0.6516,0.0799,-0.3759,-0.6924,-0.8549,-0.9795,-1.0863,-1.0007,-0.9625,0.0,0.0,0.0,0.0,0.0,0.0,0.0,0.0,0.0,0.0,0.0,0.0,0.0,0.0,0.0,0.0,0.0,0.0,0.0,0.0,0.0,0.0,0.0,0.0,0.0,0.0,0.0,1.4033,1.5492,0.0,0.0,0.0,0.0,1.34,1.6031,1.9228,2.2834,2.4594,2.6819,2.9781,2.926,2.8276,2.7085,2.4569,2.2275,2.0045,1.8431,1.8215,1.9135,1.8428,1.7569,1.6734,1.5778,1.6241,1.775,1.7242,1.6781,1.6356,1.6579,1.7874,1.9425,1.8962,1.7529,1.5473,1.3979,1.2615,1.1604,1.1377,1.3119,1.527,1.6162,1.7375,0.0,0.0,1.8554,1.8385,1.8731,1.8688,1.8803,1.9259,1.9692,2.0288,2.0879,2.2178,2.3626,0.0,2.6628,2.8126,2.9088,0.0,2.9662,2.7889,2.678,2.5845,2.5043,2.3554,2.2158,2.1421,2.0506,1.8474,1.5024,1.3452,1.0697,0.6274,0.1465,-0.2805,-0.6436,-0.7213,-0.8151,-0.9474,-0.9629,0.0,0.0,0.0,0.0,0.0,0.0,0.0,0.0,0.0,0.0,0.0,0.0,0.0,0.0,0.0,0.0,0.0,0.0,0.0,0.0,0.0,0.0,0.0,0.0,0.0,0.0,0.8699,1.1971,1.1586,1.352,1.3606,0.0,0.0,0.0,0.0,0.0,0.0,1.6464,1.8302,2.0788,2.445,2.4283,2.4248,2.477,2.2443,2.0849,2.0171,1.8733,1.7945,1.7873,1.7482,1.6785,1.5732,1.4614,1.4868,1.6037,1.6383,1.6479,1.631,1.641,1.6691,1.7245,1.8035,1.6861,1.5008,1.5559,1.3997,1.1858,1.2311,0.0,1.422,1.4768,0.0,0.0,0.0,0.0,1.6258,1.69,1.6778,1.6651,1.7478,1.7867,1.8289,1.9515,2.0789,2.2019,0.0,2.412,2.5087,2.4762,0.0,0.0,0.0,0.0,2.1979,2.0428,1.9803,1.9209,1.8236,1.7739,1.6543,1.4144,1.2775,1.0868,0.8051,0.3528,-0.0283,-0.3081,-0.5632,-0.7736,-0.9336,0.0,0.0,0.0,0.0,0.0,0.0,0.0,0.0,0.0,0.0,0.0,0.0,0.0,0.0,0.0,0.0,0.0,0.0,0.0,0.0,0.0,0.0,0.0,0.0,0.0,0.0,0.0,0.9006,1.2211,1.1514,1.2253,1.1458,0.0,0.0,0.0,0.0,0.0,0.0,0.0,0.0,0.0,1.8268,1.8686,1.9258,2.0228,1.9758,1.904,1.821,1.8064,1.7469,1.6398,1.6137,1.5414,1.4294,1.3189,1.3484,1.4751,1.4454,1.4349,1.4376,0.0,0.0,0.0,0.0,1.4069,1.2438,1.3305,1.2353,0.0,1.1008,0.0,0.0,0.0,0.0,0.0,0.0,0.0,0.0,0.0,0.0,0.0,1.5215,1.5534,1.6104,1.829,1.9215,2.0024,0.0,2.2147,2.2564,2.2391,0.0,0.0,0.0,0.0,0.0,1.7709,1.7449,1.7183,1.663,1.6721,1.5816,1.3324,1.2167,1.0558,0.8092,0.436,0.2201,0.2158,-0.2674,-0.6613,0.0,0.0,0.0,0.0,0.0,0.0,0.0,0.0,0.0,0.0,0.0,0.0,0.0,0.0,0.0,0.0,0.0,0.0,0.0,0.0,0.0,0.0,0.0,0.0,0.0,0.0,0.0,0.0,0.0,1.1134,1.1619,0.0,0.0,0.0,0.0,0.0,0.0,0.0,0.0,0.0,0.0,0.0,0.0,0.0,1.3666,1.4791,1.6147,1.6022,1.4457,1.5729,1.5506,1.4024,1.3847,1.3252,1.2354,1.151,0.0,1.319,1.2095,0.0,0.0,0.0,0.0,0.0,0.0,0.0,0.0,0.0,0.0,0.0,0.0,0.0,0.0,0.0,0.0,0.0,0.0,0.0,0.0,0.0,0.0,1.2565,1.2658,1.3128,1.4052,0.0,1.6997,1.7524,1.982,2.0053,0.0,0.0,0.0,0.0,0.0,0.0,0.0,1.5611,1.5651,1.5734,1.5734,1.6122,1.5475,1.2746,1.1777,1.0253,0.7642,0.4827,0.4155,0.6187,0.0128,0.0,0.0,0.0,0.0,0.0,0.0,0.0,0.0,0.0,0.0,0.0,0.0,0.0,0.0,0.0,0.0,0.0,0.0,0.0,0.0,0.0,0.0,0.0,0.0,0.0,0.0,0.0,0.0,0.0,0.0,0.0,0.0,0.0,0.0,0.0,0.0,0.0,0.0,0.0,0.0,0.0,0.0,0.0,0.0,0.0,0.0,0.0,0.0,0.0,0.0,0.7727,0.7849,0.9191,0.8622,0.8647,0.9231,1.0113,1.0021,0.9403,0.0,0.0,0.0,0.0,0.0,0.0,0.0,0.0,0.0,0.0,0.0,0.0,0.0,0.0,0.0,0.0,0.0,0.0,0.0,0.0,0.0,0.0,0.0,0.0,0.0,1.1317,1.2312,0.0,0.0,0.0,0.0,0.0,0.0,0.0,0.0,0.0,0.0,0.0,0.0,1.2119,1.2747,1.3251,1.3251,1.4036,1.4008,1.2842,1.2027,1.0895,0.9231,0.6563,0.3591,0.0,0.0,0.0,0.0,0.0,0.0,0.0,0.0,0.0,0.0,0.0,0.0,0.0,0.0,0.0,0.0,0.0,0.0,0.0,0.0,0.0,0.0,0.0,0.0,0.0,0.0,0.0,0.0,0.0,0.0,0.0,0.0,0.0,0.0,0.0,0.0,0.0,0.0,0.0,0.0,0.0,0.0,0.0,0.0,0.0,0.0,0.0,0.0,0.0,0.0,0.0,0.0,0.0,0.0,0.0,0.0,0.0,0.0,0.0,0.8291,0.0,0.0,0.0,0.0,0.0,0.0,0.0,0.0,0.0,0.0,0.0,0.0,0.0,0.0,0.0,0.0,0.0,0.0,0.0,0.0,0.0,0.0,0.0,0.0,0.0,0.0,0.0,0.0,0.0,0.0,0.0,0.0,0.0,0.0,0.0,0.0,0.0,0.0,0.0,0.0,0.9891,1.0778,1.1674,1.2342,1.3187,1.3688,1.3625,1.2421,1.1384,1.0698,0.6783,0.0,0.0,0.0,0.0,0.0,0.0,0.0,0.0,0.0,0.0,0.0,0.0,0.0,0.0,0.0,0.0,0.0,0.0,0.0,0.0,0.0,0.0,0.0,0.0,0.0,0.0,0.0,0.0,0.0,0.0,0.0,0.0,0.0,0.0,0.0,0.0,0.0,0.0,0.0,0.0,0.0,0.0,0.0,0.0,0.0,0.0,0.0,0.0,0.0,0.0,0.0,0.0,0.0,0.0,0.0,0.0,0.0,0.0,0.0,0.6457,0.0,0.0,0.0,0.0,0.0,0.0,0.0,0.0,0.0,0.0,0.0,0.0,0.0,0.0,0.0,0.0,0.0,0.0,0.0,0.0,0.0,0.0,0.0,0.0,0.0,0.0,0.0,0.0,0.0,0.0,0.0,0.0,0.0,0.0,0.0,0.0,0.0,0.0,0.0,0.0,0.0,0.8464,0.9498,1.0654,1.212,1.3089,1.3877,1.4366,1.2872,1.1696,1.1209,0.0,0.0,0.0,0.0,0.0,0.0,0.0,0.0,0.0,0.0,0.0,0.0,0.0,0.0,0.0,0.0,0.0,0.0,0.0,0.0,0.0,0.0,0.0,0.0,0.0,0.0,0.0,0.0,0.0,0.0,0.0,0.0,0.0,0.0,0.0,0.0,0.0,0.0,0.0,0.0,0.0,0.0,0.0,0.0,0.0,0.0,0.0,0.0,0.0,0.0,0.0,0.0,0.0,0.0,0.0,0.0,0.0,0.0,0.0,0.0,0.0,0.0,0.0,0.0,0.0,0.0,0.0,0.0,0.0,0.0,0.0,0.0,0.0,0.0,0.0,0.0,0.0,0.0,0.0,0.0,0.0,0.0,0.0,0.0,0.0,0.0,0.0,0.0,0.0,0.0,0.0,0.0,0.0,0.0,0.0,0.0,0.0,0.0,0.0,0.0,0.0,0.0,0.8048,0.8958,1.0221,1.236,1.3646,1.4376,1.4547,1.3449,1.188,0.9864,0.0,0.0,0.0,0.0,0.0,0.0,0.0,0.0,0.0,0.0,0.0,0.0,0.0,0.0,0.0,0.0,0.0,0.0,0.0,0.0,0.0,0.0,0.0,0.0,0.0,0.0,0.0,0.0,0.0,0.0,0.0,0.0,0.0,0.0,0.0,0.0,0.0,0.0,0.0,0.0,0.0,0.0,0.0,0.0,0.0,0.0,0.0,0.0,0.0,0.0,0.0,0.0,0.0,0.0,0.0,0.0,0.0,0.0,0.0,0.0,0.0,0.0,0.0,0.0,0.0,0.0,0.0,0.0,0.0,0.0,0.0,0.0,0.0,0.0,0.0,0.0,0.0,0.0,0.0,0.0,0.0,0.0,0.0,0.0,0.0,0.0,0.0,0.0,0.0,0.0,0.0,0.0,0.0,0.0,0.0,0.0,0.0,0.0,0.0,0.0,0.0,0.0,0.6133,0.7217,0.8821,1.1768,1.3244,1.4792,1.6659,1.4805,1.3182,1.2411,0.0,0.0,0.0,0.0,0.0,0.0,0.0,0.0,0.0,0.0,0.0,0.0,0.0,0.0,0.0,0.0,0.0,0.0,0.0,0.0,0.0,0.0,0.0,0.0,0.0,0.0,0.0,0.0,0.0,0.0,0.0,0.0,0.0,0.0,0.0,0.0,0.0,0.0,0.0,0.0,0.0,0.0,0.0,0.0,0.0,0.0,0.0,0.0,0.0,0.0,0.0,0.0,0.0,0.0,0.0,0.0,0.0,0.0,0.0,0.0,0.0,0.0,0.0,0.0,0.0,0.0,0.0,0.0,0.0,0.0,0.0,0.0,0.0,0.0,0.0,0.0,0.0,0.0,0.0,0.0,0.0,0.0,0.0,0.0,0.0,0.0,0.0,0.0,0.0,0.0,0.0,0.0,0.0,0.0,0.0,0.0,0.0,0.0,0.0,0.0,0.0,0.0,0.0,0.6145,0.8201,1.1034,1.293,1.5079,1.7718,1.5472,1.4018,1.4056,0.0,0.0,0.0,0.0,0.0,0.0,0.0,0.0,0.0,0.0,0.0,0.0,0.0,0.0,0.0,0.0,0.0,0.0,0.0,0.0,0.0,0.0,0.0,0.0,0.0,0.0,0.0,0.0,0.0,0.0,0.0,0.0,0.0,0.0,0.0,0.0,0.0,0.0,0.0,0.0,0.0,0.0,0.0,0.0,0.0,0.0,0.0,0.0,0.0,0.0,0.0,0.0,0.0,0.0,0.0,0.0,0.0,0.0,0.0,0.0,0.0,0.0,0.0,0.0,0.0,0.0,0.0,0.0,0.0,0.0,0.0,0.0,0.0,0.0,0.0,0.0,0.0,0.0,0.0,0.0,0.0,0.0,0.0,0.0,0.0,0.0,0.0,0.0,0.0,0.0,0.0,0.0,0.0,0.0,0.0,0.0,0.0,0.0,0.0,0.0,0.0,0.0,0.3471,0.6319,0.875,1.0541,1.2946,1.511,1.6971,1.5172,1.3961,0.0,0.0,0.0,0.0,0.0,0.0,0.0,0.0,0.0,0.0,0.0,0.0,0.0,0.0,0.0,0.0,0.0,0.0,0.0,0.0,0.0,0.0,0.0,0.0,0.0,0.0,0.0,0.0,0.0,0.0,0.0,0.0,0.0,0.0,0.0,0.0,0.0,0.0,0.0,0.0,0.0,0.0,0.0,0.0,0.0,0.0,0.0,0.0,0.0,0.0,0.0,0.0,0.0,0.0,0.0,0.0,0.0,0.0,0.0,0.0,0.0,0.0,0.0,0.0,0.0,0.0,0.0,0.0,0.0,0.0,0.0,0.0,0.0,0.0,0.0,0.0,0.0,0.0,0.0,0.0,0.0,0.0,0.0,0.0,0.0,0.0,0.0,0.0,0.0,0.0,0.0,0.0,0.0,0.0,0.0,0.0,0.0,0.0,0.0,0.0,0.0,0.0,0.0,0.2636,0.4715,0.7372,0.0,1.3787,1.6123,1.8506,1.7358,1.6142,1.5166,0.0,0.0,0.0,0.0,0.0,0.0,0.0,0.0,0.0,0.0,0.0,0.0,0.0,0.0,0.0,0.0,0.0,0.0,0.0,0.0,0.0,0.0,0.0,0.0,0.0,0.0,0.0,0.0,0.0,0.0,0.0,0.0,0.0,0.0,0.0,0.0,0.0,0.0,0.0,0.0,0.0,0.0,0.0,0.0,0.0,0.0,0.0,0.0,0.0,0.0,0.0,0.0,0.0,0.0,0.0,0.0,0.0,0.0,0.0,0.0,0.0,0.0,0.0,0.0,0.0,0.0,0.0,0.0,0.0,0.0,0.0,0.0,0.0,0.0,0.0,0.0,0.0,0.0,0.0,0.0,0.0,0.0,0.0,0.0,0.0,0.0,0.0,0.0,0.0,0.0,0.0,0.0,0.0,0.0,0.0,0.0,0.0,0.0,0.0,0.0,0.0,0.0,0.0,0.3221,0.6381,0.0,1.3558,1.6058,1.8544,1.8001,1.7006,1.5916,0.0,0.0,0.0,0.0,0.0,0.0,0.0,0.0,0.0,0.0,0.0,0.0,0.0,0.0,0.0,0.0,0.0,0.0,0.0,0.0,0.0,0.0,0.0,0.0,0.0,0.0,0.0,0.0,0.0,0.0,0.0,0.0,0.0,0.0,0.0,0.0,0.0,0.0,0.0,0.0,0.0,0.0,0.0,0.0,0.0,0.0,0.0,0.0,0.0,0.0,0.0,0.0,0.0,0.0,0.0,0.0,0.0,0.0,0.0,0.0,0.0,0.0,0.0,0.0,0.0,0.0,0.0,0.0,0.0,0.0,0.0,0.0,0.0,0.0,0.0,0.0,0.0,0.0,0.0,0.0,0.0,0.0,0.0,0.0,0.0,0.0,0.0,0.0,0.0,0.0,0.0,0.0,0.0,0.0,0.0,0.0,0.0,0.0,0.0,0.0,0.0,0.0,0.0,0.1916,0.5759,0.9869,1.2727,1.524,1.7489,1.7482,1.6944,1.6017,1.3813,0.0,0.0,0.0,0.0,0.0,0.0,0.0,0.0,0.0,0.0,0.0,0.0,0.0,0.0,0.0,0.0,0.0,0.0,0.0,0.0,0.0,0.0,0.0,0.0,0.0,0.0,0.0,0.0,0.0,0.0,0.0,0.0,0.0,0.0,0.0,0.0,0.0,0.0,0.0,0.0,0.0,0.0,0.0,0.0,0.0,0.0,0.0,0.0,0.0,0.0,0.0,0.0,0.0,0.0,0.0,0.0,0.0,0.0,0.0,0.0,0.0,0.0,0.0,0.0,0.0,0.0,0.0,0.0,0.0,0.0,0.0,0.0,0.0,0.0,0.0,0.0,0.0,0.0,0.0,0.0,0.0,0.0,0.0,0.0,0.0,0.0,0.0,0.0,0.0,0.0,0.0,0.0,0.0,0.0,0.0,0.0,0.0,0.0,0.0,0.0,0.0,0.0,0.1467,0.5098,0.9663,1.3656,1.6501,1.7749,1.9206,1.8974,1.6269,1.4882,0.0,0.0,0.0,0.0,0.0,0.0,0.0,0.0,0.0,0.0,0.0,0.0,0.0,0.0,0.0,0.0,0.0,0.0,0.0,0.0,0.0,0.0,0.0,0.0,0.0,0.0,0.0,0.0,0.0,0.0,0.0,0.0,0.0,0.0,0.0,0.0,0.0,0.0,0.0,0.0,0.0,0.0,0.0,0.0,0.0,0.0,0.0,0.0,0.0,0.0,0.0,0.0,0.0,0.0,0.0,0.0,0.0,0.0,0.0,0.0,0.0,0.0,0.0,0.0,0.0,0.0,0.0,0.0,0.0,0.0,0.0,0.0,0.0,0.0,0.0,0.0,0.0,0.0,0.0,0.0,0.0,0.0,0.0,0.0,0.0,0.0,0.0,0.0,0.0,0.0,0.0,0.0,0.0,0.0,0.0,0.0,0.0,0.0,0.0,0.0,0.0,0.0,-0.1893,0.2041,0.8913,1.4039,1.7452,1.8915,2.0474,2.0267,1.7473,1.6199,0.0,0.0,0.0,0.0,0.0,0.0,0.0,0.0,0.0,0.0,0.0,0.0,0.0,0.0,0.0,0.0,0.0,0.0,0.0,0.0,0.0,0.0,0.0,0.0,0.0,0.0,0.0,0.0,0.0,0.0,0.0,0.0,0.0,0.0,0.0,0.0,0.0,0.0,0.0,0.0,0.0,0.0,0.0,0.0,0.0,0.0,0.0,0.0,0.0,0.0,0.0,0.0,0.0,0.0,0.0,0.0,0.0,0.0,0.0,0.0,0.0,0.0,0.0,0.0,0.0,0.0,0.0,0.0,0.0,0.0,0.0,0.0,0.0,0.0,0.0,0.0,0.0,0.0,0.0,0.0,0.0,0.0,0.0,0.0,0.0,0.0,0.0,0.0,0.0,0.0,0.0,0.0,0.0,0.0,0.0,0.0,0.0,0.0,0.0,0.0,0.0,0.0,0.0,-0.1398,0.7297,1.4001,1.8651,2.053,2.1841,2.1457,1.9061,0.0,0.0,0.0,0.0,0.0,0.0,0.0,0.0,0.0,0.0,0.0,0.0,0.0,0.0,0.0,0.0,0.0,0.0,0.0,0.0,0.0,0.0,0.0,0.0,0.0,0.0,0.0,0.0,0.0,0.0,0.0,0.0,0.0,0.0,0.0,0.0,0.0,0.0,0.0,0.0,0.0,0.0,0.0,0.0,0.0,0.0,0.0,0.0,0.0,0.0,0.0,0.0,0.0,0.0,0.0,0.0,0.0,0.0,0.0,0.0,0.0,0.0,0.0,0.0,0.0,0.0,0.0,0.0,0.0,0.0,0.0,0.0,0.0,0.0,0.0,0.0,0.0,0.0,0.0,0.0,0.0,0.0,0.0,0.0,0.0,0.0,0.0,0.0,0.0,0.0,0.0,0.0,0.0,0.0,0.0,0.0,0.0,0.0,0.0,0.0,0.0,0.0,0.0,0.0,0.0,0.3477,1.396,2.0958,2.2004,2.3779,2.3509,2.0159,0.0,0.0,0.0,0.0,0.0,0.0,0.0,0.0,0.0,0.0,0.0,0.0,0.0,0.0]}],[{"header":{"parameterUnit":"kt","parameterCategory":2,"dx":1,"dy":1,"la1":29.285339999999998,"la2":30.599998999999997,"lo1":-89.70041500000002,"lo2":-87.6738589999976,"nx":112,"ny":82,"refTime":"2022-10-20T00:00:00:Z","depth":0,"parameterNumber":2,"parameterNumberName":"V-component_of_WINDS"},"data":[1.5915,1.6138,0.0,1.714,1.6964,0.0,1.7019,0.0,0.0,0.0,0.0,0.0,0.0,0.0,0.0,0.0,0.0,0.0,0.0,0.0,0.0,0.0,0.0,0.0,0.0,0.0,0.0,0.0,0.0,0.0,0.0,0.0,0.4396,0.5725,0.6621,0.7176,0.7243,0.6737,0.6151,0.5612,0.4967,0.4054,0.2878,0.1748,0.0681,-0.0546,-0.0849,-0.1304,-0.1767,-0.2526,-0.3011,-0.3203,-0.3969,-0.4731,-0.5493,-0.7158,-0.8523,-0.9441,-0.9279,-0.943,-0.9582,-0.9279,-0.9279,-0.9441,-0.8683,-0.8598,-0.855,-0.8527,-0.8633,-0.8878,-0.8878,-0.9051,-0.9216,-0.8878,-0.8358,-0.7837,-0.7663,-0.7136,-0.6756,-0.6495,-0.6439,-0.655,-0.6466,-0.6701,-0.7227,-0.847,-0.8891,-0.9316,-0.9717,-1.0089,-1.0385,-1.0584,-1.0452,-1.0007,-0.941,-0.867,-0.7982,-0.7254,-0.7076,-0.6818,-0.6388,-0.7269,-0.7792,-0.7963,-0.8985,-0.9831,-1.061,-1.1323,-1.241,-1.3816,-1.4709,-1.6023,0.0,0.0,1.4468,1.5853,0.0,0.0,0.0,0.0,0.0,0.0,0.0,0.0,0.0,0.0,0.0,0.0,0.0,0.0,0.0,0.0,0.0,0.0,0.0,0.0,0.0,0.0,0.0,0.0,0.0,0.0,0.0,0.5924,0.5679,0.6178,0.6516,0.6561,0.6412,0.5921,0.5356,0.4823,0.3849,0.2706,0.1418,0.0265,-0.0806,-0.2017,-0.2371,-0.2858,-0.3199,-0.3996,-0.4364,-0.4574,-0.503,-0.5639,-0.6254,-0.8068,-0.9289,-1.0057,-1.0035,-1.0337,-1.0638,-1.0337,-1.0488,-1.0801,-1.0337,-0.9986,-0.9833,-0.9659,-0.9803,-1.0254,-1.0254,-1.0263,-1.0436,-1.0254,-0.9917,-0.9553,-0.9146,-0.8777,-0.8207,-0.8199,-0.8118,-0.8037,-0.8085,-0.8698,-0.9297,-1.0057,-1.0471,-1.0823,-1.1266,-1.153,-1.1915,-1.2321,-1.2306,-1.2053,-1.1675,-1.0859,-0.9786,-0.8856,-0.841,-0.8012,-0.7622,-0.8311,-0.8912,-0.9172,-0.9906,-1.0755,-1.1688,-1.2539,-1.3673,-1.4931,-1.662,-1.7894,0.0,0.0,0.0,1.5732,0.0,0.0,0.0,0.0,1.7879,0.0,0.0,0.0,0.0,0.0,0.0,0.0,0.0,0.0,0.0,0.0,0.0,0.0,0.0,0.0,0.0,0.0,0.0,0.0,0.0,0.0,0.7902,0.7239,0.6827,0.6825,0.6506,0.6017,0.5374,0.5143,0.4672,0.3835,0.2467,0.1251,-0.0125,-0.1548,-0.2617,-0.3414,-0.4704,-0.4952,-0.455,-0.538,-0.5639,-0.5493,-0.5943,-0.6703,-0.7622,-0.9138,-1.0208,-1.0964,-1.065,-1.094,-1.1542,-1.1542,-1.1542,-1.1693,-1.2144,-1.1775,-1.1111,-1.0631,-1.0895,-1.1117,-1.1117,-1.1473,-1.1818,-1.129,-1.1473,-1.1762,-1.1011,-1.0454,-1.0206,-1.031,-1.0251,-0.9935,-0.9435,-1.0941,-1.213,-1.213,-1.213,-1.2431,-1.3344,-1.3494,-1.3793,-1.454,-1.437,-1.4161,-1.4084,-1.3526,-1.2619,-1.1285,-1.0415,-0.9825,-0.957,-0.9585,-0.9926,-1.0698,-1.0745,-1.141,-1.2852,-1.3404,-1.4504,-1.6062,-1.8432,-1.9552,1.1954,0.0,0.0,0.0,0.0,0.0,0.0,0.0,0.0,0.0,0.0,0.0,0.0,0.0,0.0,0.0,0.0,0.0,0.0,0.0,0.0,0.0,0.0,0.0,0.0,0.0,0.0,0.0,0.0,0.0,0.7987,0.6859,0.6221,0.6066,0.5531,0.5046,0.4626,0.4286,0.3628,0.2634,0.1481,0.025,-0.1004,-0.2505,-0.3773,-0.4586,-0.5161,-0.5718,-0.6259,-0.6492,-0.675,-0.7318,-0.7006,-0.8068,-0.9743,-1.0488,-1.1253,-1.1869,-1.1869,-1.1869,-1.2157,-1.2908,-1.3044,-1.2936,-1.3313,-1.3182,-1.2905,-1.2835,-1.2958,-1.3012,-1.3012,-1.3184,-1.3196,-1.3012,-1.2668,-1.2265,-1.2523,-1.2128,-1.149,-1.0569,-1.1066,-1.1583,-1.1375,-1.2786,-1.3942,-1.4226,-1.4375,-1.4375,-1.4689,-1.4987,-1.5136,-1.4987,-1.5244,-1.5156,-1.4915,-1.4691,-1.4181,-1.2975,-1.1707,-1.0915,-1.0621,-1.0911,-1.1116,-1.1095,-1.1662,-1.2539,-1.3644,-1.4394,-1.553,-1.7104,-1.9423,-2.062,0.0,0.0,0.0,0.0,0.0,0.0,1.2286,0.0,1.1918,0.0,0.0,0.0,0.0,0.0,0.0,0.0,0.0,0.0,0.0,0.0,0.0,0.0,0.0,0.0,0.0,0.0,0.0,0.0,0.0,0.7933,0.7832,0.6457,0.5524,0.5143,0.4461,0.3962,0.3698,0.3026,0.2149,0.1268,0.0241,-0.0985,-0.2467,-0.3657,-0.468,-0.5628,-0.6329,-0.6878,-0.7543,-0.7621,-0.8071,-0.8552,-0.8999,-1.0097,-1.1555,-1.1993,-1.2594,-1.3058,-1.2471,-1.2321,-1.2471,-1.3658,-1.4092,-1.3973,-1.4321,-1.4407,-1.449,-1.468,-1.4894,-1.5071,-1.5242,-1.5071,-1.4899,-1.4742,-1.429,-1.3789,-1.3674,-1.3348,-1.2948,-1.2165,-1.2548,-1.3257,-1.3957,-1.4971,-1.588,-1.588,-1.6011,-1.616,-1.616,-1.6325,-1.6474,-1.6622,-1.6844,-1.6901,-1.6724,-1.675,-1.6213,-1.5018,-1.3973,-1.3157,-1.2415,-1.2323,-1.2271,-1.2307,-1.2832,-1.3653,-1.4787,-1.5675,-1.7214,-1.9374,-2.1071,-2.2131,0.0,0.0,0.0,0.0,0.6998,0.0,0.0,0.0,0.0,0.0,0.0,0.0,0.0,0.0,0.0,0.0,0.0,0.0,0.0,0.0,0.0,0.0,0.0,0.0,0.0,0.0,1.1,1.1418,0.9121,0.7641,0.7507,0.6085,0.4885,0.4106,0.3258,0.2837,0.2728,0.1635,0.0654,-0.0218,-0.1045,-0.2385,-0.3938,-0.4684,-0.5454,-0.6384,-0.7762,-0.8272,-0.8448,-0.8919,-0.9304,-0.9686,-1.1129,-1.228,-1.3257,-1.3464,-1.3942,-1.4391,-1.3208,-1.2758,-1.3058,-1.4257,-1.4838,-1.4838,-1.5285,-1.5629,-1.5901,-1.6463,-1.6796,-1.7119,-1.7459,-1.7289,-1.6949,-1.6453,-1.6187,-1.5844,-1.4871,-1.4684,-1.4643,-1.4319,-1.4257,-1.4854,-1.677,-1.7491,-1.7638,-1.7343,-1.7638,-1.7786,-1.7786,-1.7786,-1.808,-1.8689,-1.8856,-1.8941,-1.9022,-1.9026,-1.8535,-1.727,-1.6662,-1.5804,-1.4456,-1.3709,-1.3608,-1.3897,-1.4028,-1.4791,-1.6037,-1.7104,-1.9156,-2.2062,-2.2894,-2.3886,0.0,0.0,0.0,0.0,0.0,0.3767,0.0,0.0,0.0,0.0,0.0,0.0,0.0,0.0,0.0,0.0,0.0,0.0,0.0,0.0,0.0,0.0,0.0,0.0,0.0,1.2168,1.1447,1.0322,0.9099,0.8078,0.7265,0.5816,0.4601,0.3814,0.2944,0.2183,0.1526,0.0981,0.0109,-0.109,-0.2039,-0.2996,-0.4049,-0.5285,-0.6307,-0.7195,-0.8306,-0.9046,-0.9495,-1.0377,-1.069,-1.0971,-1.2621,-1.3672,-1.4347,-1.4335,-1.4391,-1.4689,-1.5731,-1.6029,-1.6029,-1.56,-1.5897,-1.6474,-1.6622,-1.7028,-1.778,-1.8589,-1.8878,-1.9004,-1.9004,-1.9004,-1.8835,-1.8835,-1.8179,-1.7466,-1.6944,-1.6551,-1.6158,-1.5949,-1.6177,-1.677,-1.81,-1.9129,-1.9862,-1.9694,-1.9862,-1.9862,-1.9862,-1.9569,-1.9423,-1.9569,-1.9862,-2.0058,-2.0067,-2.0183,-1.9889,-1.9029,-1.8236,-1.7247,-1.5826,-1.5714,-1.5324,-1.4468,-1.4962,-1.5643,-1.6593,-1.7557,-1.9762,-2.2901,-2.3866,-2.482,0.0,0.0,0.0,0.0111,0.0,0.0,0.0,0.0,0.0,0.0,0.0,0.0,0.0,0.0,0.0,0.0,0.0,0.0,0.0,0.0,0.0,0.0,0.0,0.0,0.0,1.1439,1.0819,0.9532,0.8431,0.7334,0.6426,0.5217,0.3951,0.2613,0.1378,0.0436,-0.0327,-0.0654,-0.1526,-0.2724,-0.3152,-0.3997,-0.5036,-0.6084,-0.6996,-0.8,-0.9393,-1.0223,-1.0627,-1.143,-1.2236,-1.3067,-1.3986,-1.4965,-1.5623,-1.5599,-1.5698,-1.6029,-1.751,-1.8521,-1.9109,-1.7952,-1.751,-1.751,-1.7952,-1.8395,-1.8925,-2.0132,-2.0367,-2.0419,-2.0615,-2.0674,-2.0506,-2.0169,-1.9843,-1.9421,-1.8682,-1.8267,-1.7852,-1.7308,-1.8247,-1.9402,-1.9716,-2.0592,-2.1175,-2.1006,-2.1175,-2.1152,-2.1029,-2.0884,-2.0738,-2.1029,-2.1175,-2.1399,-2.1722,-2.1322,-2.0914,-2.0731,-1.9674,-1.859,-1.7596,-1.7323,-1.6673,-1.567,-1.6222,-1.6903,-1.7803,-1.9513,-2.1873,-2.4654,-2.5105,-2.5936,0.0,0.0,0.0,0.0,0.0,0.0,0.0,-0.0913,0.0,0.0,0.0,0.0,0.0,0.0,0.0,0.0,0.0,0.0,0.0,0.0,0.0,0.0,0.0,0.0,0.0,0.9543,0.9388,0.8669,0.7589,0.6555,0.5511,0.4405,0.2985,0.124,-0.0321,-0.1417,-0.207,-0.2506,-0.3268,-0.4246,-0.4362,-0.4992,-0.6176,-0.7005,-0.7947,-0.9116,-1.0652,-1.156,-1.1959,-1.26,-1.3794,-1.5252,-1.5252,-1.5855,-1.6857,-1.7036,-1.7255,-1.7573,-1.9505,-2.1029,-2.1732,-2.0008,-1.8983,-1.8709,-1.9423,-1.978,-2.0037,-2.1248,-2.1566,-2.1758,-2.2225,-2.2353,-2.2018,-2.1515,-2.1435,-2.1278,-2.0247,-1.991,-1.9716,-1.9065,-2.0592,-2.19,-2.1465,-2.2021,-2.2624,-2.2166,-2.2479,-2.2455,-2.219,-2.2021,-2.219,-2.2599,-2.2599,-2.2856,-2.3548,-2.2698,-2.2178,-2.2517,-2.1247,-2.0195,-1.9339,-1.8908,-1.8238,-1.7036,-1.745,-1.8132,-1.9017,-2.1272,-2.3651,-2.6122,-2.6395,-2.7313,0.0,-0.3219,-0.6471,0.0,0.0,0.0,-1.1435,-1.066,0.0,0.0,0.0,0.0,0.0,0.0,0.0,0.0,0.0,0.0,0.0,0.0,0.0,0.0,0.0,0.0,0.0,0.6345,0.7005,0.733,0.714,0.6261,0.4671,0.3056,0.1488,-0.0103,-0.1498,-0.2506,-0.3263,-0.4029,-0.4572,-0.4789,-0.5238,-0.6099,-0.7189,-0.8153,-0.9369,-1.0859,-1.2187,-1.2983,-1.3239,-1.4003,-1.5165,-1.6365,-1.6344,-1.6618,-1.7168,-1.8292,-1.8661,-1.9132,-2.228,-2.3488,-2.3344,-2.1029,-2.0154,-2.03,-2.1029,-2.1644,-2.2061,-2.2176,-2.2559,-2.3057,-2.3741,-2.3544,-2.3232,-2.371,-2.299,-2.2314,-2.2247,-2.1783,-2.1512,-2.2045,-2.3056,-2.3488,-2.2743,-2.3775,-2.4634,-2.4205,-2.4205,-2.4205,-2.4205,-2.3918,-2.3775,-2.4205,-2.4205,-2.4607,-2.5264,-2.4575,-2.4191,-2.4545,-2.3507,-2.2376,-2.0981,-2.1091,-2.0289,-1.8249,-1.837,-1.8855,-1.9761,-2.1411,-2.3425,-2.5706,-2.7341,-2.8955,-0.1449,-0.3249,-0.4928,0.0,0.0,0.0,0.0,-1.3079,0.0,0.0,0.0,0.0,0.0,0.0,0.0,0.0,0.0,0.0,0.0,0.0,0.0,0.0,0.0,0.0,0.0,0.0,0.0,0.4882,0.5464,0.5146,0.3855,0.1775,-0.0301,-0.2123,-0.3135,-0.4137,-0.4998,-0.5647,-0.608,-0.6305,-0.6512,-0.7179,-0.8208,-0.8936,-1.017,-1.1721,-1.3323,-1.424,-1.4766,-1.6262,-1.7266,-1.8015,-1.8015,-1.8389,-1.913,-1.9582,-2.0283,-2.1444,-2.3324,-2.4205,-2.4348,-2.2912,-2.19,-2.132,-2.219,-2.2504,-2.2527,-2.3114,-2.3602,-2.4152,-2.4661,-2.5039,-2.5039,-2.4873,-2.487,-2.4711,-2.4105,-2.3748,-2.3758,-2.4464,-2.4586,-2.4491,-2.4009,-2.475,-2.5516,-2.5516,-2.5516,-2.5374,-2.5204,-2.5204,-2.5204,-2.5204,-2.5374,-2.58,-2.6226,-2.5628,-2.5395,-2.5725,-2.5089,-2.3922,-2.2569,-2.2666,-2.1808,-1.9784,-1.9746,-1.9897,-2.0304,-2.2054,-2.4191,-2.651,-2.8482,-2.9928,-0.3324,0.0,0.0,0.0,0.0,0.0,0.0,0.0,0.0,0.0,0.0,0.0,0.0,0.0,0.0,0.0,0.0,0.0,0.0,0.0,0.0,0.0,0.0,0.0,0.0,0.0,0.0,0.0,0.3123,0.3362,0.252,0.054,-0.1579,-0.3955,-0.4867,-0.5755,-0.6619,-0.7266,-0.7697,-0.8019,-0.8126,-0.8603,-0.9336,-1.0128,-1.1272,-1.2808,-1.4324,-1.5578,-1.6719,-1.859,-1.9505,-1.9628,-1.9752,-2.0121,-2.0718,-2.0912,-2.1865,-2.3132,-2.4072,-2.4871,-2.5488,-2.4777,-2.3775,-2.2768,-2.3488,-2.3513,-2.3488,-2.4348,-2.4646,-2.5017,-2.566,-2.6299,-2.669,-2.6361,-2.6349,-2.6319,-2.5892,-2.6071,-2.6364,-2.6512,-2.6192,-2.5772,-2.5405,-2.5886,-2.6367,-2.665,-2.665,-2.6566,-2.6453,-2.6625,-2.6825,-2.6853,-2.6854,-2.714,-2.7745,-2.6948,-2.6702,-2.7048,-2.6556,-2.5545,-2.4106,-2.3921,-2.3068,-2.1345,-2.1033,-2.1127,-2.1477,-2.3197,-2.5104,-2.7083,-2.8875,-3.044,0.0,0.0,0.0,-1.5483,-1.6847,-1.8738,-2.5858,0.0,0.0,0.0,0.0,0.0,0.0,0.0,0.0,0.0,0.0,0.0,0.0,0.0,0.0,0.0,0.0,0.0,0.0,0.0,0.0,0.0,0.0,0.0737,0.0324,-0.0511,-0.2301,-0.5142,-0.6287,-0.7266,-0.8126,-0.8757,-0.9198,-0.9412,-0.9946,-1.0453,-1.0909,-1.1803,-1.2904,-1.4373,-1.5482,-1.7068,-1.9145,-2.0943,-2.1429,-2.1007,-2.1524,-2.1497,-2.1429,-2.2402,-2.3164,-2.4037,-2.5234,-2.6202,-2.6903,-2.6367,-2.5772,-2.5346,-2.5346,-2.5488,-2.5658,-2.6084,-2.5959,-2.5974,-2.6597,-2.6992,-2.7536,-2.8328,-2.7416,-2.657,-2.7544,-2.853,-2.9105,-2.8452,-2.8085,-2.7776,-2.7325,-2.7605,-2.7916,-2.7916,-2.7605,-2.7562,-2.8215,-2.8274,-2.8658,-2.9733,-2.8954,-2.8834,-3.0359,-2.8899,-2.8158,-2.8824,-2.8219,-2.7113,-2.5456,-2.4975,-2.4234,-2.2926,-2.1963,-2.2249,-2.3827,-2.4882,-2.6017,-2.7083,-2.8176,-3.0643,-1.0693,-1.1964,-1.4155,-1.8989,-2.1466,-2.3917,-2.8161,-2.9231,0.0,0.0,0.0,0.0,0.0,0.0,0.0,0.0,0.0,0.0,0.0,0.0,0.0,0.0,0.0,0.0,0.0,0.0,0.0,0.0,0.0,0.0,-0.2622,-0.3163,-0.4286,-0.6203,-0.7607,-0.8988,-1.0478,-1.1099,-1.1417,-1.1522,-1.1839,-1.2163,-1.2546,-1.3007,-1.3875,-1.5362,-1.6531,-1.8333,-2.0482,-2.1407,-2.234,-2.2956,-2.3076,-2.3554,-2.4121,-2.4391,-2.5325,-2.6407,-2.6946,-2.7643,-2.8444,-2.8305,-2.8165,-2.8165,-2.7605,-2.7184,-2.7014,-2.7465,-2.737,-2.725,-2.8506,-2.846,-2.8318,-2.9326,-2.9564,-2.9411,-2.9084,-2.9569,-3.0187,-3.0625,-2.9763,-2.8969,-2.9127,-2.8893,-2.8754,-2.931,-2.9139,-2.8972,-2.9371,-2.9752,-3.0033,-3.0241,-3.0415,-3.0795,-3.1344,-3.0931,-3.0581,-3.0103,-2.9851,-2.8956,-2.6911,-2.6584,-2.5765,-2.4646,-2.4031,-2.4449,-2.5825,-2.6595,-2.76,-2.9151,-2.9722,-3.1365,-1.3799,-1.5033,-1.6805,-2.1552,-2.4679,-2.7219,-2.9632,-3.0684,-3.018,0.0,0.0,0.0,0.0,0.0,0.0,0.0,0.0,0.0,0.0,0.0,0.0,0.0,0.0,0.0,0.0,0.0,0.0,0.0,0.0,0.0,-0.5751,-0.5737,-0.631,-0.7603,-0.8866,-1.0222,-1.1763,-1.2833,-1.3416,-1.3521,-1.3751,-1.3897,-1.3954,-1.4319,-1.5012,-1.6122,-1.7809,-1.9686,-2.1648,-2.2455,-2.3547,-2.4606,-2.4725,-2.5374,-2.6286,-2.6103,-2.7143,-2.8426,-2.8465,-2.9055,-2.9693,-2.9969,-2.9969,-2.9831,-2.9416,-2.8862,-2.8552,-2.9139,-2.9049,-2.9151,-3.0297,-3.0612,-3.0873,-3.1572,-3.2042,-3.2049,-3.1562,-3.11,-3.0937,-3.1853,-3.1047,-3.0241,-3.0376,-3.0002,-2.9863,-3.0277,-3.0197,-3.0338,-3.0468,-3.1077,-3.1525,-3.1892,-3.2036,-3.2304,-3.2833,-3.2707,-3.2166,-3.171,-3.1451,-3.0485,-2.8642,-2.7813,-2.6947,-2.6017,-2.5384,-2.5974,-2.7523,-2.7796,-2.8728,-3.0277,-3.0827,-3.2058,-1.5716,-1.7114,-1.8696,-2.3806,-2.6796,-2.903,-3.0951,0.0,0.0,0.0,0.0,0.0,0.0,0.0,0.0,0.0,0.0,0.0,0.0,0.0,0.0,0.0,0.0,0.0,0.0,0.0,0.0,0.0,0.0,-0.9097,-0.8935,-0.8285,-0.8397,-0.9267,-1.0117,-1.11,-1.2025,-1.3991,-1.5186,-1.5519,-1.5957,-1.575,-1.5209,-1.575,-1.6353,-1.6949,-1.9146,-2.1148,-2.297,-2.3971,-2.5023,-2.6028,-2.6263,-2.7087,-2.804,-2.7673,-2.874,-3.0251,-3.0055,-3.036,-3.093,-3.1374,-3.1238,-3.0794,-3.0827,-3.0552,-3.0415,-3.0827,-3.1189,-3.1635,-3.228,-3.3343,-3.4356,-3.505,-3.4579,-3.4232,-3.4728,-3.3186,-3.1629,-3.2116,-3.1871,-3.1408,-3.1374,-3.1374,-3.1238,-3.086,-3.1182,-3.1447,-3.1756,-3.2466,-3.3329,-3.4389,-3.3679,-3.3548,-3.505,-3.3785,-3.3219,-3.3495,-3.2722,-3.171,-3.0278,-2.8907,-2.7812,-2.7008,-2.6167,-2.6869,-2.8956,-2.8646,-2.9342,-3.0927,-3.1579,-3.2919,-2.0365,-2.3263,-2.5998,-3.1885,-3.2912,-3.3021,-3.4868,-3.3426,-3.122,0.0,0.0,0.0,0.0,0.0,0.0,0.0,0.0,0.0,0.0,0.0,0.0,0.0,0.0,0.0,0.0,0.0,0.0,0.0,0.0,-1.2441,-1.1421,-1.0722,-1.0605,-1.1175,-1.1948,-1.2901,-1.4055,-1.5254,-1.6521,-1.7878,-1.8081,-1.8081,-1.7776,-1.7674,-1.8824,-2.0726,-2.1293,-2.2784,-2.5087,-2.5188,-2.6138,-2.7663,-2.7895,-2.8743,-2.9945,-3.0317,-3.1192,-3.2145,-3.2413,-3.242,-3.2291,-3.2462,-3.2462,-3.2291,-3.2697,-3.2462,-3.2432,-3.3371,-3.3273,-3.3339,-3.4984,-3.5473,-3.5938,-3.6709,-3.7655,-3.7501,-3.3884,-3.4185,-3.4928,-3.4419,-3.3764,-3.3131,-3.2567,-3.2462,-3.2462,-3.2326,-3.2716,-3.3054,-3.3372,-3.3819,-3.4639,-3.6069,-3.5531,-3.5554,-3.6774,-3.5988,-3.5117,-3.4322,-3.3785,-3.2904,-3.1333,-3.0376,-2.9503,-2.8858,-2.9452,-2.9546,-2.939,-3.0357,-3.1348,-3.2505,-3.3168,-3.457,-2.0901,-2.5291,-2.935,-3.3205,-3.4158,-3.4194,-3.4664,-3.3974,-3.2485,-3.0273,0.0,0.0,0.0,0.0,0.0,0.0,0.0,0.0,0.0,0.0,0.0,0.0,0.0,0.0,0.0,0.0,0.0,0.0,0.0,-1.5678,-1.4606,-1.3602,-1.3224,-1.348,-1.4258,-1.5127,-1.5899,-1.7214,-1.8516,-1.9693,-2.0398,-2.0367,-1.9862,-1.9992,-2.1247,-2.3241,-2.2697,-2.4198,-2.6914,-2.6487,-2.75,-2.9387,-2.9501,-3.0403,-3.1483,-3.2064,-3.2918,-3.3688,-3.4192,-3.4037,-3.3807,-3.3807,-3.3941,-3.4074,-3.4037,-3.4074,-3.4148,-3.4862,-3.522,-3.5573,-3.6775,-3.7548,-3.8289,-3.8616,-3.9789,-4.0241,-3.7039,-3.7751,-3.8611,-3.6996,-3.5421,-3.4321,-3.3881,-3.3637,-3.3648,-3.3876,-3.4183,-3.4542,-3.5026,-3.5381,-3.6023,-3.6885,-3.6885,-3.7112,-3.7722,-3.7533,-3.7096,-3.6398,-3.5587,-3.4728,-3.388,-3.2493,-3.1498,-3.0973,-3.152,-3.1652,-3.095,-3.1788,-3.2796,-3.3974,-3.4542,-3.5971,-1.9862,-2.5217,-3.0156,-3.1959,-3.3498,-3.4255,-3.3194,-3.3906,-3.4015,0.0,0.0,0.0,0.0,0.0,0.0,0.0,0.0,0.0,0.0,0.0,0.0,0.0,0.0,0.0,0.0,0.0,0.0,0.0,0.0,0.0,-1.8049,-1.672,-1.5877,-1.561,-1.6644,-1.7266,-1.7624,-1.9488,-2.0758,-2.1379,-2.2635,-2.2702,-2.1969,-2.2869,-2.4026,-2.5209,-2.4152,-2.5667,-2.8707,-2.8019,-2.8981,-3.108,-3.1191,-3.1858,-3.2847,-3.3604,-3.4231,-3.4884,-3.5614,-3.5664,-3.5269,-3.5269,-3.5494,-3.5756,-3.5532,-3.5664,-3.5926,-3.6043,-3.694,-3.7934,-3.8255,-3.9677,-4.0881,-4.043,-4.1628,-4.2518,-4.1816,-4.207,-4.1801,-3.901,-3.6875,-3.5327,-3.5175,-3.4966,-3.4832,-3.5421,-3.5818,-3.6195,-3.6587,-3.6921,-3.7335,-3.7547,-3.7884,-3.8306,-3.8678,-3.8927,-3.9016,-3.8739,-3.756,-3.6774,-3.6615,-3.4497,-3.3442,-3.3695,-3.3562,-3.343,-3.3268,-3.3315,-3.3981,-3.5472,-3.5761,-3.7142,-2.2122,-2.6071,-2.9926,-3.5948,-3.6986,-3.6467,-3.645,-3.5684,-3.4768,-3.4198,-3.7716,0.0,0.0,0.0,0.0,0.0,0.0,0.0,0.0,0.0,0.0,0.0,0.0,0.0,0.0,0.0,0.0,0.0,0.0,0.0,-2.0472,-1.9764,-1.8353,-1.6064,-1.7563,-1.8559,-1.9054,-2.0721,-2.2028,-2.3263,-2.47,-2.519,-2.4981,-2.7208,-2.8446,-2.8609,-2.7239,-2.8338,-3.1096,-3.0474,-3.0929,-3.2079,-3.252,-3.3055,-3.3773,-3.5263,-3.5817,-3.6017,-3.7289,-3.7188,-3.68,-3.7018,-3.7148,-3.7277,-3.7446,-3.7446,-3.7439,-3.8341,-3.891,-3.9596,-4.0559,-4.1275,-4.1667,-4.1925,-4.3547,-4.4668,-4.3693,-4.3377,-4.2488,-3.921,-3.8052,-3.7287,-3.6306,-3.6149,-3.6331,-3.6882,-3.732,-3.7776,-3.7916,-3.8134,-3.8969,-4.0284,-3.9673,-3.9927,-4.1562,-4.0887,-4.0073,-3.9761,-3.8209,-3.7184,-3.6869,-3.5198,-3.5561,-3.852,-3.7712,-3.6644,-3.5732,-3.5717,-3.6147,-3.6775,-3.707,-3.8923,-2.2122,-2.4958,-2.8257,-3.4123,-3.6715,-3.7749,-3.7201,-3.7329,-3.7737,-3.857,-4.0533,-4.1647,0.0,0.0,0.0,0.0,0.0,0.0,0.0,0.0,0.0,0.0,0.0,0.0,0.0,0.0,0.0,0.0,0.0,0.0,0.0,-2.2637,-2.1144,-1.9371,-2.0043,-2.0662,-2.124,-2.2743,-2.4199,-2.56,-2.6995,-2.7867,-2.8348,-3.0953,-3.1783,-3.1175,-3.0372,-3.1107,-3.2832,-3.1765,-3.2331,-3.3868,-3.4041,-3.4343,-3.4793,-3.6557,-3.7147,-3.7195,-3.8639,-3.8853,-3.8429,-3.8302,-3.8557,-3.881,-3.8853,-3.8979,-3.9276,-4.021,-4.0744,-4.13,-4.2454,-4.2988,-4.3254,-4.3254,-4.4855,-4.6003,-4.5143,-4.4972,-4.4187,-4.1383,-4.0175,-3.9307,-3.8427,-3.8174,-3.8543,-3.9505,-3.9926,-4.0137,-4.0437,-3.9824,-3.9899,-4.1017,-4.1242,-4.1604,-4.2334,-4.237,-4.1819,-4.0863,-3.9783,-3.8848,-3.8609,-3.8047,-3.8637,-4.059,-3.9874,-3.9141,-3.859,-3.855,-3.8996,-3.9581,-3.9928,-4.1272,-2.2136,-2.4237,-2.6989,-3.1763,-3.5206,-3.751,-3.7309,-3.8739,-4.0587,-4.2268,-4.2661,-4.2918,0.0,0.0,0.0,0.0,0.0,0.0,0.0,0.0,0.0,0.0,0.0,0.0,0.0,0.0,0.0,0.0,0.0,0.0,0.0,0.0,0.0,-2.2456,-2.249,-2.2695,-2.3236,-2.4752,-2.6261,0.0,-2.9511,-3.0704,-3.1488,-3.3809,-3.441,-3.3551,-3.3256,-3.3684,-3.4489,-3.3506,-3.3977,-3.547,-3.5576,-3.5576,-3.5756,-3.7512,-3.805,-3.8312,-3.9684,-4.0186,-4.0068,-3.9818,-4.0068,-4.061,-4.0317,-4.0566,-4.116,-4.1884,-4.2465,-4.3204,-4.43,-4.4839,-4.5244,-4.5244,-4.643,-4.7189,-4.65,-4.6466,-4.5978,-4.3652,-4.2228,-4.1124,-4.053,-4.0537,-4.0852,-4.1632,-4.1916,-4.2203,-4.2756,-4.1658,-4.1114,-4.2123,-4.2897,-4.3425,-4.3427,-4.3836,-4.3465,-4.2329,-4.1397,-4.072,-4.0826,-4.1288,-4.1687,-4.2163,-4.1687,-4.1614,-4.1451,-4.1266,-4.148,-4.2124,-4.2446,-4.3201,-2.3783,-2.5616,-2.7819,-3.2501,-3.373,-3.4588,-3.7785,-3.9764,-4.1499,-4.3692,-4.4202,-4.3858,-4.2443,0.0,0.0,0.0,0.0,0.0,0.0,0.0,0.0,0.0,0.0,0.0,0.0,0.0,0.0,0.0,0.0,0.0,0.0,0.0,0.0,-2.3272,-2.3788,-2.4039,-2.3987,-2.6154,-2.7698,0.0,-3.1942,-3.347,-3.3563,-3.5122,-3.6126,-3.6658,-3.5546,-3.5609,-3.6309,-3.6697,-3.6641,-3.6413,-3.6884,-3.6987,-3.6921,-3.7933,-3.869,-3.9434,-4.0116,-4.095,-4.1797,-4.1842,-4.2087,-4.2284,-4.2284,-4.2284,-4.2636,-4.365,-4.428,-4.5068,-4.6068,-4.6654,-4.7234,-4.8351,-4.8766,-4.8715,-4.7902,-4.7704,-4.6903,-4.4507,-4.3074,-4.2132,-4.1765,-4.2615,-4.2933,-4.1835,-4.2244,-4.3274,-4.4312,-4.3839,-4.3762,-4.5056,-4.4671,-4.4909,-4.6442,-4.5552,-4.4706,-4.4706,-4.2739,-4.1964,-4.287,-4.366,-4.4296,-4.4572,-4.4627,-4.4444,-4.4078,-4.331,-4.2926,-4.3086,-4.3086,-4.3831,-1.9672,-2.1531,-2.4261,-2.7235,-3.0096,-3.2898,-3.5686,-3.772,-3.9963,-4.3429,-4.4298,-4.4261,-4.3441,-4.3918,0.0,0.0,0.0,0.0,0.0,0.0,0.0,0.0,0.0,0.0,0.0,0.0,0.0,0.0,0.0,0.0,0.0,0.0,0.0,0.0,-2.5673,-2.55,-2.5363,-2.7209,-2.8703,-3.0074,-3.306,-3.5448,-3.7037,-3.8771,-3.9457,-3.9281,-3.8169,-3.812,-3.8661,-3.8512,-3.8317,-3.8256,-3.826,-3.816,-3.83,-3.9779,-4.0692,-4.1316,-4.2652,-4.3345,-4.382,-4.4317,-4.4554,-4.4771,-4.5559,-4.5921,-4.6237,-4.7037,-4.7527,-4.7836,-4.8337,-4.8625,-4.9041,-5.0134,-5.0405,-5.0396,-4.9953,-4.8974,-4.7767,-4.6779,-4.5039,-4.3653,-4.3653,-4.4507,-4.5075,-4.4716,-4.5685,-4.6473,-4.6307,-4.5718,-4.5622,-4.6687,-4.6276,-4.6228,-4.7354,-4.6678,-4.5811,-4.4807,-4.3594,-4.3798,-4.5462,-4.6381,-4.6707,-4.6135,-4.6157,-4.6275,-4.6408,-4.5384,-4.5229,-4.5901,-4.556,-4.5851,-1.8145,-1.9518,-2.2018,-2.4148,-2.747,-3.0999,-3.4082,-3.6287,-3.892,-4.3197,-4.4274,-4.4268,-4.3601,-4.3692,0.0,0.0,0.0,0.0,0.0,0.0,0.0,0.0,0.0,0.0,0.0,0.0,0.0,0.0,0.0,0.0,0.0,0.0,0.0,0.0,-2.8366,-2.7859,-2.7385,-2.9046,-3.0514,-3.1741,-3.4871,-3.7667,-4.0205,-4.19,-4.2363,-4.1564,-4.0519,-4.0269,-4.0529,-3.9851,-3.9675,-3.9697,-3.9549,-3.9549,-3.975,-4.1048,-4.19,-4.2555,-4.4186,-4.492,-4.5302,-4.6157,-4.6503,-4.67,-4.7761,-4.8352,-4.8772,-4.9778,-5.0042,-5.0028,-5.0434,-5.081,-5.1346,-5.201,-5.201,-5.1911,-5.1696,-5.0209,-4.8895,-4.8597,-4.7186,-4.5929,-4.5699,-4.6789,-4.7561,-4.7412,-4.8592,-4.9195,-4.8299,-4.7658,-4.7745,-4.8474,-4.8162,-4.806,-4.8635,-4.7848,-4.6942,-4.5521,-4.5051,-4.5928,-4.8017,-4.8495,-4.8495,-4.7977,-4.7977,-4.8125,-4.8372,-4.7742,-4.7914,-4.872,-4.8427,-4.8317,-2.1312,-2.1538,-2.2613,-2.5328,-2.6557,-2.8416,-3.3591,-3.6336,-3.8974,-4.3385,-4.4291,-4.388,-4.2285,-4.3036,0.0,0.0,0.0,0.0,0.0,0.0,0.0,0.0,0.0,0.0,0.0,0.0,0.0,0.0,0.0,0.0,0.0,0.0,0.0,0.0,-3.1912,-3.1208,-2.9926,-3.1936,-3.3388,-3.4209,-3.772,-4.0595,-4.28,-4.3984,-4.4105,-4.3512,-4.2363,-4.1991,-4.1898,-4.1092,-4.0807,-4.0807,-4.1049,-4.1239,-4.1187,-4.0902,-4.1629,-4.287,-4.381,-4.4896,-4.6032,-4.6998,-4.747,-4.7789,-4.8399,-4.8705,-4.94,-5.1338,-5.1572,-5.1521,-5.2287,-5.345,-5.435,-5.4146,-5.3759,-5.3196,-5.2404,-5.135,-5.0341,-4.9662,-4.9518,-4.9155,-4.7849,-4.9558,-5.0579,-4.9158,-5.0229,-5.0762,-4.9913,-5.0012,-5.0535,-5.105,-5.042,-5.032,-5.0835,-4.9293,-4.818,-4.7681,-4.7676,-4.8412,-5.0322,-4.988,-4.9935,-5.0257,-5.0257,-5.0297,-5.0297,-5.0297,-5.0648,-5.1038,-5.1038,-5.1038,-1.8224,-1.9728,-2.1691,-2.2724,-2.5269,-2.8421,-3.1757,-3.4238,-3.7041,-4.1212,-4.175,-4.1604,-4.1914,-4.2398,0.0,0.0,0.0,0.0,0.0,0.0,0.0,0.0,0.0,0.0,0.0,0.0,0.0,0.0,0.0,0.0,0.0,0.0,0.0,0.0,-3.3903,-3.3096,-3.2361,-3.3638,-3.4847,-3.6132,-4.0266,-4.3083,-4.4532,-4.5477,-4.5386,-4.4552,-4.376,-4.3312,-4.3131,-4.2639,-4.2547,-4.2639,-4.2363,-4.2363,-4.2709,-4.4038,-4.5092,-4.598,-4.7984,-4.8748,-4.9074,-5.0092,-5.072,-5.1164,-5.214,-5.2912,-5.3697,-5.4306,-5.439,-5.4442,-5.5384,-5.5739,-5.6129,-5.6746,-5.6196,-5.5773,-5.6269,-5.4786,-5.3209,-5.1987,-5.1305,-5.0666,-5.0241,-5.0486,-5.1279,-5.2529,-5.2339,-5.2381,-5.2556,-5.2175,-5.1601,-5.1282,-5.1117,-5.1167,-5.1275,-4.9947,-4.9088,-4.8526,-4.9975,-5.0699,-5.0377,-5.1174,-5.1458,-5.1222,-5.0659,-5.1083,-5.2476,-5.1282,-5.1364,-5.2289,-5.2083,-5.1827,-1.8828,-2.0382,-2.1725,-2.2438,-2.4653,-2.735,-2.994,-3.1991,-3.4343,-3.7845,-3.8335,-3.8612,-3.9889,-4.1752,-4.3888,-4.6304,-4.7215,0.0,0.0,0.0,0.0,0.0,0.0,0.0,0.0,0.0,0.0,0.0,0.0,0.0,0.0,0.0,0.0,-3.8431,-3.6745,-3.5559,-3.4816,-3.5816,-3.7748,-4.0603,-4.3433,-4.5448,-4.6342,-4.6791,-4.6736,-4.6448,-4.5758,-4.5691,-4.5876,-4.557,-4.5199,-4.4808,-4.4537,-4.4572,-4.4976,-4.6109,-4.7132,-4.8337,-5.0404,-5.0934,-5.0749,-5.1812,-5.26,-5.3306,-5.4212,-5.5166,-5.6122,-5.643,-5.629,-5.6467,-5.8493,-5.8152,-5.7788,-5.9238,-5.8212,-5.7313,-5.8143,-5.6783,-5.5042,-5.3846,-5.2812,-5.2107,-5.1507,-5.1671,-5.2597,-5.4402,-5.3789,-5.3453,-5.4628,-5.3915,-5.3262,-5.3147,-5.2983,-5.2631,-5.2348,-5.1428,-5.0583,-4.961,-5.1417,-5.2482,-5.2187,-5.2792,-5.3018,-5.2968,-5.2078,-5.2449,-5.3651,-5.2587,-5.2687,-5.3958,-5.3953,-5.3811,-2.1868,-2.25,-2.2369,-2.3675,-2.4453,-2.5618,-2.8281,-2.9713,-3.1179,-3.3714,-3.4309,-3.4923,-3.6645,-4.0812,-4.4544,-4.6406,-4.8165,0.0,0.0,0.0,0.0,0.0,0.0,0.0,0.0,0.0,0.0,0.0,0.0,0.0,0.0,0.0,0.0,-4.2557,-4.0181,-3.8429,-3.7576,-3.8626,-4.1616,-4.6599,-4.7085,-4.7685,-4.8391,-4.822,-4.8474,-4.8932,-4.8393,-4.8716,-4.9641,-4.9458,-4.8492,-4.7131,-4.7399,-4.7634,-4.7811,-4.7424,-4.841,-5.0082,-5.149,-5.1615,-5.1464,-5.2518,-5.3537,-5.4594,-5.4919,-5.5981,-5.7204,-5.7906,-5.7702,-5.8042,-6.1366,-6.0676,-5.9578,-6.1118,-5.9901,-5.8348,-5.8706,-5.7704,-5.631,-5.5145,-5.4366,-5.3528,-5.2168,-5.3051,-5.429,-5.5256,-5.4696,-5.4491,-5.5809,-5.5173,-5.4996,-5.6072,-5.5459,-5.4665,-5.3693,-5.3324,-5.2507,-5.0623,-5.2249,-5.3818,-5.4995,-5.4488,-5.4335,-5.4948,-5.4321,-5.3967,-5.4162,-5.4084,-5.4675,-5.5695,-5.6198,-5.6481,-1.8152,-1.9726,-2.1036,-2.0959,-2.4172,-2.7423,-2.7867,-2.8003,-2.8582,-3.0491,-3.0742,-3.1519,-3.4478,-3.6976,-3.9972,-4.4382,-4.7511,-4.927,0.0,0.0,0.0,0.0,0.0,0.0,0.0,0.0,0.0,0.0,0.0,0.0,0.0,0.0,-4.7576,-4.528,-4.2628,-4.1424,-4.1729,-4.1908,-4.4109,-4.8279,-4.9156,-4.9713,-5.0021,-5.0513,-5.0739,-5.0575,-5.0878,-5.1032,-5.1159,-5.072,-5.0365,-4.9981,-4.9804,-4.9745,-5.0011,-5.1282,-5.2146,-5.2894,-5.4334,-5.4662,-5.4349,-5.4457,-5.5724,-5.7212,-5.6872,-5.8161,-5.9771,-5.9769,-6.0286,-6.0967,-6.1877,-6.2236,-6.2474,-6.2763,-6.224,-6.1659,-6.1362,-6.0338,-5.8916,-5.6803,-5.5561,-5.5,-5.5855,-5.5071,-5.5204,-5.7435,-5.6766,-5.6131,-5.6041,-5.5717,-5.5647,-5.5693,-5.582,-5.5603,-5.4674,-5.4343,-5.3825,-5.248,-5.3947,-5.4731,-5.5036,-5.4497,-5.4652,-5.5224,-5.3606,-5.3657,-5.5182,-5.4915,-5.5327,-5.6565,-5.7334,-5.7734,-1.8275,-2.046,-2.1853,-1.9856,-2.2494,-2.5584,-2.5516,-2.5682,-2.6039,-2.6782,-2.7374,-2.896,-3.2945,-3.3933,-3.6132,-4.2464,0.0,-4.8216,-4.9257,0.0,0.0,0.0,0.0,0.0,0.0,0.0,0.0,0.0,0.0,0.0,0.0,0.0,-5.0904,-4.6997,-4.5082,-4.403,-4.3941,-4.5717,-4.8229,-5.1423,-5.2006,-5.226,-5.2187,-5.3181,-5.3226,-5.2596,0.0,-5.3898,-5.4106,-5.3931,-5.3304,-5.2497,-5.2584,-5.1987,-5.1513,-5.3188,-5.3999,-5.4297,-5.6024,-5.6426,-5.6368,-5.6826,-5.7938,-5.9318,-5.9511,-6.0592,-6.1748,-6.1526,-6.2188,-6.3293,-6.4552,-6.4639,-6.466,-6.5619,-6.4681,-6.3456,-6.2995,-6.2124,-6.0784,-5.869,-5.7103,-5.6584,-5.8226,-5.7419,-5.7282,-5.9402,-5.8572,-5.7497,-5.7365,-5.7024,-5.6822,-5.6787,-5.6993,-5.678,-5.5823,-5.5322,-5.4768,-5.431,-5.4749,-5.5443,-5.5988,-5.4692,-5.4557,-5.5478,-5.367,-5.3485,-5.4948,-5.5176,-5.5788,-5.6973,-5.7996,-5.8576,-1.9242,-2.1808,-2.2839,-1.9849,-2.0914,-2.2783,-2.3094,-2.3631,-2.4014,-2.3616,-2.4547,-2.6869,-3.1328,-3.1336,-3.3003,-4.0203,-4.3165,-4.5632,0.0,0.0,-5.4497,0.0,0.0,0.0,0.0,0.0,0.0,0.0,0.0,0.0,0.0,-5.7475,-5.4187,-4.89,-4.7739,-4.6933,-4.6484,-5.0215,-5.3013,-5.4721,-5.5187,-5.5121,-5.4654,-5.5824,-5.5762,0.0,0.0,-5.6823,-5.7285,-5.746,-5.6428,-5.4944,-5.5288,-5.4437,-5.3151,-5.466,-5.5202,-5.556,-5.7446,-5.8158,-5.8447,-5.9573,-6.052,-6.135,-6.2265,-6.2909,-6.3479,-6.3584,-6.4126,-6.5276,-6.7603,-6.7228,-6.6788,-6.8499,-6.7129,-6.5123,-6.4498,-6.3547,-6.2356,-6.078,-5.933,-5.8624,-5.9869,-5.9733,-5.9781,-6.0917,-5.9808,-5.8858,-5.8791,-5.8309,-5.8086,-5.8006,-5.831,-5.7899,-5.6509,-5.5963,-5.5719,-5.5655,-5.5462,-5.5832,-5.6995,-5.5253,-5.4829,-5.5726,-5.4253,-5.3681,-5.4488,-5.5066,-5.6272,-5.7573,-5.8655,-5.9306,-1.6593,-1.8743,-2.0794,-2.0545,-2.2049,-2.3624,-2.3863,-2.3731,-2.3493,-2.3502,-2.372,-2.4882,-2.8252,-2.9113,-3.0989,-3.6228,-3.7497,-3.9925,-4.6043,-5.1374,-5.5115,-5.6515,0.0,0.0,0.0,0.0,0.0,0.0,0.0,0.0,0.0,-5.7966,-5.5543,-5.2845,-5.0741,-5.0954,-5.3724,-5.6155,-5.6841,-5.5918,-5.8054,-5.8395,-5.7251,-5.8324,-5.8361,0.0,0.0,0.0,-5.8587,-5.8316,-5.7999,-5.7662,-5.7747,-5.7536,-5.7093,-5.7599,-5.7831,-5.8273,-5.9839,-6.1371,-6.2654,-6.2736,-6.358,-6.4453,-6.402,-6.4607,-6.5596,-6.6223,-6.6906,-6.7567,-6.8004,-6.9049,-6.9634,-6.879,-6.8819,-6.8661,-6.6895,-6.5802,-6.459,-6.3327,-6.2815,-6.2315,-6.1342,-6.1746,-6.1839,-6.0592,-6.0707,-6.0164,-5.8348,-5.851,-5.8412,-5.7666,-5.861,-5.8353,-5.6312,-5.6862,-5.7128,-5.6322,-5.6252,-5.627,-5.6078,-5.6704,-5.6453,-5.5144,-5.4603,-5.4272,-5.4013,-5.5361,-5.6675,-5.8362,-5.8554,-5.9329,-1.5451,-1.7316,-1.9374,-2.0312,-2.1472,-2.277,-2.3934,-2.3704,-2.3455,-2.4001,-2.4199,-2.5541,-2.9257,-2.8777,-3.0079,-3.7168,-3.7726,-3.9254,-4.4945,-5.0798,-5.4869,-5.5803,-5.8022,0.0,0.0,0.0,0.0,0.0,0.0,0.0,0.0,-5.9081,-5.6929,-5.6022,-5.4382,-5.5129,-5.8412,-5.9244,-5.9523,-5.9283,-6.0421,-6.051,-5.9837,-6.0886,-6.0618,0.0,0.0,0.0,-5.98,-5.9721,-5.9483,-5.9225,-5.9306,-5.9144,-5.8899,-5.9144,-5.9757,-6.0759,-6.1423,-6.2837,-6.4389,-6.5151,-6.5694,-6.5989,-6.6492,-6.7556,-6.8712,-6.8777,-6.9417,-7.0131,-7.0584,-7.115,-7.1606,-7.1337,-7.1052,-7.0583,-6.9349,-6.7691,-6.6317,-6.5704,-6.4951,-6.4153,-6.3377,-6.3517,-6.3161,-6.1742,-6.1564,-6.1017,-5.9654,-5.9427,-5.9067,-5.8118,-5.9014,-5.8703,-5.62,-5.6707,-5.7274,-5.7431,-5.6864,-5.644,-5.6376,-5.6866,-5.6108,-5.4012,-5.4094,-5.4057,-5.397,-5.5427,-5.6883,-5.8477,-5.8836,-5.983,-1.6021,0.0,-2.0388,-2.1769,-2.2572,-2.3505,0.0,-2.4644,-2.4366,-2.4848,-2.5186,-2.6535,-3.0154,-2.8991,-2.9785,-3.7219,-3.7605,-3.872,-4.3716,-4.8907,-5.2832,-5.4569,-5.7323,0.0,0.0,0.0,0.0,0.0,0.0,0.0,0.0,-6.0698,-5.8997,-5.85,-5.7427,-5.808,-6.0829,-6.0864,-6.1369,-6.2224,-6.2588,-6.2498,-6.2273,-6.3146,0.0,0.0,0.0,0.0,-6.095,-6.1422,-6.0989,-6.0345,-6.0881,-6.0661,-5.9944,-6.0113,-6.1185,-6.2561,-6.3048,-6.4421,-6.6117,-6.7409,-6.7685,-6.7539,-6.863,-7.0315,-7.1692,-7.1297,-7.1864,-7.2565,-7.3146,-7.3196,-7.3274,-7.373,-7.312,-7.2261,-7.1646,-6.99,-6.8419,-6.8108,-6.6721,-6.5526,-6.4952,-6.4644,-6.4126,-6.3006,-6.2356,-6.1807,-6.125,-6.0572,-5.9767,-5.8831,-5.9247,-5.8654,-5.6477,-5.6796,-5.7288,-5.7921,-5.7212,-5.6645,-5.6211,-5.6501,-5.5485,-5.326,-5.3352,-5.3586,-5.4125,-5.5536,-5.7173,-5.8531,-5.9202,-6.0078,0.0,-2.3026,-2.5827,-2.7299,-2.8005,-2.8279,-2.7716,-2.7266,0.0,-2.6352,-2.6319,-2.6947,-2.8792,-2.9137,-3.0141,-3.3265,-3.3729,-3.5748,-4.16,-4.4128,0.0,0.0,-5.6235,0.0,0.0,0.0,0.0,0.0,0.0,0.0,0.0,-6.2576,-6.2221,-6.0142,-5.8843,-5.881,-6.0072,-6.1047,-6.2195,-6.3439,-6.4703,-6.4966,-6.4515,-6.4585,0.0,0.0,0.0,0.0,0.0,-6.3373,-6.2814,-6.167,-6.2926,-6.236,-6.0866,-6.1165,-6.2169,-6.3489,-6.5106,-6.6898,-6.8688,-6.9926,-7.0216,-7.0116,-6.9931,-7.1923,-7.4181,-7.3819,-7.4316,-7.475,-7.4282,-7.4526,-7.4797,-7.4596,-7.4486,-7.436,-7.3966,-7.2886,-7.1763,-7.0337,-6.8772,-6.7051,-6.5644,-6.5053,-6.448,-6.3734,-6.3267,-6.2682,-6.2196,-6.125,-6.0458,-5.9535,-5.8977,-5.8277,-5.7113,-5.7636,-5.7772,-5.7145,-5.7865,-5.7389,-5.5222,-5.5895,-5.5593,-5.4047,-5.3216,-5.3426,-5.4377,-5.6238,-5.7773,-5.8605,-6.0006,-6.0204,-2.2147,-2.5163,-2.7357,-2.8257,-3.0253,-3.1618,-3.0532,-2.9323,-2.8259,-2.7455,-2.7144,-2.7572,-2.9599,-3.0198,-3.1865,-3.6517,-3.6925,-3.8053,-4.2397,-4.488,0.0,-5.1749,0.0,0.0,0.0,0.0,0.0,0.0,0.0,0.0,0.0,-6.1644,-6.1264,-6.2419,-6.2802,-6.316,-6.3332,-6.3541,-6.4263,-6.5545,-6.591,-6.5951,-6.5696,-6.5539,0.0,0.0,0.0,0.0,0.0,-6.4971,-6.5174,-6.53,-6.5839,-6.5485,-6.4645,-6.5084,-6.589,-6.7015,-6.7926,-6.9381,-7.0961,-7.1361,-7.2167,-7.2835,-7.2364,-7.3932,-7.5909,-7.5805,-7.6518,-7.7363,-7.7387,-7.6772,-7.6377,-7.7737,-7.7153,-7.6408,-7.6298,-7.5158,-7.3618,-7.1399,-6.9511,-6.7571,-6.5052,-6.419,-6.3449,-6.2191,-6.2138,-6.1763,-6.0509,-6.075,-6.034,-5.8689,-5.8604,-5.861,-5.8412,-5.7565,-5.745,-5.8634,-5.8526,-5.7607,-5.5964,-5.5708,-5.4873,-5.3457,-5.301,-5.3262,-5.4638,-5.5325,-5.6641,-5.8229,-5.9394,-5.9783,-2.6865,-2.9825,-3.2113,-3.2866,-3.4807,-3.6075,-3.4196,-3.2263,-3.0455,-2.9031,-2.8149,-2.8283,-3.0434,-3.0859,-3.2545,-3.7999,-3.8133,-3.923,-4.3944,-4.5941,0.0,-5.1124,0.0,0.0,0.0,0.0,0.0,0.0,0.0,0.0,0.0,-6.2234,-6.2366,-6.4501,-6.4453,-6.4791,-6.5592,-6.4799,-6.5349,-6.7088,-6.695,-6.6804,-6.6624,-6.6343,0.0,0.0,0.0,0.0,0.0,-6.7132,-6.75,-6.7303,-6.8127,-6.7912,-6.7288,-6.7502,-6.8387,-6.9395,-6.9764,-7.1011,-7.2538,-7.3015,-7.3916,-7.4804,-7.4673,-7.6484,-7.8497,-7.8277,-7.855,-7.9029,-7.9396,-7.8596,-7.8053,-7.9867,-7.9345,-7.8485,-7.8421,-7.7227,-7.5378,-7.2738,-7.0713,-6.8383,-6.5091,-6.4019,-6.3104,-6.1607,-6.1798,-6.147,-5.9777,-6.0592,-6.0503,-5.8344,-5.8118,-5.8328,-5.8678,-5.7553,-5.7499,-5.8981,-5.8441,-5.7688,-5.6341,-5.5078,-5.4261,-5.3654,-5.2705,-5.3001,-5.4711,-5.4525,-5.5695,-5.76,-5.8411,-5.8442,-3.4457,-3.7954,-4.1155,-4.2206,-4.2659,-4.2059,-3.9106,-3.623,-3.3569,-3.1244,-2.9621,-2.9252,-3.1318,-3.1102,-3.2037,-3.6609,-3.6399,-3.822,-4.5751,-4.648,-4.7958,0.0,0.0,0.0,0.0,0.0,0.0,0.0,0.0,0.0,0.0,-6.4831,-6.6426,-6.6223,-6.3031,-6.2929,-6.6291,-6.4394,-6.495,-6.8066,-6.7891,-6.7632,-6.7243,-6.7108,-6.695,0.0,0.0,0.0,0.0,-6.9698,-6.9667,-6.7029,-6.9644,-6.9578,-6.806,-6.8129,-6.8955,-7.0265,-7.0545,-7.1794,-7.3603,-7.4991,-7.5478,-7.5825,-7.6593,-7.9459,-8.2289,-8.1465,-8.0437,-7.9663,-8.0065,-7.9891,-7.9873,-8.0517,-8.0685,-8.062,-8.0225,-7.8741,-7.6953,-7.4723,-7.2381,-6.956,-6.5933,-6.4614,-6.3705,-6.2383,-6.2381,-6.1969,-6.0427,-6.1016,-6.0779,-5.8951,-5.7643,-5.7161,-5.751,-5.7968,-5.8088,-5.7481,-5.7724,-5.7473,-5.6155,-5.4056,-5.3568,-5.4829,-5.2667,-5.2703,-5.4482,-5.3982,-5.5147,-5.75,-5.6362,-5.5703,-4.0782,-4.462,-4.7655,-4.856,-4.8319,-4.6992,0.0,0.0,-3.7215,-3.3595,-3.1549,-3.0739,-3.1923,-3.2234,-3.3653,-3.7632,-3.8268,-3.9849,-4.4182,-4.661,-4.9107,0.0,0.0,0.0,0.0,0.0,0.0,0.0,0.0,0.0,0.0,-6.6298,-6.6962,-6.4681,-6.4704,-6.5354,-6.6577,-6.5823,-6.6486,-6.8602,-6.8266,-6.8032,-6.7927,-6.7593,-6.7389,-6.7285,0.0,0.0,0.0,-7.1465,-7.2122,-7.19,-7.2618,-7.2418,-7.1725,-7.1933,-7.2142,-7.242,-7.2765,-7.4085,-7.5691,-7.6181,-7.7866,-7.9977,-8.1165,-8.2908,-8.4363,-8.3644,-8.3734,-8.408,-8.3918,-8.294,-8.2441,-8.4049,-8.3525,-8.2591,-8.226,-8.0942,-7.8666,-7.471,-7.1652,-6.836,-6.4345,-6.2637,-6.1317,-5.9749,-6.0074,-5.9838,-5.7898,-5.8777,-5.9036,-5.7508,-5.7274,-5.7858,-5.9403,-5.8503,-5.8203,-5.875,-5.8042,-5.702,-5.5654,-5.4405,-5.3359,-5.2398,-5.2643,-5.2811,-5.3037,-5.3948,-5.4956,-5.6079,-5.5394,-5.5465,-4.5065,-4.9139,-5.2125,-5.2915,-5.2233,-5.0442,-4.6954,0.0,-3.9381,-3.5125,-3.2406,-3.0932,-3.1358,-3.1999,-3.3919,-3.853,-3.9806,-4.184,-4.6598,-4.9182,-5.1663,-5.4608,0.0,0.0,0.0,0.0,0.0,0.0,0.0,0.0,-6.4831,-6.7277,-6.7799,-6.5977,-6.6227,-6.6777,-6.7693,-6.6874,-6.73,-6.8973,-6.8715,-6.8917,-6.9391,-6.8397,-6.8887,-7.0465,-7.0493,0.0,0.0,-7.3357,-7.3908,-7.3785,-7.3981,-7.4002,-7.3869,-7.3805,-7.4155,-7.4643,-7.4213,-7.5678,-7.7713,-7.784,-8.0166,-8.3071,-8.3787,-8.4427,-8.4835,-8.4774,-8.5044,-8.5437,-8.562,-8.5069,-8.4813,-8.6162,-8.5554,-8.4637,-8.4147,-8.2084,-7.9308,-7.5479,-7.2163,-6.8521,-6.4015,-6.2392,-6.1029,-5.8969,-5.9346,-5.9109,-5.7119,-5.8059,-5.8491,-5.7457,-5.73,-5.7782,-5.8817,-5.8593,-5.8459,-5.8509,-5.7417,-5.6359,-5.5199,-5.3874,-5.2686,-5.1985,-5.2567,-5.29,-5.2463,-5.3622,-5.4275,-5.4649,-5.3935,-5.4296,-4.7821,-5.1757,-5.4853,-5.5358,-5.4732,-5.305,-4.9582,0.0,-4.1041,-3.6294,-3.2786,-3.0375,-3.0323,-3.1107,-3.3599,-3.9204,-4.0966,-4.4083,-5.1166,-5.3102,-5.4854,0.0,0.0,0.0,0.0,0.0,0.0,0.0,0.0,0.0,-6.6445,-6.7785,-6.8648,-6.8769,-6.7451,-6.7497,-6.9209,-6.7809,-6.7829,-6.9219,-6.9381,-7.0146,-7.129,-6.9483,-7.0971,-7.4762,-7.2998,0.0,0.0,-7.5314,-7.496,-7.3589,-7.4262,-7.4645,-7.4645,-7.4138,-7.519,-7.6642,-7.5234,-7.6849,-7.9598,-7.9729,-8.2184,-8.5084,-8.4966,-8.477,-8.4851,-8.5684,-8.5552,-8.5404,-8.6351,-8.6925,-8.7246,-8.7103,-8.6797,-8.6319,-8.5492,-8.2665,-7.9327,-7.657,-7.3313,-6.9447,-6.441,-6.319,-6.1948,-5.9483,-5.9394,-5.8935,-5.7373,-5.8108,-5.8618,-5.8109,-5.7594,-5.717,-5.6936,-5.8468,-5.8686,-5.7147,-5.6075,-5.5299,-5.4869,-5.2632,-5.1749,-5.251,-5.2335,-5.2234,-5.2137,-5.2502,-5.2894,-5.3251,-5.2094,-5.2419,-5.0538,-5.3204,-5.5645,-5.6161,-5.7016,-5.6724,-5.281,-4.9979,0.0,-3.9428,-3.5176,-3.2198,-3.0635,-3.2155,-3.5014,0.0,-4.2093,-4.5975,-5.098,0.0,0.0,0.0,0.0,0.0,0.0,0.0,0.0,0.0,0.0,0.0,-6.7948,-6.847,-6.8109,-6.7026,-6.8073,-6.893,-6.9487,-6.9222,-6.9181,-6.9474,-7.0674,-7.1379,-7.1643,-7.0889,-7.1778,-7.3745,-7.3171,0.0,0.0,-7.6008,-7.609,-7.5281,-7.5471,-7.5193,-7.4769,-7.4645,-7.5834,-7.7365,-7.7008,-7.8995,-8.1756,-8.1756,-8.3307,-8.5435,-8.7345,-8.8092,-8.8547,-8.983,-9.0584,-9.1009,-9.0524,-9.0078,-8.9686,-8.8998,-8.8126,-8.6971,-8.6099,-8.322,-7.9936,-7.6675,-7.2749,-6.8491,-6.4064,-6.1669,-5.9693,-5.778,-5.6517,-5.5783,-5.5691,-5.5532,-5.6095,-5.765,-5.6948,-5.6525,-5.6631,-5.699,-5.6925,-5.6183,-5.5219,-5.4647,-5.4445,-5.2418,-5.1041,-5.0294,-5.0801,-5.064,-4.9473,-5.0208,-5.0429,-5.0327,-4.9687,-5.0219,-5.2552,-5.5007,-5.6923,-5.6803,-5.7938,-5.8244,-5.5058,0.0,0.0,0.0,-3.8823,-3.5234,-3.1988,-3.337,0.0,-3.8723,-4.281,0.0,0.0,0.0,0.0,0.0,0.0,0.0,0.0,0.0,0.0,0.0,0.0,-6.7176,-6.8848,-6.8822,-6.8524,-6.782,-6.8714,-6.9294,-6.9523,-6.9533,-6.9596,-6.9715,-7.0427,-7.1178,-7.1898,-7.1591,-7.2643,-7.4839,-7.4455,0.0,-7.636,-7.6819,-7.6688,-7.6307,-7.6307,-7.5879,-7.5193,-7.5193,-7.711,-7.9531,-7.9213,-8.1077,-8.3936,-8.4907,-8.5885,-8.7091,-8.9094,-8.9266,-8.9296,-9.1258,-9.2042,-9.2296,-9.2204,-9.1655,-9.0859,-9.0191,-8.9164,-8.8229,-8.7291,-8.4023,-8.0258,-7.6886,-7.318,-6.9158,-6.4241,-6.2106,-6.0204,-5.7879,-5.6174,-5.5266,-5.5774,-5.5087,-5.4962,-5.6003,-5.6496,-5.6631,-5.6215,-5.6196,-5.6025,-5.5692,-5.4167,-5.3268,-5.3088,-5.1185,-4.9711,-4.879,-4.8723,-4.8457,-4.7944,-4.8054,-4.8142,-4.8471,-4.7717,-4.8274,-5.3705,-5.6196,-5.7867,-5.7034,-5.7936,-5.847,-5.6517,-5.3778,0.0,0.0,-4.2364,-3.8499,-3.4592,-3.523,-3.7275,-4.0121,0.0,0.0,0.0,0.0,-5.7224,0.0,0.0,0.0,0.0,0.0,0.0,0.0,0.0,-6.9682,-6.9703,-6.9585,-6.9607,-6.967,-6.9348,-6.939,-6.9807,-6.9974,-7.0134,-7.0222,-7.0195,-7.0928,-7.2165,-7.1918,-7.329,-7.5971,-7.5462,0.0,-7.7497,-7.7391,-7.7158,-7.6928,-7.6928,-7.649,-7.5896,-7.6344,-7.8876,-8.1907,-8.1356,-8.3157,-8.6049,-8.8288,-8.8964,-8.9229,-9.0561,-9.0137,-8.9652,-9.2092,-9.2473,-9.2331,-9.2863,-9.2415,-9.1638,-9.1205,-9.0328,-8.9427,-8.8972,-8.55,-8.1309,-7.7263,-7.4095,-7.0404,-6.4893,-6.2923,-6.1078,-5.8237,-5.6258,-5.5299,-5.5879,-5.5253,-5.4595,-5.4229,-5.5942,-5.6604,-5.535,-5.552,-5.5477,-5.5064,-5.3033,-5.1745,-5.1363,-4.9511,-4.8034,-4.7407,-4.6573,-4.6201,-4.6138,-4.5705,-4.6017,-4.6677,-4.5691,-4.6214,-5.3109,-5.5538,-5.7448,-5.676,-5.7081,-5.7466,-5.6769,-5.4275,-5.1088,-4.7908,0.0,-4.0857,-3.8926,-3.9001,-4.0895,-4.5266,0.0,-5.0606,-5.5138,-5.6707,-5.774,-5.8729,-6.0701,-6.2762,-6.4693,-6.6316,-6.7843,-6.9458,-7.0941,-7.1696,-7.1572,-7.1558,-7.1593,-7.1522,-6.9992,-7.0012,-7.1596,-7.1712,-7.1811,-7.2012,-7.198,-7.2099,-7.23,-7.2106,-7.2905,-7.4394,0.0,0.0,-7.5984,-7.7275,-7.7664,-7.7452,-7.7452,-7.7113,-7.6881,-7.9512,-8.1452,-8.2773,-8.3103,-8.5336,-8.8397,-9.1045,-9.1456,-9.1064,-9.2216,-9.268,-9.3018,-9.4697,-9.4813,-9.4337,-9.3828,-9.3139,-9.2613,-9.3239,-9.1896,-9.0534,-9.1126,-8.897,-8.4866,-7.8372,-7.4784,-7.0944,-6.5386,-6.2364,-5.9765,-5.6809,-5.4319,-5.2865,-5.3245,-5.4412,-5.4678,-5.3673,-5.5225,-5.5425,-5.327,-5.4186,-5.4221,-5.3149,-5.1871,-5.0735,-4.9898,-4.7706,-4.5915,-4.4643,-4.4538,-4.4198,-4.3435,-4.2887,-4.3233,-4.4145,-4.2983,-4.3691,-5.1766,-5.4331,-5.6306,-5.5734,-5.5914,-5.6048,-5.5282,-5.4046,-5.2301,-4.9798,-4.7348,0.0,-4.2106,0.0,0.0,0.0,0.0,0.0,-5.5219,-5.7036,-5.8221,0.0,-6.1649,0.0,-6.4762,-6.7135,-6.896,0.0,-7.1231,-7.2594,-7.3556,-7.3541,-7.3056,-7.2066,-7.2068,-7.2105,-7.1879,-7.2981,-7.3552,-7.3614,-7.281,-7.2445,-7.2389,-7.2291,-7.2495,-7.2959,0.0,-7.5437,-7.5941,-7.7467,-7.7906,-7.7753,-7.7753,-7.759,-7.7894,-8.1485,-8.3779,-8.5232,-8.6165,-8.83,-9.0839,-9.2835,-9.3201,-9.3184,-9.4592,-9.4405,-9.4011,-9.5435,-9.5623,-9.5235,-9.441,-9.3753,-9.3202,-9.3077,-9.2212,-9.1247,-9.1108,-8.9252,-8.6278,-8.1784,-7.6962,-7.2005,-6.711,-6.423,-6.1336,-5.7382,-5.5187,-5.3725,-5.3002,-5.3917,-5.4197,-5.301,-5.374,-5.3652,-5.2321,-5.197,-5.1649,-5.1177,-4.9665,-4.8335,-4.7439,-4.5614,-4.3938,-4.2715,-4.1774,-4.1412,-4.1849,-4.0526,-4.0921,-4.2567,-4.1559,-4.2034,-4.9425,-5.2075,-5.4204,-5.4315,-5.4369,-5.4137,-5.3509,-5.2704,-5.1775,-5.0604,-4.8928,-4.7001,0.0,0.0,0.0,-4.6447,-4.9541,0.0,-5.538,-5.7342,0.0,-5.9215,0.0,-6.4145,-6.4754,-6.748,0.0,0.0,-7.1872,-7.3666,-7.534,-7.5381,-7.4749,-7.3401,-7.401,-7.4009,-7.3153,-7.4481,-7.525,-7.5292,-7.2925,-7.2045,-7.2493,-7.1927,-7.1569,-7.1465,-7.4469,-7.5686,-7.5547,-7.7427,-7.8098,-7.7948,-7.7948,-7.7984,-7.8498,-8.2576,-8.4975,-8.6475,-8.8966,-9.0913,-9.2612,-9.4401,-9.5011,-9.5232,-9.6339,-9.5825,-9.5036,-9.594,-9.6055,-9.5748,-9.4963,-9.4481,-9.4042,-9.3467,-9.2766,-9.2137,-9.1683,-8.9783,-8.7492,-8.4745,-7.9823,-7.4736,-7.0299,-6.6333,-6.238,-5.8192,-5.5973,-5.442,-5.3336,-5.3854,-5.3854,-5.2352,-5.2689,-5.2668,-5.1615,-5.057,-4.9898,-4.9931,-4.7784,-4.6154,-4.5271,-4.3392,-4.1757,-4.0569,-3.9208,-3.8851,-3.9611,-3.8251,-3.8634,-4.0734,-4.0095,-4.0654,-4.5546,-4.8228,-5.0823,-5.2567,-5.2261,-5.1633,-5.1954,-4.964,-4.7852,-4.9481,-4.7104,-4.5164,0.0,0.0,-4.5635,-4.8378,-5.0647,-5.3134,-5.6233,-5.8134,-5.9365,0.0,0.0,0.0,0.0,0.0,0.0,-7.197,0.0,-7.5279,-7.6971,-7.6958,-7.6816,-7.6724,-7.5139,-7.5012,-7.6546,-7.6615,-7.6839,-7.6946,-7.2324,-7.0919,-7.2434,-7.069,-6.9809,-6.992,-7.2878,-7.4047,-7.4002,-7.7079,-7.8244,-7.8134,-7.7948,-7.7948,-7.8503,-8.2779,-8.4273,-8.492,-9.0558,-9.2619,-9.3166,-9.6107,-9.7091,-9.704,-9.6797,-9.6851,-9.6831,-9.6577,-9.6407,-9.6101,-9.5872,-9.5235,-9.4983,-9.5826,-9.4587,-9.3326,-9.3956,-9.2278,-8.9553,-8.5968,-8.3081,-7.9782,-7.5424,-6.7823,-6.1363,-5.8512,-5.5706,-5.3915,-5.3961,-5.442,-5.3927,-5.1683,-5.2877,-5.3082,-5.0821,-5.0867,-5.072,-4.9973,-4.6932,-4.4822,-4.4017,-4.1124,-3.8951,-3.7744,-3.7293,-3.6722,-3.6186,-3.6083,-3.6657,-3.8076,-3.839,-3.927,-4.3178,-4.4861,-4.6089,-4.9539,-4.9386,-4.8807,-5.0072,-4.8672,-4.7204,-4.7862,-4.6265,-4.4904,-4.5458,-4.5176,-4.5895,-4.9105,-5.115,-5.3499,-5.6677,-5.8502,-5.9574,-5.9735,-6.2156,0.0,0.0,0.0,0.0,-7.3064,-7.3893,-7.5324,-7.8036,-7.8186,-7.7668,-7.6498,-7.6874,-7.6817,-7.6198,-7.7333,-7.75,-7.6631,-7.3181,-7.183,-7.243,-7.0692,-6.9833,-6.9878,-7.2896,-7.407,-7.4058,-7.707,-7.8355,-7.8284,-7.8209,-7.9471,-8.1474,-8.3067,-8.4839,-8.721,-9.1587,-9.3083,-9.3562,-9.6657,-9.7604,-9.7509,-9.7315,-9.7265,-9.7165,-9.6978,-9.7533,-9.7881,-9.6407,-9.6476,-9.6677,-9.5485,-9.4625,-9.4042,-9.3759,-9.129,-8.8462,-8.642,-8.3349,-8.001,-7.6145,-7.1284,-6.5834,-5.9569,-5.6943,-5.5285,-5.4211,-5.3973,-5.3376,-5.1949,-5.1854,-5.1064,-4.8946,-4.8498,-4.7525,-4.5816,-4.3775,-4.1891,-4.0221,-3.8268,-3.6539,-3.5039,-3.4786,-3.4293,-3.3899,-3.4322,-3.5176,-3.6039,-3.7063,-3.8432,-3.9455,-4.1148,-4.2538,-4.5779,-4.6394,-4.6307,-4.6916,-4.6156,-4.5358,-4.5415,-4.4176,-4.327,-4.3864,-4.4022,-4.498,-4.7808,-5.0632,-5.3447,-5.6108,-5.839,-5.9744,-5.9813,-6.1727,0.0,0.0,0.0,0.0,-7.1712,-7.2833,-7.4553,-7.726,-7.7963,-7.7783,-7.6687,-7.7699,-7.7675,-7.6426,-7.7572,-7.7177,-7.5217,-7.407,-7.2825,-7.1447,-7.0463,-6.9919,-6.992,-7.2452,-7.3658,-7.4096,-7.6601,-7.783,-7.8246,-7.8209,-7.9916,-8.2329,-8.2923,-8.4932,-8.7839,-9.1345,-9.2914,-9.3771,-9.645,-9.7633,-9.795,-9.7742,-9.8049,-9.8399,-9.8152,-9.9106,-9.9885,-9.7767,-9.7782,-9.7766,-9.559,-9.4827,-9.4481,-9.3749,-9.1156,-8.8488,-8.6945,-8.3544,-7.9831,-7.6416,-7.2716,-6.8129,-6.1829,-5.8856,-5.6716,-5.509,-5.4072,-5.3141,-5.2398,-5.1162,-4.9715,-4.8207,-4.708,-4.5506,-4.3379,-4.1557,-3.9695,-3.7748,-3.5545,-3.3842,-3.2503,-3.1874,-3.1431,-3.1128,-3.2131,-3.3068,-3.4056,-3.5393,-3.6916,-3.4438,0.0,-4.0254,-4.1486,-4.319,-4.4101,-4.2569,-4.2042,-4.1995,-4.2158,-4.0826,-4.0105,-4.1816,-4.2268,-4.2928,-4.4608,-4.9091,-5.2955,-5.4546,-5.7658,-5.9817,-5.9817,-5.9793,-6.0875,0.0,-6.4901,-6.6102,-6.7895,-7.0585,-7.2939,-7.4719,-7.6222,-7.7148,-7.7497,-7.7303,-7.7337,-7.7484,-7.741,-7.5832,-7.2867,-7.489,-7.352,-6.9308,-6.9688,-6.977,-6.9783,-7.1378,-7.2803,-7.4093,-7.5611,-7.6954,-7.8098,-7.7984,-7.9021,-8.0655,-8.2325,-8.4191,-8.6381,-8.9848,-9.209,-9.381,-9.5454,-9.7135,-9.8287,-9.808,-9.9184,-10.0479,-10.0173,-10.1214,-10.19,-10.0086,-9.9259,-9.828,-9.6371,-9.5503,-9.4899,-9.4339,-9.2246,-8.985,-8.7497,-8.3644,-7.9695,-7.6332,-7.1824,-6.7698,-6.5093,-6.1154,-5.8057,-5.6785,-5.4928,-5.3448,-5.2712,-5.0824,-4.9269,-4.8553,-4.6874,-4.4954,-4.2861,-4.0656,-3.8483,-3.6606,-3.2975,-3.0766,-3.0211,-2.8764,-2.8046,-2.8043,-2.9073,-3.039,-3.2202,-3.3474,-3.5147,-3.2537,0.0,0.0,-3.7785,-3.8947,-3.9712,-4.1594,-4.1065,-4.0498,-4.1639,-4.0545,-3.9537,-4.0137,-4.1278,-4.2676,-4.4508,-4.7984,-5.1507,-5.4444,-5.6574,-5.8325,-5.9461,-6.0377,-6.0511,-5.9519,-6.1491,-6.3906,-6.6543,-6.852,-7.0823,-7.3557,-7.3361,-7.4257,-7.6543,-7.5424,-7.5376,-7.6418,-7.6345,-7.4841,-7.2034,-7.1759,-7.0097,-6.7239,-6.6485,-6.686,-6.823,-7.0963,-7.2301,-7.2747,-7.5273,-7.6527,-7.6837,-7.7795,-7.9285,-8.0808,-8.1252,-8.337,-8.646,-8.9883,-9.223,-9.3952,-9.5599,-9.7173,-9.8331,-9.8287,-9.9399,-10.0581,-10.0405,-10.2273,-10.3908,-10.2026,-10.1157,-10.0393,-9.8427,-9.6684,-9.5011,-9.3394,-9.1189,-8.8826,-8.6208,-8.2304,-7.8552,-7.5722,-7.1251,-6.7143,-6.4436,-6.0346,-5.7581,-5.7687,-5.5374,-5.3448,-5.2897,-5.1136,-4.9108,-4.6813,-4.5012,-4.238,-3.8443,-3.706,-3.5153,-3.2456,-2.9969,-2.8086,-2.6726,-2.6084,-2.5757,-2.5561,-2.7128,-2.8522,-2.968,-3.1761,-3.3733,-2.9851,0.0,0.0,0.0,-3.5574,-3.67,-3.9257,-3.9003,-3.8582,-3.9537,-3.9479,-3.9318,-3.9393,-4.0804,-4.2604,0.0,-4.8175,-5.1541,-5.3489,-5.5692,-5.7125,-5.7157,-5.7515,-5.7322,-5.6278,-5.8061,-6.0594,-6.3582,-6.587,-6.8283,-7.0771,-7.1039,-7.1968,-7.4073,-7.303,-7.2905,-7.3861,-7.4036,-7.2782,-7.0172,-7.0187,-6.8703,-6.5898,-6.555,-6.5694,-6.6493,-6.9081,-7.0903,-7.2165,-7.3797,-7.4797,-7.5301,-7.6059,-7.779,-7.9693,-7.9869,-8.1611,-8.4474,-8.7931,-9.1132,-9.3928,-9.4879,-9.6718,-9.8669,-9.9266,-10.0044,-10.0815,-10.14,-10.283,-10.3758,-10.1757,-10.1078,-10.031,-9.8238,-9.6724,-9.5278,-9.3818,-9.1115,-8.8402,-8.6497,-8.1543,-7.709,-7.5195,-7.0383,-6.572,-6.2596,-5.8956,-5.6584,-5.6713,-5.4746,-5.3201,-5.3019,-5.1503,-4.9104,-4.5603,-4.3241,-4.0275,-3.6371,-3.4304,-3.2095,-2.9439,-2.6927,-2.4903,-2.3328,-2.3111,-2.2975,-2.2913,-2.4789,-2.648,-2.7854,-2.999,-3.1378,-2.5296,0.0,0.0,-3.1059,-3.2291,-3.3918,0.0,0.0,-3.6098,-3.6417,-3.7683,-3.8807,-3.8929,-4.0614,-4.2645,-4.463,-4.8911,-5.2097,-5.2518,-5.4791,-5.5665,-5.3636,-5.2928,-5.2972,-5.3846,-5.5307,-5.7203,-5.9771,-6.2822,-6.5334,-6.7273,-6.8648,-6.9909,-7.1019,-7.0628,-7.0574,-7.0933,-7.1361,-7.0463,-6.807,-6.9353,-6.8147,-6.4806,-6.5315,-6.513,-6.4533,-6.6299,-6.882,-7.1584,-7.1815,-7.2626,-7.3643,-7.3702,-7.5207,-7.7537,-7.8296,-7.9651,-8.175,-8.515,-8.9532,-9.3661,-9.3809,-9.5995,-9.8736,-10.0203,-10.0797,-10.1239,-10.2381,-10.2921,-10.271,-10.0696,-9.9977,-9.9201,-9.7124,-9.6128,-9.5332,-9.4534,-9.126,-8.8036,-8.6917,-8.0898,-7.5519,-7.4332,-6.9116,-6.3968,-6.0515,-5.7601,-5.5557,-5.5055,-5.3651,-5.2897,-5.3208,-5.1861,-4.929,-4.5058,-4.161,-3.8341,-3.5321,-3.2069,-2.9161,-2.6927,-2.4022,-2.175,-2.0298,-2.0242,-2.0165,-2.0035,-2.2038,-2.4012,-2.594,-2.7791,-2.7993,0.0,0.0,0.0,0.0,0.0,0.0,0.0,0.0,-3.1829,-3.4349,-3.5132,-3.573,-3.7031,-3.9795,-4.3023,-4.6072,-4.8643,-5.1158,-5.3777,-5.3344,-5.1899,-4.9792,-5.1229,-5.2281,-5.192,-5.5317,-5.773,-5.8208,-6.0017,-6.2376,-6.5476,-6.5006,-6.6481,-7.0393,-6.9535,-6.9516,-7.0628,-7.0238,-6.9282,-6.7851,-6.6659,-6.4804,-6.2625,-6.1829,-6.1765,-6.2494,-6.4292,-6.6263,-6.8442,-7.1,-7.2193,-7.2426,-7.3492,-7.3718,-7.3689,-7.7365,-7.9788,-8.1763,-8.5286,-8.8826,-9.2083,-9.3465,-9.516,-9.7012,-9.8555,-10.0839,-10.263,-10.1463,-10.2978,-10.4559,-10.2425,-10.0842,-9.9496,-9.8689,-9.6174,-9.3432,-9.1697,-8.8966,-8.5916,-8.2493,-7.8531,-7.4676,-7.1401,-6.697,-6.3233,-6.1386,-5.7867,-5.5583,-5.5895,-5.3994,-5.2654,-5.2897,-5.1861,-4.9751,-4.651,-4.0709,-3.5479,-3.1456,-2.9409,-2.68,-2.3458,-2.2296,-2.0582,-1.815,-1.871,-1.8202,-1.6517,-1.8703,-2.0452,-2.1845,-2.3892,-2.4616,0.0,0.0,0.0,0.0,0.0,0.0,0.0,0.0,0.0,0.0,0.0,-3.3891,0.0,0.0,-4.1939,-4.5327,-4.8076,-5.033,-5.1891,-5.1869,-5.055,-4.7524,-4.9498,-5.1197,-5.1266,-5.3975,-5.6202,-5.756,-5.8489,-6.0124,-6.2611,-6.2395,-6.3389,-6.5901,-6.5382,-6.5359,-6.61,-6.6251,-6.5626,-6.4242,-6.3958,-6.2668,-6.0468,-6.0091,-6.0013,-6.0167,-6.209,-6.4035,-6.5983,-6.8567,-7.0064,-7.0849,-7.1559,-7.1379,-7.1145,-7.4419,-7.7069,-7.94,-8.1931,-8.6089,-9.04,-9.1227,-9.3615,-9.6487,-9.8066,-9.968,-10.0911,-10.075,-10.1263,-10.158,-10.0226,-9.8622,-9.7187,-9.6577,-9.4347,-9.2038,-9.0549,-8.8182,-8.549,-8.2208,-7.8451,-7.4457,-7.0499,-6.5562,-6.167,-6.0261,-5.7059,-5.4906,-5.5354,-5.3383,-5.208,-5.2528,-5.0894,-4.929,-4.8194,-4.2451,-3.7531,-3.4026,-2.8828,-2.4538,-2.1671,-1.9576,-1.7765,-1.6135,-1.5885,-1.5435,-1.4814,-1.6314,-1.7987,-1.9637,-1.9342,-1.9834,0.0,0.0,0.0,0.0,0.0,0.0,0.0,0.0,0.0,0.0,0.0,0.0,0.0,0.0,0.0,-4.371,-4.6817,-4.8914,-4.9052,-4.9515,-4.883,-4.6195,-4.81,-4.9937,-5.0823,-5.2484,-5.4398,-5.6579,-5.7155,-5.8293,-6.0281,-6.0547,0.0,-6.1933,-6.171,-6.1584,-6.1744,-6.2486,-6.2246,-6.0886,0.0,0.0,-5.8899,-5.93,-5.9049,-5.83,-6.0672,-6.2525,-6.3932,-6.6406,-6.7994,-6.8794,-6.8038,-6.7689,-6.8015,-7.1516,-7.4417,-7.684,-7.8525,-8.3138,-8.8329,-8.8877,-9.1844,-9.5587,-9.7167,-9.7809,0.0,-9.8951,-9.842,-9.7399,-9.6647,-9.5466,-9.4359,-9.366,-9.2154,-9.0641,-8.9771,-8.7398,-8.4781,-8.2273,-7.8107,-7.3647,-6.955,-6.4305,-6.0009,-5.844,-5.553,-5.3694,-5.4078,-5.2423,-5.1422,-5.1814,-4.9788,-4.8468,-4.8233,-4.377,-3.9777,-3.6872,-2.8986,-2.3057,-2.0044,-1.6931,-1.4804,-1.3933,-1.3076,-1.2774,-1.3092,-1.4009,-1.5515,-1.7484,-1.4582,-1.4926,0.0,0.0,0.0,0.0,0.0,0.0,0.0,0.0,0.0,0.0,0.0,0.0,0.0,0.0,0.0,0.0,-4.4115,-4.5933,-4.7299,-4.4911,-4.3811,-4.582,-4.7307,-4.8586,-4.9492,-5.2047,-5.3692,-5.374,-5.4879,-5.6963,-6.0263,0.0,0.0,0.0,0.0,-6.2074,-6.1946,-6.1946,-6.1903,-6.17,-6.1102,-6.0221,-5.8899,-5.8987,-5.8504,-5.7804,-6.1298,-6.2388,-6.1963,-6.6642,-6.7792,-6.6134,-6.2383,-6.1019,-6.2193,-7.084,-7.4868,-7.6245,-7.8473,0.0,0.0,-8.8098,-9.0342,-9.2213,-9.3796,-9.5154,-9.5863,-9.4356,-9.4826,-9.5291,-9.3396,-9.2735,-9.2489,-9.208,-9.0511,-8.8951,-8.8226,-8.5026,-8.166,-7.9414,-7.5025,-7.0553,-6.6965,-6.2575,-5.8887,-5.6651,-5.3743,-5.192,-5.2301,-5.1631,-5.0897,-5.011,0.0,0.0,-4.3816,-4.12,-3.802,-3.394,-2.8943,-2.3319,-1.6893,-1.5466,-1.3588,-1.1021,-1.1536,-1.1141,-0.9867,-1.079,-1.2051,-1.3587,-1.0485,-1.1135,0.0,0.0,0.0,0.0,0.0,0.0,0.0,0.0,0.0,0.0,0.0,0.0,0.0,0.0,0.0,0.0,-3.9256,-3.9023,-3.8566,-3.9523,-4.0673,-4.1769,-4.5365,-4.7907,-4.7956,-5.0443,-5.2284,-5.2868,-5.4156,-5.5916,-5.8293,-5.9015,-5.9928,-6.1304,-6.1531,-6.1195,-6.0457,-6.0673,-6.0321,-5.9408,-5.8979,-5.8411,-5.775,-5.775,-5.7555,0.0,-5.9157,-6.0848,-6.2463,-6.4184,-6.6042,0.0,0.0,0.0,0.0,0.0,-7.0202,-7.2632,-7.5441,-7.8638,-8.1783,-8.4116,-8.7084,-8.9685,-8.9352,-9.0934,-9.2688,-9.1818,-9.2033,-9.25,-9.2387,-9.1579,-9.0548,-8.9216,-8.7511,-8.5728,-8.4221,-8.2205,-7.9663,-7.6457,-7.3589,0.0,-6.5661,-6.1078,-5.7316,-5.534,-5.2989,-5.1731,-5.2186,-5.1566,-5.0832,-4.9973,-4.9113,-4.7479,-4.4502,-4.1276,0.0,0.0,0.0,-2.3614,-1.8281,-1.57,0.0,0.0,0.0,0.0,0.0,0.0,0.0,0.0,-0.7253,-0.966,0.0,0.0,0.0,0.0,0.0,0.0,0.0,0.0,0.0,0.0,0.0,0.0,0.0,0.0,0.0,0.0,0.0,-3.362,-3.1845,-3.4711,-3.7302,-3.799,-4.2108,-4.4861,-4.4916,-4.7646,-4.9951,-5.1202,-5.2841,-5.482,-5.7222,-5.8268,-5.9188,-6.0068,-6.0629,-6.022,-5.9003,-5.9655,-5.9195,-5.7731,-5.7516,-5.7295,-5.7058,-5.6978,-5.6937,-5.6937,-5.7987,-5.974,-6.1807,-6.3102,-6.473,-6.5726,-5.8906,-5.7597,-5.9856,-6.2209,-6.5225,-6.8653,-7.1955,-7.5194,-7.8172,-7.9803,-8.3171,-8.6301,-8.4997,-8.6498,-8.8583,-8.8384,-8.8301,-8.8439,-8.9338,-8.868,-8.7357,-8.5862,-8.446,-8.2978,-8.1435,-8.0098,-7.8291,-7.5316,-7.2211,-6.8515,-6.3575,-5.923,-5.5843,-5.3884,-5.2122,0.0,-5.1763,-5.1058,-5.0312,-4.9504,-4.857,-4.6937,-4.4294,-4.0898,-3.7162,-3.3032,-2.7605,-2.2835,-1.8881,-1.493,-1.1191,-0.7717,-0.5013,-0.3844,0.0,0.0,0.0,0.0,0.0,0.0,0.0,0.0,0.0,0.0,0.0,0.0,0.0,0.0,0.0,0.0,0.0,0.0,0.0,0.0,0.0,0.0,0.0,0.0,-3.0102,-3.0996,-3.2964,-3.5707,-3.7103,-3.8335,-3.9593,-4.3254,-4.627,-4.7649,-5.0199,-5.3527,-5.8071,-5.6849,-5.7577,-6.0704,-6.0207,-5.9312,-5.8154,-5.9216,-5.9047,-5.7731,-5.7552,-5.748,-5.7365,-5.705,-5.6844,-5.6904,-5.93,-5.937,-5.8386,-6.4984,-6.442,-5.8608,-5.0566,-5.2042,-5.8729,-5.8877,-6.1312,-6.5133,-6.8394,-7.1723,-7.4643,-7.6121,-7.8741,-8.1244,-8.0919,-8.1996,-8.3175,-8.3053,-8.2969,-8.2797,-8.2573,-8.2528,-8.2361,-8.2073,-8.1749,-8.1488,-8.1254,-7.9467,-7.7611,-7.6978,-7.0742,-6.4152,-5.9794,-5.6919,-5.452,-5.2136,-5.076,0.0,-5.0585,-4.9847,-4.9005,-4.8171,-4.7483,-4.548,-4.147,-3.8964,-3.5735,-3.1482,-2.5295,-2.0385,-1.6937,-1.2085,-0.8458,-0.6342,-0.4453,-0.3331,-0.2993,0.0,0.0,0.0,0.0,0.0,0.0,0.0,0.0,0.0,0.0,0.0,0.0,0.0,0.0,0.0,0.0,0.0,0.0,0.0,0.0,0.0,0.0,0.0,0.0,0.0,-3.2325,-3.2364,-3.4793,-3.6829,-3.7693,-3.9803,-4.2591,-4.6174,-4.8742,-5.2072,-5.6333,-5.8158,-5.986,-6.1567,-6.2067,-6.1812,-6.0703,-6.0602,-5.9981,-5.8861,-5.7954,-5.748,-5.7365,-5.7202,-5.7081,-5.704,-5.7973,-5.9412,-6.0913,-5.8538,-5.5003,-5.0599,-4.5379,-4.6083,-5.0505,-5.3878,-5.7172,-6.0296,-6.2914,-6.6175,-6.9367,-7.0872,-7.2585,-7.4089,-7.3983,-7.4983,-7.6639,-7.8655,-7.9201,-7.963,-8.1718,-8.2141,-8.1826,-8.0704,-8.0267,-7.9851,-7.8629,-7.6511,-7.4395,-7.2805,-6.7923,-6.2366,-5.732,-5.504,-5.2759,-4.9129,-4.9905,-5.0693,-5.0311,-5.0354,-4.9973,-4.9008,-4.7994,-4.5626,-4.165,-3.7938,-3.4035,-2.9797,-2.2303,-1.686,-1.4118,-0.9108,-0.5516,-0.3685,-0.2267,-0.0898,0.0433,0.0,0.0,0.0,0.0,0.0,0.0,0.0,0.0,0.0,0.0,0.0,0.0,0.0,0.0,0.0,0.0,0.0,0.0,0.0,0.0,0.0,0.0,0.0,0.0,0.0,0.0,-2.991,-3.2331,0.0,0.0,-3.69,-3.9741,-4.34,-4.6603,-5.0113,-5.412,-5.6781,-5.9184,-6.1294,-6.2168,-6.2047,-6.0929,-6.0861,-6.0027,-5.835,-5.7109,-5.6711,-5.7098,-5.6255,-5.575,-5.5356,-5.4313,-5.5804,-5.8537,-5.2754,-4.7561,-4.3061,-4.0507,-4.0489,-4.2554,-4.8457,-5.2538,-5.5627,-5.8906,-6.1693,-6.4106,-6.6378,-6.6996,-6.7036,-6.7596,-6.837,-6.9644,-7.2946,-7.4237,-7.5381,-7.807,-7.8687,-7.8524,-7.8083,-7.7433,-7.6661,-7.6081,-7.4206,-7.183,-6.8832,-6.4164,-5.9233,-5.4841,-5.2737,-5.0628,-4.7578,-4.8809,-5.03,-5.0626,-5.0617,-5.038,-4.9842,-4.8573,-4.587,-4.1149,-3.7318,-3.2835,-2.7406,-1.927,-1.3219,-0.9797,-0.4936,-0.2127,-0.1793,-0.0568,0.0589,0.0,0.0,0.0,0.0,0.0,0.0,0.0,0.0,0.0,0.0,0.0,0.0,0.0,0.0,0.0,0.0,0.0,0.0,0.0,0.0,0.0,0.0,0.0,0.0,0.0,0.0,0.0,-2.8299,-2.9601,0.0,0.0,0.0,0.0,-3.9474,-4.3455,-4.7592,-5.1589,-5.3043,-5.5602,-5.9731,-6.0326,-5.9955,-5.8751,-5.9682,-5.8793,-5.6215,-5.5086,-5.5238,-5.6371,-5.4286,-5.2892,-5.1887,-4.8924,-4.9252,-5.1548,-4.8024,-4.2601,-3.6521,-3.6169,-3.5462,-3.5591,-4.2841,-4.7516,-5.1008,-5.6067,-5.81,-5.9007,-6.2142,-6.172,-6.0127,-6.1387,-6.1607,0.0,0.0,-6.8056,-6.9831,-7.1781,-7.2263,-7.2704,-7.4468,-7.3491,-7.254,-7.403,-7.2541,-6.9601,0.0,-5.9459,-5.4611,-5.194,0.0,-4.8168,-4.711,-4.7575,-4.8864,-5.1062,-5.0512,-5.0062,-5.0464,-4.9202,-4.6013,-4.0184,-3.696,-3.1971,-2.4259,-1.6336,-0.9623,-0.4444,0.0031,0.1437,-0.0579,0.0526,0.0,0.0,0.0,0.0,0.0,0.0,0.0,0.0,0.0,0.0,0.0,0.0,0.0,0.0,0.0,0.0,0.0,0.0,0.0,0.0,0.0,0.0,0.0,0.0,0.0,0.0,-2.358,-2.642,-2.6177,-2.7874,-2.9513,0.0,0.0,0.0,0.0,0.0,0.0,-4.7815,-5.0629,-5.2774,-5.4277,-5.5846,-5.644,-5.5964,-5.5547,-5.503,-5.4311,-5.402,-5.3246,-5.1907,-4.9712,-4.8748,-4.878,-4.8175,-4.8256,-4.828,-4.1859,-3.8126,-3.6208,-3.4404,-3.3846,-3.4588,-3.8675,-4.1997,-4.5181,-5.0108,-5.3163,-5.4613,-5.2799,0.0,-5.2159,-4.8683,0.0,0.0,0.0,0.0,-6.2303,-6.7782,-6.9219,-7.003,-7.28,-7.3018,-7.2678,-7.2831,-7.0183,-6.5335,0.0,-5.4175,-5.0871,-4.5135,0.0,0.0,0.0,0.0,-4.8228,-4.9316,-4.9325,-4.9396,-4.9764,-4.8409,-4.5451,-4.0503,-3.6074,-3.0063,-2.2119,-1.3283,-0.6828,-0.356,0.0842,0.2721,0.1709,0.0,0.0,0.0,0.0,0.0,0.0,0.0,0.0,0.0,0.0,0.0,0.0,0.0,0.0,0.0,0.0,0.0,0.0,0.0,0.0,0.0,0.0,0.0,0.0,0.0,0.0,0.0,-2.1089,-2.4626,-2.571,-2.7043,-2.8538,0.0,0.0,0.0,0.0,0.0,0.0,0.0,0.0,0.0,-4.8861,-5.065,-5.1166,-5.0382,-5.1138,-5.0924,-4.9693,-5.0311,-4.8992,-4.5988,-4.374,-4.2064,-4.0933,-3.9705,-3.8883,-3.7932,-3.2464,-3.0424,-3.083,0.0,0.0,0.0,0.0,-3.6893,-3.9151,-4.4207,-4.6921,0.0,-4.585,0.0,0.0,0.0,0.0,0.0,0.0,0.0,0.0,0.0,0.0,0.0,-6.9346,-6.9353,-6.9067,-7.0091,-6.4869,-5.8153,0.0,-4.8318,-4.5257,-4.1239,0.0,0.0,0.0,0.0,0.0,-4.8986,-4.9965,-5.0619,-5.0803,-4.9973,-4.6592,-3.982,-3.4598,-2.7505,-1.7757,-0.9193,-0.1982,0.3664,0.5028,0.4849,0.0,0.0,0.0,0.0,0.0,0.0,0.0,0.0,0.0,0.0,0.0,0.0,0.0,0.0,0.0,0.0,0.0,0.0,0.0,0.0,0.0,0.0,0.0,0.0,0.0,0.0,0.0,0.0,0.0,-2.1853,-2.5496,0.0,0.0,0.0,0.0,0.0,0.0,0.0,0.0,0.0,0.0,0.0,0.0,0.0,-4.505,-4.3572,-4.5916,-4.5879,-4.3524,-4.3808,-4.203,-3.853,-3.5839,-3.3218,-3.0387,-2.7449,0.0,-2.4548,-2.1597,0.0,0.0,0.0,0.0,0.0,0.0,0.0,0.0,0.0,0.0,0.0,0.0,0.0,0.0,0.0,0.0,0.0,0.0,0.0,0.0,0.0,0.0,-6.2455,-6.4372,-6.3813,-6.3382,0.0,-5.7844,-5.018,-4.7266,-4.2761,0.0,0.0,0.0,0.0,0.0,0.0,0.0,-4.9137,-5.1192,-5.2278,-5.2278,-5.1921,-4.7985,-3.8652,-3.2802,-2.4601,-1.2593,-0.5154,0.2802,1.176,0.9794,0.0,0.0,0.0,0.0,0.0,0.0,0.0,0.0,0.0,0.0,0.0,0.0,0.0,0.0,0.0,0.0,0.0,0.0,0.0,0.0,0.0,0.0,0.0,0.0,0.0,0.0,0.0,0.0,0.0,0.0,0.0,0.0,0.0,0.0,0.0,0.0,0.0,0.0,0.0,0.0,0.0,0.0,0.0,0.0,0.0,0.0,0.0,0.0,0.0,0.0,-3.1879,-2.879,-2.7671,-2.3689,-2.1402,-2.0492,-1.8529,-1.7098,-1.5964,0.0,0.0,0.0,0.0,0.0,0.0,0.0,0.0,0.0,0.0,0.0,0.0,0.0,0.0,0.0,0.0,0.0,0.0,0.0,0.0,0.0,0.0,0.0,0.0,0.0,-5.8908,-5.8553,0.0,0.0,0.0,0.0,0.0,0.0,0.0,0.0,0.0,0.0,0.0,0.0,-4.8158,-5.0192,-5.1238,-5.1238,-4.9768,-4.5819,-3.838,-3.1332,-2.1973,-0.9559,-0.3508,0.2277,0.0,0.0,0.0,0.0,0.0,0.0,0.0,0.0,0.0,0.0,0.0,0.0,0.0,0.0,0.0,0.0,0.0,0.0,0.0,0.0,0.0,0.0,0.0,0.0,0.0,0.0,0.0,0.0,0.0,0.0,0.0,0.0,0.0,0.0,0.0,0.0,0.0,0.0,0.0,0.0,0.0,0.0,0.0,0.0,0.0,0.0,0.0,0.0,0.0,0.0,0.0,0.0,0.0,0.0,0.0,0.0,0.0,0.0,0.0,-0.9087,0.0,0.0,0.0,0.0,0.0,0.0,0.0,0.0,0.0,0.0,0.0,0.0,0.0,0.0,0.0,0.0,0.0,0.0,0.0,0.0,0.0,0.0,0.0,0.0,0.0,0.0,0.0,0.0,0.0,0.0,0.0,0.0,0.0,0.0,0.0,0.0,0.0,0.0,0.0,0.0,-4.7036,-4.9641,-5.1075,-5.0918,-4.9214,-4.5123,-3.7948,-2.962,-1.9818,-0.8135,-0.1318,0.0,0.0,0.0,0.0,0.0,0.0,0.0,0.0,0.0,0.0,0.0,0.0,0.0,0.0,0.0,0.0,0.0,0.0,0.0,0.0,0.0,0.0,0.0,0.0,0.0,0.0,0.0,0.0,0.0,0.0,0.0,0.0,0.0,0.0,0.0,0.0,0.0,0.0,0.0,0.0,0.0,0.0,0.0,0.0,0.0,0.0,0.0,0.0,0.0,0.0,0.0,0.0,0.0,0.0,0.0,0.0,0.0,0.0,0.0,-0.5418,0.0,0.0,0.0,0.0,0.0,0.0,0.0,0.0,0.0,0.0,0.0,0.0,0.0,0.0,0.0,0.0,0.0,0.0,0.0,0.0,0.0,0.0,0.0,0.0,0.0,0.0,0.0,0.0,0.0,0.0,0.0,0.0,0.0,0.0,0.0,0.0,0.0,0.0,0.0,0.0,0.0,-4.6233,-4.9438,-5.122,-5.0972,-4.8847,-4.435,-3.6941,-2.7761,-1.7755,-0.6702,0.0,0.0,0.0,0.0,0.0,0.0,0.0,0.0,0.0,0.0,0.0,0.0,0.0,0.0,0.0,0.0,0.0,0.0,0.0,0.0,0.0,0.0,0.0,0.0,0.0,0.0,0.0,0.0,0.0,0.0,0.0,0.0,0.0,0.0,0.0,0.0,0.0,0.0,0.0,0.0,0.0,0.0,0.0,0.0,0.0,0.0,0.0,0.0,0.0,0.0,0.0,0.0,0.0,0.0,0.0,0.0,0.0,0.0,0.0,0.0,0.0,0.0,0.0,0.0,0.0,0.0,0.0,0.0,0.0,0.0,0.0,0.0,0.0,0.0,0.0,0.0,0.0,0.0,0.0,0.0,0.0,0.0,0.0,0.0,0.0,0.0,0.0,0.0,0.0,0.0,0.0,0.0,0.0,0.0,0.0,0.0,0.0,0.0,0.0,0.0,0.0,0.0,-4.623,-4.9539,-5.1386,-5.0992,-4.7589,-4.235,-3.4904,-2.5699,-1.5482,-0.4162,0.0,0.0,0.0,0.0,0.0,0.0,0.0,0.0,0.0,0.0,0.0,0.0,0.0,0.0,0.0,0.0,0.0,0.0,0.0,0.0,0.0,0.0,0.0,0.0,0.0,0.0,0.0,0.0,0.0,0.0,0.0,0.0,0.0,0.0,0.0,0.0,0.0,0.0,0.0,0.0,0.0,0.0,0.0,0.0,0.0,0.0,0.0,0.0,0.0,0.0,0.0,0.0,0.0,0.0,0.0,0.0,0.0,0.0,0.0,0.0,0.0,0.0,0.0,0.0,0.0,0.0,0.0,0.0,0.0,0.0,0.0,0.0,0.0,0.0,0.0,0.0,0.0,0.0,0.0,0.0,0.0,0.0,0.0,0.0,0.0,0.0,0.0,0.0,0.0,0.0,0.0,0.0,0.0,0.0,0.0,0.0,0.0,0.0,0.0,0.0,0.0,0.0,-4.5067,-4.8288,-5.0026,-4.9494,-4.5809,-4.0917,-3.4538,-2.7127,-1.7258,-0.4304,0.0,0.0,0.0,0.0,0.0,0.0,0.0,0.0,0.0,0.0,0.0,0.0,0.0,0.0,0.0,0.0,0.0,0.0,0.0,0.0,0.0,0.0,0.0,0.0,0.0,0.0,0.0,0.0,0.0,0.0,0.0,0.0,0.0,0.0,0.0,0.0,0.0,0.0,0.0,0.0,0.0,0.0,0.0,0.0,0.0,0.0,0.0,0.0,0.0,0.0,0.0,0.0,0.0,0.0,0.0,0.0,0.0,0.0,0.0,0.0,0.0,0.0,0.0,0.0,0.0,0.0,0.0,0.0,0.0,0.0,0.0,0.0,0.0,0.0,0.0,0.0,0.0,0.0,0.0,0.0,0.0,0.0,0.0,0.0,0.0,0.0,0.0,0.0,0.0,0.0,0.0,0.0,0.0,0.0,0.0,0.0,0.0,0.0,0.0,0.0,0.0,0.0,0.0,-4.6675,-4.8361,-4.7794,-4.4002,-3.9026,-3.2975,-2.6136,-1.708,-0.5116,0.0,0.0,0.0,0.0,0.0,0.0,0.0,0.0,0.0,0.0,0.0,0.0,0.0,0.0,0.0,0.0,0.0,0.0,0.0,0.0,0.0,0.0,0.0,0.0,0.0,0.0,0.0,0.0,0.0,0.0,0.0,0.0,0.0,0.0,0.0,0.0,0.0,0.0,0.0,0.0,0.0,0.0,0.0,0.0,0.0,0.0,0.0,0.0,0.0,0.0,0.0,0.0,0.0,0.0,0.0,0.0,0.0,0.0,0.0,0.0,0.0,0.0,0.0,0.0,0.0,0.0,0.0,0.0,0.0,0.0,0.0,0.0,0.0,0.0,0.0,0.0,0.0,0.0,0.0,0.0,0.0,0.0,0.0,0.0,0.0,0.0,0.0,0.0,0.0,0.0,0.0,0.0,0.0,0.0,0.0,0.0,0.0,0.0,0.0,0.0,0.0,0.0,-4.177,-4.4965,-4.6643,-4.6116,-4.2015,-3.6479,-2.9394,-2.1075,-1.3306,0.0,0.0,0.0,0.0,0.0,0.0,0.0,0.0,0.0,0.0,0.0,0.0,0.0,0.0,0.0,0.0,0.0,0.0,0.0,0.0,0.0,0.0,0.0,0.0,0.0,0.0,0.0,0.0,0.0,0.0,0.0,0.0,0.0,0.0,0.0,0.0,0.0,0.0,0.0,0.0,0.0,0.0,0.0,0.0,0.0,0.0,0.0,0.0,0.0,0.0,0.0,0.0,0.0,0.0,0.0,0.0,0.0,0.0,0.0,0.0,0.0,0.0,0.0,0.0,0.0,0.0,0.0,0.0,0.0,0.0,0.0,0.0,0.0,0.0,0.0,0.0,0.0,0.0,0.0,0.0,0.0,0.0,0.0,0.0,0.0,0.0,0.0,0.0,0.0,0.0,0.0,0.0,0.0,0.0,0.0,0.0,0.0,0.0,0.0,0.0,0.0,0.0,0.0,-4.1603,-4.394,-4.5266,0.0,-4.1506,-3.5793,-2.8362,-2.0324,-1.3485,-0.8191,0.0,0.0,0.0,0.0,0.0,0.0,0.0,0.0,0.0,0.0,0.0,0.0,0.0,0.0,0.0,0.0,0.0,0.0,0.0,0.0,0.0,0.0,0.0,0.0,0.0,0.0,0.0,0.0,0.0,0.0,0.0,0.0,0.0,0.0,0.0,0.0,0.0,0.0,0.0,0.0,0.0,0.0,0.0,0.0,0.0,0.0,0.0,0.0,0.0,0.0,0.0,0.0,0.0,0.0,0.0,0.0,0.0,0.0,0.0,0.0,0.0,0.0,0.0,0.0,0.0,0.0,0.0,0.0,0.0,0.0,0.0,0.0,0.0,0.0,0.0,0.0,0.0,0.0,0.0,0.0,0.0,0.0,0.0,0.0,0.0,0.0,0.0,0.0,0.0,0.0,0.0,0.0,0.0,0.0,0.0,0.0,0.0,0.0,0.0,0.0,0.0,0.0,0.0,-4.2095,-4.3345,0.0,-3.9098,-3.3478,-2.5759,-1.808,-1.1853,-0.7549,0.0,0.0,0.0,0.0,0.0,0.0,0.0,0.0,0.0,0.0,0.0,0.0,0.0,0.0,0.0,0.0,0.0,0.0,0.0,0.0,0.0,0.0,0.0,0.0,0.0,0.0,0.0,0.0,0.0,0.0,0.0,0.0,0.0,0.0,0.0,0.0,0.0,0.0,0.0,0.0,0.0,0.0,0.0,0.0,0.0,0.0,0.0,0.0,0.0,0.0,0.0,0.0,0.0,0.0,0.0,0.0,0.0,0.0,0.0,0.0,0.0,0.0,0.0,0.0,0.0,0.0,0.0,0.0,0.0,0.0,0.0,0.0,0.0,0.0,0.0,0.0,0.0,0.0,0.0,0.0,0.0,0.0,0.0,0.0,0.0,0.0,0.0,0.0,0.0,0.0,0.0,0.0,0.0,0.0,0.0,0.0,0.0,0.0,0.0,0.0,0.0,0.0,0.0,-3.9894,-4.098,-3.8858,-3.5446,-3.0072,-2.1987,-1.4604,-0.8727,-0.4744,-0.1513,0.0,0.0,0.0,0.0,0.0,0.0,0.0,0.0,0.0,0.0,0.0,0.0,0.0,0.0,0.0,0.0,0.0,0.0,0.0,0.0,0.0,0.0,0.0,0.0,0.0,0.0,0.0,0.0,0.0,0.0,0.0,0.0,0.0,0.0,0.0,0.0,0.0,0.0,0.0,0.0,0.0,0.0,0.0,0.0,0.0,0.0,0.0,0.0,0.0,0.0,0.0,0.0,0.0,0.0,0.0,0.0,0.0,0.0,0.0,0.0,0.0,0.0,0.0,0.0,0.0,0.0,0.0,0.0,0.0,0.0,0.0,0.0,0.0,0.0,0.0,0.0,0.0,0.0,0.0,0.0,0.0,0.0,0.0,0.0,0.0,0.0,0.0,0.0,0.0,0.0,0.0,0.0,0.0,0.0,0.0,0.0,0.0,0.0,0.0,0.0,0.0,0.0,-3.9533,-3.9384,-3.8049,-3.4446,-2.8437,-1.937,-1.3077,-0.7141,-0.1352,0.0032,0.0,0.0,0.0,0.0,0.0,0.0,0.0,0.0,0.0,0.0,0.0,0.0,0.0,0.0,0.0,0.0,0.0,0.0,0.0,0.0,0.0,0.0,0.0,0.0,0.0,0.0,0.0,0.0,0.0,0.0,0.0,0.0,0.0,0.0,0.0,0.0,0.0,0.0,0.0,0.0,0.0,0.0,0.0,0.0,0.0,0.0,0.0,0.0,0.0,0.0,0.0,0.0,0.0,0.0,0.0,0.0,0.0,0.0,0.0,0.0,0.0,0.0,0.0,0.0,0.0,0.0,0.0,0.0,0.0,0.0,0.0,0.0,0.0,0.0,0.0,0.0,0.0,0.0,0.0,0.0,0.0,0.0,0.0,0.0,0.0,0.0,0.0,0.0,0.0,0.0,0.0,0.0,0.0,0.0,0.0,0.0,0.0,0.0,0.0,0.0,0.0,0.0,-3.769,-3.7378,-3.5419,-3.0985,-2.4579,-1.5731,-0.9986,-0.4354,0.1529,0.2025,0.0,0.0,0.0,0.0,0.0,0.0,0.0,0.0,0.0,0.0,0.0,0.0,0.0,0.0,0.0,0.0,0.0,0.0,0.0,0.0,0.0,0.0,0.0,0.0,0.0,0.0,0.0,0.0,0.0,0.0,0.0,0.0,0.0,0.0,0.0,0.0,0.0,0.0,0.0,0.0,0.0,0.0,0.0,0.0,0.0,0.0,0.0,0.0,0.0,0.0,0.0,0.0,0.0,0.0,0.0,0.0,0.0,0.0,0.0,0.0,0.0,0.0,0.0,0.0,0.0,0.0,0.0,0.0,0.0,0.0,0.0,0.0,0.0,0.0,0.0,0.0,0.0,0.0,0.0,0.0,0.0,0.0,0.0,0.0,0.0,0.0,0.0,0.0,0.0,0.0,0.0,0.0,0.0,0.0,0.0,0.0,0.0,0.0,0.0,0.0,0.0,0.0,0.0,-3.5584,-3.2914,-2.7039,-2.0088,-1.1973,-0.647,-0.1171,0.4182,0.0,0.0,0.0,0.0,0.0,0.0,0.0,0.0,0.0,0.0,0.0,0.0,0.0,0.0,0.0,0.0,0.0,0.0,0.0,0.0,0.0,0.0,0.0,0.0,0.0,0.0,0.0,0.0,0.0,0.0,0.0,0.0,0.0,0.0,0.0,0.0,0.0,0.0,0.0,0.0,0.0,0.0,0.0,0.0,0.0,0.0,0.0,0.0,0.0,0.0,0.0,0.0,0.0,0.0,0.0,0.0,0.0,0.0,0.0,0.0,0.0,0.0,0.0,0.0,0.0,0.0,0.0,0.0,0.0,0.0,0.0,0.0,0.0,0.0,0.0,0.0,0.0,0.0,0.0,0.0,0.0,0.0,0.0,0.0,0.0,0.0,0.0,0.0,0.0,0.0,0.0,0.0,0.0,0.0,0.0,0.0,0.0,0.0,0.0,0.0,0.0,0.0,0.0,0.0,0.0,-3.4526,-2.6116,-1.7431,-0.9568,-0.4193,0.1181,0.6991,0.0,0.0,0.0,0.0,0.0,0.0,0.0,0.0,0.0,0.0,0.0,0.0,0.0,0.0]}]]]